﻿<?xml version="1.0" encoding="utf-8"?><gpx creator="Garmin Desktop App" version="1.1" xsi:schemaLocation="http://www.topografix.com/GPX/1/1 http://www.topografix.com/GPX/1/1/gpx.xsd http://www.garmin.com/xmlschemas/WaypointExtension/v1 http://www8.garmin.com/xmlschemas/WaypointExtensionv1.xsd http://www.garmin.com/xmlschemas/TrackPointExtension/v1 http://www.garmin.com/xmlschemas/TrackPointExtensionv1.xsd http://www.garmin.com/xmlschemas/GpxExtensions/v3 http://www8.garmin.com/xmlschemas/GpxExtensionsv3.xsd http://www.garmin.com/xmlschemas/ActivityExtension/v1 http://www8.garmin.com/xmlschemas/ActivityExtensionv1.xsd http://www.garmin.com/xmlschemas/AdventuresExtensions/v1 http://www8.garmin.com/xmlschemas/AdventuresExtensionv1.xsd http://www.garmin.com/xmlschemas/PressureExtension/v1 http://www.garmin.com/xmlschemas/PressureExtensionv1.xsd http://www.garmin.com/xmlschemas/TripExtensions/v1 http://www.garmin.com/xmlschemas/TripExtensionsv1.xsd http://www.garmin.com/xmlschemas/TripMetaDataExtensions/v1 http://www.garmin.com/xmlschemas/TripMetaDataExtensionsv1.xsd http://www.garmin.com/xmlschemas/ViaPointTransportationModeExtensions/v1 http://www.garmin.com/xmlschemas/ViaPointTransportationModeExtensionsv1.xsd http://www.garmin.com/xmlschemas/CreationTimeExtension/v1 http://www.garmin.com/xmlschemas/CreationTimeExtensionsv1.xsd http://www.garmin.com/xmlschemas/AccelerationExtension/v1 http://www.garmin.com/xmlschemas/AccelerationExtensionv1.xsd http://www.garmin.com/xmlschemas/PowerExtension/v1 http://www.garmin.com/xmlschemas/PowerExtensionv1.xsd http://www.garmin.com/xmlschemas/VideoExtension/v1 http://www.garmin.com/xmlschemas/VideoExtensionv1.xsd" xmlns="http://www.topografix.com/GPX/1/1" xmlns:xsi="http://www.w3.org/2001/XMLSchema-instance" xmlns:wptx1="http://www.garmin.com/xmlschemas/WaypointExtension/v1" xmlns:gpxtrx="http://www.garmin.com/xmlschemas/GpxExtensions/v3" xmlns:gpxtpx="http://www.garmin.com/xmlschemas/TrackPointExtension/v1" xmlns:gpxx="http://www.garmin.com/xmlschemas/GpxExtensions/v3" xmlns:trp="http://www.garmin.com/xmlschemas/TripExtensions/v1" xmlns:adv="http://www.garmin.com/xmlschemas/AdventuresExtensions/v1" xmlns:prs="http://www.garmin.com/xmlschemas/PressureExtension/v1" xmlns:tmd="http://www.garmin.com/xmlschemas/TripMetaDataExtensions/v1" xmlns:vptm="http://www.garmin.com/xmlschemas/ViaPointTransportationModeExtensions/v1" xmlns:ctx="http://www.garmin.com/xmlschemas/CreationTimeExtension/v1" xmlns:gpxacc="http://www.garmin.com/xmlschemas/AccelerationExtension/v1" xmlns:gpxpx="http://www.garmin.com/xmlschemas/PowerExtension/v1" xmlns:vidx1="http://www.garmin.com/xmlschemas/VideoExtension/v1">

  <metadata>
    <link href="http://www.garmin.com">
      <text>Garmin International</text>
    </link>
    <time>2021-01-20T17:23:11Z</time>
    <bounds maxlat="46.401174422353506" maxlon="11.8494853656739" minlat="46.377869797870517" minlon="11.794027425348759" />
  </metadata>

  <trk>
    <name>forca rossa2018-03-02</name>
    <extensions>
      <gpxx:TrackExtension>
        <gpxx:DisplayColor>Yellow</gpxx:DisplayColor>
      </gpxx:TrackExtension>
      <gpxtrkx:TrackStatsExtension xmlns:gpxtrkx="http://www.garmin.com/xmlschemas/TrackStatsExtension/v1">
        <gpxtrkx:Distance>14608</gpxtrkx:Distance>
        <gpxtrkx:TotalElapsedTime>22459</gpxtrkx:TotalElapsedTime>
        <gpxtrkx:MovingTime>14845</gpxtrkx:MovingTime>
        <gpxtrkx:StoppedTime>7604</gpxtrkx:StoppedTime>
        <gpxtrkx:MovingSpeed>1</gpxtrkx:MovingSpeed>
        <gpxtrkx:MaxSpeed>3</gpxtrkx:MaxSpeed>
        <gpxtrkx:MaxElevation>2334</gpxtrkx:MaxElevation>
        <gpxtrkx:MinElevation>1910</gpxtrkx:MinElevation>
        <gpxtrkx:Ascent>504</gpxtrkx:Ascent>
        <gpxtrkx:Descent>501</gpxtrkx:Descent>
        <gpxtrkx:AvgAscentRate>0</gpxtrkx:AvgAscentRate>
        <gpxtrkx:MaxAscentRate>0</gpxtrkx:MaxAscentRate>
        <gpxtrkx:AvgDescentRate>0</gpxtrkx:AvgDescentRate>
        <gpxtrkx:MaxDescentRate>-0</gpxtrkx:MaxDescentRate>
      </gpxtrkx:TrackStatsExtension>
    </extensions>
    <trkseg>
      <trkpt lat="46.377914305776358" lon="11.794140748679638">
        <ele>1920.8499999999999</ele>
        <time>2018-03-02T08:53:57Z</time>
      </trkpt>
      <trkpt lat="46.377911623567343" lon="11.794136138632894">
        <ele>1919.8900000000001</ele>
        <time>2018-03-02T08:54:10Z</time>
      </trkpt>
      <trkpt lat="46.37790609151125" lon="11.794137647375464">
        <ele>1919.8900000000001</ele>
        <time>2018-03-02T08:54:11Z</time>
      </trkpt>
      <trkpt lat="46.377904582768679" lon="11.794111495837569">
        <ele>1920.3699999999999</ele>
        <time>2018-03-02T08:54:21Z</time>
      </trkpt>
      <trkpt lat="46.37788413092494" lon="11.794101940467954">
        <ele>1920.8499999999999</ele>
        <time>2018-03-02T08:54:35Z</time>
      </trkpt>
      <trkpt lat="46.377888824790716" lon="11.79406899958849">
        <ele>1920.8499999999999</ele>
        <time>2018-03-02T08:54:58Z</time>
      </trkpt>
      <trkpt lat="46.37788312509656" lon="11.794084003195167">
        <ele>1920.3699999999999</ele>
        <time>2018-03-02T08:55:15Z</time>
      </trkpt>
      <trkpt lat="46.377880778163671" lon="11.794089116156101">
        <ele>1920.8499999999999</ele>
        <time>2018-03-02T08:55:28Z</time>
      </trkpt>
      <trkpt lat="46.377913719043136" lon="11.794087188318372">
        <ele>1920.8499999999999</ele>
        <time>2018-03-02T08:55:49Z</time>
      </trkpt>
      <trkpt lat="46.377905588597059" lon="11.794110322371125">
        <ele>1920.3699999999999</ele>
        <time>2018-03-02T08:56:05Z</time>
      </trkpt>
      <trkpt lat="46.37791832908988" lon="11.794118452817202">
        <ele>1920.3699999999999</ele>
        <time>2018-03-02T08:56:23Z</time>
      </trkpt>
      <trkpt lat="46.377911120653152" lon="11.794093726202846">
        <ele>1919.8900000000001</ele>
        <time>2018-03-02T08:56:33Z</time>
      </trkpt>
      <trkpt lat="46.377923022955656" lon="11.794079728424549">
        <ele>1919.8900000000001</ele>
        <time>2018-03-02T08:56:48Z</time>
      </trkpt>
      <trkpt lat="46.377904415130615" lon="11.79408760741353">
        <ele>1920.8499999999999</ele>
        <time>2018-03-02T08:57:01Z</time>
      </trkpt>
      <trkpt lat="46.377902319654822" lon="11.794073861092329">
        <ele>1920.8499999999999</ele>
        <time>2018-03-02T08:57:10Z</time>
      </trkpt>
      <trkpt lat="46.377922268584371" lon="11.794097162783146">
        <ele>1920.3699999999999</ele>
        <time>2018-03-02T08:57:22Z</time>
      </trkpt>
      <trkpt lat="46.377941211685538" lon="11.794085931032896">
        <ele>1920.8499999999999</ele>
        <time>2018-03-02T08:57:32Z</time>
      </trkpt>
      <trkpt lat="46.377955125644803" lon="11.794099844992161">
        <ele>1920.3699999999999</ele>
        <time>2018-03-02T08:57:47Z</time>
      </trkpt>
      <trkpt lat="46.37793785892427" lon="11.794088445603848">
        <ele>1920.8499999999999</ele>
        <time>2018-03-02T08:58:03Z</time>
      </trkpt>
      <trkpt lat="46.377936350181699" lon="11.794058857485652">
        <ele>1920.8499999999999</ele>
        <time>2018-03-02T08:58:22Z</time>
      </trkpt>
      <trkpt lat="46.377920256927609" lon="11.79405827075243">
        <ele>1920.8499999999999</ele>
        <time>2018-03-02T08:58:48Z</time>
      </trkpt>
      <trkpt lat="46.377919921651483" lon="11.794027425348759">
        <ele>1920.8499999999999</ele>
        <time>2018-03-02T08:59:08Z</time>
      </trkpt>
      <trkpt lat="46.377910701557994" lon="11.794027676805854">
        <ele>1920.8499999999999</ele>
        <time>2018-03-02T08:59:32Z</time>
      </trkpt>
      <trkpt lat="46.377923861145973" lon="11.794037315994501">
        <ele>1920.8499999999999</ele>
        <time>2018-03-02T08:59:50Z</time>
      </trkpt>
      <trkpt lat="46.377911539748311" lon="11.794051146134734">
        <ele>1921.3299999999999</ele>
        <time>2018-03-02T09:00:06Z</time>
      </trkpt>
      <trkpt lat="46.377889243885875" lon="11.794072519987822">
        <ele>1920.8499999999999</ele>
        <time>2018-03-02T09:00:15Z</time>
      </trkpt>
      <trkpt lat="46.377882286906242" lon="11.794059695675969">
        <ele>1921.8099999999999</ele>
        <time>2018-03-02T09:00:27Z</time>
      </trkpt>
      <trkpt lat="46.377885304391384" lon="11.794054415076971">
        <ele>1921.3299999999999</ele>
        <time>2018-03-02T09:00:42Z</time>
      </trkpt>
      <trkpt lat="46.377878347411752" lon="11.794068664312363">
        <ele>1921.3299999999999</ele>
        <time>2018-03-02T09:00:58Z</time>
      </trkpt>
      <trkpt lat="46.377872144803405" lon="11.794079979881644">
        <ele>1921.3299999999999</ele>
        <time>2018-03-02T09:01:16Z</time>
      </trkpt>
      <trkpt lat="46.377869797870517" lon="11.794085428118706">
        <ele>1920.8499999999999</ele>
        <time>2018-03-02T09:01:32Z</time>
      </trkpt>
      <trkpt lat="46.377884801477194" lon="11.794074615463614">
        <ele>1920.3699999999999</ele>
        <time>2018-03-02T09:01:44Z</time>
      </trkpt>
      <trkpt lat="46.37788706459105" lon="11.794048296287656">
        <ele>1921.3299999999999</ele>
        <time>2018-03-02T09:01:58Z</time>
      </trkpt>
      <trkpt lat="46.377897374331951" lon="11.794047374278307">
        <ele>1920.3699999999999</ele>
        <time>2018-03-02T09:02:11Z</time>
      </trkpt>
      <trkpt lat="46.377887735143304" lon="11.794039160013199">
        <ele>1921.3299999999999</ele>
        <time>2018-03-02T09:02:23Z</time>
      </trkpt>
      <trkpt lat="46.377883292734623" lon="11.794062629342079">
        <ele>1920.8499999999999</ele>
        <time>2018-03-02T09:02:41Z</time>
      </trkpt>
      <trkpt lat="46.377942971885204" lon="11.794064724817872">
        <ele>1921.3299999999999</ele>
        <time>2018-03-02T09:02:49Z</time>
      </trkpt>
      <trkpt lat="46.37799259275198" lon="11.79410956799984">
        <ele>1921.3299999999999</ele>
        <time>2018-03-02T09:02:58Z</time>
      </trkpt>
      <trkpt lat="46.378005500882864" lon="11.7941306065768">
        <ele>1921.3299999999999</ele>
        <time>2018-03-02T09:03:13Z</time>
      </trkpt>
      <trkpt lat="46.378003321588039" lon="11.794146867468953">
        <ele>1920.8499999999999</ele>
        <time>2018-03-02T09:03:24Z</time>
      </trkpt>
      <trkpt lat="46.377994772046804" lon="11.794146532192826">
        <ele>1920.8499999999999</ele>
        <time>2018-03-02T09:03:43Z</time>
      </trkpt>
      <trkpt lat="46.377993430942297" lon="11.794175449758768">
        <ele>1920.8499999999999</ele>
        <time>2018-03-02T09:03:55Z</time>
      </trkpt>
      <trkpt lat="46.378007428720593" lon="11.794193973764777">
        <ele>1920.8499999999999</ele>
        <time>2018-03-02T09:03:58Z</time>
      </trkpt>
      <trkpt lat="46.378064509481192" lon="11.794361192733049">
        <ele>1919.8900000000001</ele>
        <time>2018-03-02T09:04:10Z</time>
      </trkpt>
      <trkpt lat="46.378068365156651" lon="11.794377705082297">
        <ele>1920.3699999999999</ele>
        <time>2018-03-02T09:04:11Z</time>
      </trkpt>
      <trkpt lat="46.378085128962994" lon="11.794451465830207">
        <ele>1919.8900000000001</ele>
        <time>2018-03-02T09:04:16Z</time>
      </trkpt>
      <trkpt lat="46.378095354884863" lon="11.794519694522023">
        <ele>1919.4100000000001</ele>
        <time>2018-03-02T09:04:20Z</time>
      </trkpt>
      <trkpt lat="46.378082279115915" lon="11.794648943468928">
        <ele>1918.9300000000001</ele>
        <time>2018-03-02T09:04:31Z</time>
      </trkpt>
      <trkpt lat="46.37806392274797" lon="11.79465095512569">
        <ele>1918.9300000000001</ele>
        <time>2018-03-02T09:04:48Z</time>
      </trkpt>
      <trkpt lat="46.378075992688537" lon="11.794688338413835">
        <ele>1918.9300000000001</ele>
        <time>2018-03-02T09:04:59Z</time>
      </trkpt>
      <trkpt lat="46.378060737624764" lon="11.794685907661915">
        <ele>1918.9300000000001</ele>
        <time>2018-03-02T09:05:09Z</time>
      </trkpt>
      <trkpt lat="46.378070125356317" lon="11.794703677296638">
        <ele>1918.9300000000001</ele>
        <time>2018-03-02T09:05:29Z</time>
      </trkpt>
      <trkpt lat="46.378093091771007" lon="11.794748352840543">
        <ele>1918.9300000000001</ele>
        <time>2018-03-02T09:05:40Z</time>
      </trkpt>
      <trkpt lat="46.378094935789704" lon="11.794770061969757">
        <ele>1918.45</ele>
        <time>2018-03-02T09:05:42Z</time>
      </trkpt>
      <trkpt lat="46.378100300207734" lon="11.794792525470257">
        <ele>1918.45</ele>
        <time>2018-03-02T09:05:44Z</time>
      </trkpt>
      <trkpt lat="46.378111364319921" lon="11.794825717806816">
        <ele>1918.45</ele>
        <time>2018-03-02T09:05:47Z</time>
      </trkpt>
      <trkpt lat="46.378152770921588" lon="11.794858742505312">
        <ele>1917.97</ele>
        <time>2018-03-02T09:05:52Z</time>
      </trkpt>
      <trkpt lat="46.378268022090197" lon="11.794920098036528">
        <ele>1917.97</ele>
        <time>2018-03-02T09:06:03Z</time>
      </trkpt>
      <trkpt lat="46.378314290195704" lon="11.794952703639865">
        <ele>1917.97</ele>
        <time>2018-03-02T09:06:08Z</time>
      </trkpt>
      <trkpt lat="46.378389894962311" lon="11.794971898198128">
        <ele>1917.97</ele>
        <time>2018-03-02T09:06:15Z</time>
      </trkpt>
      <trkpt lat="46.378402719274163" lon="11.795028727501631">
        <ele>1917.97</ele>
        <time>2018-03-02T09:06:24Z</time>
      </trkpt>
      <trkpt lat="46.378413699567318" lon="11.795034259557724">
        <ele>1917.97</ele>
        <time>2018-03-02T09:06:26Z</time>
      </trkpt>
      <trkpt lat="46.378433732315898" lon="11.795075414702296">
        <ele>1917.97</ele>
        <time>2018-03-02T09:06:31Z</time>
      </trkpt>
      <trkpt lat="46.37847145088017" lon="11.795122437179089">
        <ele>1917.97</ele>
        <time>2018-03-02T09:06:35Z</time>
      </trkpt>
      <trkpt lat="46.378477904945612" lon="11.795313293114305">
        <ele>1917.49</ele>
        <time>2018-03-02T09:06:46Z</time>
      </trkpt>
      <trkpt lat="46.378480503335595" lon="11.795356040820479">
        <ele>1917.97</ele>
        <time>2018-03-02T09:06:49Z</time>
      </trkpt>
      <trkpt lat="46.378470780327916" lon="11.795477494597435">
        <ele>1917.49</ele>
        <time>2018-03-02T09:06:56Z</time>
      </trkpt>
      <trkpt lat="46.37846658937633" lon="11.795509094372392">
        <ele>1917.49</ele>
        <time>2018-03-02T09:06:58Z</time>
      </trkpt>
      <trkpt lat="46.378481173887849" lon="11.795720737427473">
        <ele>1917.49</ele>
        <time>2018-03-02T09:07:10Z</time>
      </trkpt>
      <trkpt lat="46.378495926037431" lon="11.795872030779719">
        <ele>1917.01</ele>
        <time>2018-03-02T09:07:19Z</time>
      </trkpt>
      <trkpt lat="46.37849248945713" lon="11.79590824060142">
        <ele>1917.01</ele>
        <time>2018-03-02T09:07:21Z</time>
      </trkpt>
      <trkpt lat="46.378498356789351" lon="11.79594436660409">
        <ele>1917.01</ele>
        <time>2018-03-02T09:07:23Z</time>
      </trkpt>
      <trkpt lat="46.378500955179334" lon="11.795984599739313">
        <ele>1917.01</ele>
        <time>2018-03-02T09:07:26Z</time>
      </trkpt>
      <trkpt lat="46.378503637388349" lon="11.796129271388054">
        <ele>1917.01</ele>
        <time>2018-03-02T09:07:36Z</time>
      </trkpt>
      <trkpt lat="46.378501877188683" lon="11.796175874769688">
        <ele>1917.01</ele>
        <time>2018-03-02T09:07:39Z</time>
      </trkpt>
      <trkpt lat="46.378503469750285" lon="11.796377208083868">
        <ele>1916.53</ele>
        <time>2018-03-02T09:07:51Z</time>
      </trkpt>
      <trkpt lat="46.378507744520903" lon="11.796535877510905">
        <ele>1916.53</ele>
        <time>2018-03-02T09:08:01Z</time>
      </trkpt>
      <trkpt lat="46.378507744520903" lon="11.796628665179014">
        <ele>1916.53</ele>
        <time>2018-03-02T09:08:09Z</time>
      </trkpt>
      <trkpt lat="46.378514785319567" lon="11.796685913577676">
        <ele>1916.04</ele>
        <time>2018-03-02T09:08:12Z</time>
      </trkpt>
      <trkpt lat="46.378536242991686" lon="11.796725057065487">
        <ele>1916.04</ele>
        <time>2018-03-02T09:08:14Z</time>
      </trkpt>
      <trkpt lat="46.378564322367311" lon="11.796894874423742">
        <ele>1916.53</ele>
        <time>2018-03-02T09:08:26Z</time>
      </trkpt>
      <trkpt lat="46.378565831109881" lon="11.796910213306546">
        <ele>1916.53</ele>
        <time>2018-03-02T09:08:27Z</time>
      </trkpt>
      <trkpt lat="46.378564490005374" lon="11.796955140307546">
        <ele>1917.01</ele>
        <time>2018-03-02T09:08:32Z</time>
      </trkpt>
      <trkpt lat="46.378559712320566" lon="11.797014735639095">
        <ele>1917.49</ele>
        <time>2018-03-02T09:08:43Z</time>
      </trkpt>
      <trkpt lat="46.378556443378329" lon="11.797024291008711">
        <ele>1917.01</ele>
        <time>2018-03-02T09:08:56Z</time>
      </trkpt>
      <trkpt lat="46.378547307103872" lon="11.797026805579662">
        <ele>1917.49</ele>
        <time>2018-03-02T09:09:12Z</time>
      </trkpt>
      <trkpt lat="46.378538925200701" lon="11.797037366777658">
        <ele>1917.01</ele>
        <time>2018-03-02T09:09:19Z</time>
      </trkpt>
      <trkpt lat="46.378543619066477" lon="11.797035690397024">
        <ele>1917.49</ele>
        <time>2018-03-02T09:09:29Z</time>
      </trkpt>
      <trkpt lat="46.37854864820838" lon="11.797044659033418">
        <ele>1917.49</ele>
        <time>2018-03-02T09:09:30Z</time>
      </trkpt>
      <trkpt lat="46.378555437549949" lon="11.797091849148273">
        <ele>1917.49</ele>
        <time>2018-03-02T09:09:33Z</time>
      </trkpt>
      <trkpt lat="46.378559796139598" lon="11.797248004004359">
        <ele>1917.97</ele>
        <time>2018-03-02T09:09:43Z</time>
      </trkpt>
      <trkpt lat="46.378563903272152" lon="11.797417905181646">
        <ele>1917.97</ele>
        <time>2018-03-02T09:09:54Z</time>
      </trkpt>
      <trkpt lat="46.378569435328245" lon="11.797583531588316">
        <ele>1918.9300000000001</ele>
        <time>2018-03-02T09:10:05Z</time>
      </trkpt>
      <trkpt lat="46.378574129194021" lon="11.797736082226038">
        <ele>1919.4100000000001</ele>
        <time>2018-03-02T09:10:15Z</time>
      </trkpt>
      <trkpt lat="46.37857991270721" lon="11.797891901805997">
        <ele>1919.4100000000001</ele>
        <time>2018-03-02T09:10:25Z</time>
      </trkpt>
      <trkpt lat="46.378592485561967" lon="11.798040512949228">
        <ele>1919.4100000000001</ele>
        <time>2018-03-02T09:10:34Z</time>
      </trkpt>
      <trkpt lat="46.378619810566306" lon="11.798114608973265">
        <ele>1918.9300000000001</ele>
        <time>2018-03-02T09:10:40Z</time>
      </trkpt>
      <trkpt lat="46.378716789186001" lon="11.798245701938868">
        <ele>1918.45</ele>
        <time>2018-03-02T09:10:52Z</time>
      </trkpt>
      <trkpt lat="46.378788538277149" lon="11.798376543447375">
        <ele>1917.97</ele>
        <time>2018-03-02T09:11:03Z</time>
      </trkpt>
      <trkpt lat="46.378815779462457" lon="11.798454998061061">
        <ele>1917.49</ele>
        <time>2018-03-02T09:11:09Z</time>
      </trkpt>
      <trkpt lat="46.378869591280818" lon="11.798543762415648">
        <ele>1917.49</ele>
        <time>2018-03-02T09:11:16Z</time>
      </trkpt>
      <trkpt lat="46.378909489139915" lon="11.798592125996947">
        <ele>1917.01</ele>
        <time>2018-03-02T09:11:21Z</time>
      </trkpt>
      <trkpt lat="46.37897084467113" lon="11.798672173172235">
        <ele>1916.53</ele>
        <time>2018-03-02T09:11:28Z</time>
      </trkpt>
      <trkpt lat="46.379024656489491" lon="11.798823550343513">
        <ele>1916.53</ele>
        <time>2018-03-02T09:11:38Z</time>
      </trkpt>
      <trkpt lat="46.379036977887154" lon="11.798947853967547">
        <ele>1916.53</ele>
        <time>2018-03-02T09:11:46Z</time>
      </trkpt>
      <trkpt lat="46.379053490236402" lon="11.799120018258691">
        <ele>1917.01</ele>
        <time>2018-03-02T09:11:57Z</time>
      </trkpt>
      <trkpt lat="46.379085760563612" lon="11.799273239448667">
        <ele>1917.01</ele>
        <time>2018-03-02T09:12:07Z</time>
      </trkpt>
      <trkpt lat="46.379089280962944" lon="11.799307186156511">
        <ele>1916.04</ele>
        <time>2018-03-02T09:12:09Z</time>
      </trkpt>
      <trkpt lat="46.379129346460104" lon="11.799437273293734">
        <ele>1916.04</ele>
        <time>2018-03-02T09:12:18Z</time>
      </trkpt>
      <trkpt lat="46.379138985648751" lon="11.799471555277705">
        <ele>1915.5599999999999</ele>
        <time>2018-03-02T09:12:20Z</time>
      </trkpt>
      <trkpt lat="46.379184164106846" lon="11.799613796174526">
        <ele>1915.0799999999999</ele>
        <time>2018-03-02T09:12:30Z</time>
      </trkpt>
      <trkpt lat="46.379219451919198" lon="11.799781015142798">
        <ele>1914.5999999999999</ele>
        <time>2018-03-02T09:12:41Z</time>
      </trkpt>
      <trkpt lat="46.379248620942235" lon="11.799949742853642">
        <ele>1914.5999999999999</ele>
        <time>2018-03-02T09:12:52Z</time>
      </trkpt>
      <trkpt lat="46.379258930683136" lon="11.799991065636277">
        <ele>1914.5999999999999</ele>
        <time>2018-03-02T09:12:55Z</time>
      </trkpt>
      <trkpt lat="46.379270665347576" lon="11.800026353448629">
        <ele>1914.5999999999999</ele>
        <time>2018-03-02T09:12:58Z</time>
      </trkpt>
      <trkpt lat="46.379312239587307" lon="11.800114950165153">
        <ele>1914.1199999999999</ele>
        <time>2018-03-02T09:13:05Z</time>
      </trkpt>
      <trkpt lat="46.379354065284133" lon="11.800159541890025">
        <ele>1913.6400000000001</ele>
        <time>2018-03-02T09:13:10Z</time>
      </trkpt>
      <trkpt lat="46.379453977569938" lon="11.800262555480003">
        <ele>1913.6400000000001</ele>
        <time>2018-03-02T09:13:21Z</time>
      </trkpt>
      <trkpt lat="46.379482224583626" lon="11.800295663997531">
        <ele>1913.6400000000001</ele>
        <time>2018-03-02T09:13:24Z</time>
      </trkpt>
      <trkpt lat="46.379579454660416" lon="11.800399431958795">
        <ele>1912.6800000000001</ele>
        <time>2018-03-02T09:13:35Z</time>
      </trkpt>
      <trkpt lat="46.379647180438042" lon="11.800507809966803">
        <ele>1913.1600000000001</ele>
        <time>2018-03-02T09:13:45Z</time>
      </trkpt>
      <trkpt lat="46.379656987264752" lon="11.800533961504698">
        <ele>1912.6800000000001</ele>
        <time>2018-03-02T09:13:47Z</time>
      </trkpt>
      <trkpt lat="46.37967886403203" lon="11.800695480778813">
        <ele>1912.6800000000001</ele>
        <time>2018-03-02T09:13:58Z</time>
      </trkpt>
      <trkpt lat="46.379687581211329" lon="11.800848031416535">
        <ele>1913.1600000000001</ele>
        <time>2018-03-02T09:14:08Z</time>
      </trkpt>
      <trkpt lat="46.379687581211329" lon="11.801019022241235">
        <ele>1913.1600000000001</ele>
        <time>2018-03-02T09:14:19Z</time>
      </trkpt>
      <trkpt lat="46.379685066640377" lon="11.801046095788479">
        <ele>1913.6400000000001</ele>
        <time>2018-03-02T09:14:21Z</time>
      </trkpt>
      <trkpt lat="46.379696968942881" lon="11.801176518201828">
        <ele>1914.1199999999999</ele>
        <time>2018-03-02T09:14:30Z</time>
      </trkpt>
      <trkpt lat="46.379700656980276" lon="11.801269222050905">
        <ele>1914.1199999999999</ele>
        <time>2018-03-02T09:14:37Z</time>
      </trkpt>
      <trkpt lat="46.379709709435701" lon="11.801386903971434">
        <ele>1914.5999999999999</ele>
        <time>2018-03-02T09:14:46Z</time>
      </trkpt>
      <trkpt lat="46.379724377766252" lon="11.801451863721013">
        <ele>1915.0799999999999</ele>
        <time>2018-03-02T09:14:51Z</time>
      </trkpt>
      <trkpt lat="46.379742231220007" lon="11.801600055769086">
        <ele>1915.5599999999999</ele>
        <time>2018-03-02T09:15:01Z</time>
      </trkpt>
      <trkpt lat="46.379760168492794" lon="11.801705835387111">
        <ele>1916.04</ele>
        <time>2018-03-02T09:15:09Z</time>
      </trkpt>
      <trkpt lat="46.379802664741874" lon="11.801844472065568">
        <ele>1916.04</ele>
        <time>2018-03-02T09:15:20Z</time>
      </trkpt>
      <trkpt lat="46.379873659461737" lon="11.801925525069237">
        <ele>1916.04</ele>
        <time>2018-03-02T09:15:30Z</time>
      </trkpt>
      <trkpt lat="46.379912719130516" lon="11.801977241411805">
        <ele>1916.53</ele>
        <time>2018-03-02T09:15:35Z</time>
      </trkpt>
      <trkpt lat="46.379998801276088" lon="11.802107077091932">
        <ele>1916.04</ele>
        <time>2018-03-02T09:15:46Z</time>
      </trkpt>
      <trkpt lat="46.380037106573582" lon="11.802208246663213">
        <ele>1916.53</ele>
        <time>2018-03-02T09:15:55Z</time>
      </trkpt>
      <trkpt lat="46.380071304738522" lon="11.80231612175703">
        <ele>1916.53</ele>
        <time>2018-03-02T09:16:05Z</time>
      </trkpt>
      <trkpt lat="46.380072478204966" lon="11.802403796464205">
        <ele>1916.53</ele>
        <time>2018-03-02T09:16:11Z</time>
      </trkpt>
      <trkpt lat="46.38008781708777" lon="11.802515527233481">
        <ele>1917.49</ele>
        <time>2018-03-02T09:16:20Z</time>
      </trkpt>
      <trkpt lat="46.380126625299454" lon="11.802630024030805">
        <ele>1917.49</ele>
        <time>2018-03-02T09:16:30Z</time>
      </trkpt>
      <trkpt lat="46.380155878141522" lon="11.802766481414437">
        <ele>1917.49</ele>
        <time>2018-03-02T09:16:41Z</time>
      </trkpt>
      <trkpt lat="46.380193512886763" lon="11.802926156669855">
        <ele>1917.97</ele>
        <time>2018-03-02T09:16:53Z</time>
      </trkpt>
      <trkpt lat="46.38022854924202" lon="11.803058004006743">
        <ele>1917.97</ele>
        <time>2018-03-02T09:17:04Z</time>
      </trkpt>
      <trkpt lat="46.380241541191936" lon="11.803095052018762">
        <ele>1917.97</ele>
        <time>2018-03-02T09:17:07Z</time>
      </trkpt>
      <trkpt lat="46.38025252148509" lon="11.803136123344302">
        <ele>1917.97</ele>
        <time>2018-03-02T09:17:11Z</time>
      </trkpt>
      <trkpt lat="46.380280014127493" lon="11.80325916968286">
        <ele>1917.97</ele>
        <time>2018-03-02T09:17:20Z</time>
      </trkpt>
      <trkpt lat="46.380300717428327" lon="11.80334952659905">
        <ele>1918.45</ele>
        <time>2018-03-02T09:17:27Z</time>
      </trkpt>
      <trkpt lat="46.380298538133502" lon="11.803394705057144">
        <ele>1918.45</ele>
        <time>2018-03-02T09:17:31Z</time>
      </trkpt>
      <trkpt lat="46.38032678514719" lon="11.803528564050794">
        <ele>1918.45</ele>
        <time>2018-03-02T09:17:42Z</time>
      </trkpt>
      <trkpt lat="46.380351008847356" lon="11.803658483549953">
        <ele>1918.45</ele>
        <time>2018-03-02T09:17:52Z</time>
      </trkpt>
      <trkpt lat="46.380373053252697" lon="11.803797874599695">
        <ele>1918.9300000000001</ele>
        <time>2018-03-02T09:18:03Z</time>
      </trkpt>
      <trkpt lat="46.38038445264101" lon="11.803868869319558">
        <ele>1919.4100000000001</ele>
        <time>2018-03-02T09:18:11Z</time>
      </trkpt>
      <trkpt lat="46.38038394972682" lon="11.803837521001697">
        <ele>1918.9300000000001</ele>
        <time>2018-03-02T09:18:20Z</time>
      </trkpt>
      <trkpt lat="46.380377495661378" lon="11.803835676982999">
        <ele>1918.9300000000001</ele>
        <time>2018-03-02T09:18:32Z</time>
      </trkpt>
      <trkpt lat="46.380386548116803" lon="11.803829725831747">
        <ele>1919.4100000000001</ele>
        <time>2018-03-02T09:18:47Z</time>
      </trkpt>
      <trkpt lat="46.380359977483749" lon="11.803819835186005">
        <ele>1919.4100000000001</ele>
        <time>2018-03-02T09:19:01Z</time>
      </trkpt>
      <trkpt lat="46.380369365215302" lon="11.803840203210711">
        <ele>1918.9300000000001</ele>
        <time>2018-03-02T09:19:13Z</time>
      </trkpt>
      <trkpt lat="46.380391158163548" lon="11.803825870156288">
        <ele>1919.4100000000001</ele>
        <time>2018-03-02T09:19:31Z</time>
      </trkpt>
      <trkpt lat="46.380405575037003" lon="11.803827295079827">
        <ele>1919.4100000000001</ele>
        <time>2018-03-02T09:19:47Z</time>
      </trkpt>
      <trkpt lat="46.380408173426986" lon="11.803839784115553">
        <ele>1919.4100000000001</ele>
        <time>2018-03-02T09:20:08Z</time>
      </trkpt>
      <trkpt lat="46.380404653027654" lon="11.803858475759625">
        <ele>1919.4100000000001</ele>
        <time>2018-03-02T09:20:23Z</time>
      </trkpt>
      <trkpt lat="46.380395013839006" lon="11.803857302293181">
        <ele>1919.4100000000001</ele>
        <time>2018-03-02T09:20:41Z</time>
      </trkpt>
      <trkpt lat="46.380419069901109" lon="11.803828720003366">
        <ele>1919.4100000000001</ele>
        <time>2018-03-02T09:20:55Z</time>
      </trkpt>
      <trkpt lat="46.380406664684415" lon="11.803843388333917">
        <ele>1916.53</ele>
        <time>2018-03-02T09:21:08Z</time>
      </trkpt>
      <trkpt lat="46.380408005788922" lon="11.803841963410378">
        <ele>1916.04</ele>
        <time>2018-03-02T09:21:09Z</time>
      </trkpt>
      <trkpt lat="46.380408843979239" lon="11.803841460496187">
        <ele>1920.3699999999999</ele>
        <time>2018-03-02T09:21:10Z</time>
      </trkpt>
      <trkpt lat="46.38040984980762" lon="11.80384405888617">
        <ele>1920.3699999999999</ele>
        <time>2018-03-02T09:21:11Z</time>
      </trkpt>
      <trkpt lat="46.380411358550191" lon="11.803846657276154">
        <ele>1923.74</ele>
        <time>2018-03-02T09:21:12Z</time>
      </trkpt>
      <trkpt lat="46.380411693826318" lon="11.803850429132581">
        <ele>1919.4100000000001</ele>
        <time>2018-03-02T09:21:14Z</time>
      </trkpt>
      <trkpt lat="46.380417058244348" lon="11.803848668932915">
        <ele>1919.4100000000001</ele>
        <time>2018-03-02T09:21:15Z</time>
      </trkpt>
      <trkpt lat="46.380421752110124" lon="11.803830396384001">
        <ele>1919.4100000000001</ele>
        <time>2018-03-02T09:21:27Z</time>
      </trkpt>
      <trkpt lat="46.380405155941844" lon="11.803816985338926">
        <ele>1919.4100000000001</ele>
        <time>2018-03-02T09:21:42Z</time>
      </trkpt>
      <trkpt lat="46.380403731018305" lon="11.803836598992348">
        <ele>1919.4100000000001</ele>
        <time>2018-03-02T09:21:57Z</time>
      </trkpt>
      <trkpt lat="46.380362492054701" lon="11.803905917331576">
        <ele>1919.4100000000001</ele>
        <time>2018-03-02T09:22:13Z</time>
      </trkpt>
      <trkpt lat="46.380356792360544" lon="11.803951263427734">
        <ele>1919.4100000000001</ele>
        <time>2018-03-02T09:22:32Z</time>
      </trkpt>
      <trkpt lat="46.380363749340177" lon="11.803919831290841">
        <ele>1919.8900000000001</ele>
        <time>2018-03-02T09:22:48Z</time>
      </trkpt>
      <trkpt lat="46.380397528409958" lon="11.803864343091846">
        <ele>1919.4100000000001</ele>
        <time>2018-03-02T09:22:59Z</time>
      </trkpt>
      <trkpt lat="46.380392666906118" lon="11.803857637569308">
        <ele>1919.4100000000001</ele>
        <time>2018-03-02T09:23:13Z</time>
      </trkpt>
      <trkpt lat="46.380402389913797" lon="11.803862666711211">
        <ele>1919.4100000000001</ele>
        <time>2018-03-02T09:23:27Z</time>
      </trkpt>
      <trkpt lat="46.380410687997937" lon="11.803870964795351">
        <ele>1919.4100000000001</ele>
        <time>2018-03-02T09:23:40Z</time>
      </trkpt>
      <trkpt lat="46.380415465682745" lon="11.80389242246747">
        <ele>1919.8900000000001</ele>
        <time>2018-03-02T09:23:48Z</time>
      </trkpt>
      <trkpt lat="46.380431558936834" lon="11.803978672251105">
        <ele>1919.8900000000001</ele>
        <time>2018-03-02T09:23:57Z</time>
      </trkpt>
      <trkpt lat="46.380477994680405" lon="11.80413625203073">
        <ele>1919.8900000000001</ele>
        <time>2018-03-02T09:24:09Z</time>
      </trkpt>
      <trkpt lat="46.380509091541171" lon="11.804185789078474">
        <ele>1919.4100000000001</ele>
        <time>2018-03-02T09:24:17Z</time>
      </trkpt>
      <trkpt lat="46.380518646910787" lon="11.804208839312196">
        <ele>1918.9300000000001</ele>
        <time>2018-03-02T09:24:19Z</time>
      </trkpt>
      <trkpt lat="46.380551839247346" lon="11.804377231746912">
        <ele>1918.45</ele>
        <time>2018-03-02T09:24:29Z</time>
      </trkpt>
      <trkpt lat="46.380582097917795" lon="11.804519137367606">
        <ele>1917.97</ele>
        <time>2018-03-02T09:24:39Z</time>
      </trkpt>
      <trkpt lat="46.380615206435323" lon="11.804670430719852">
        <ele>1917.97</ele>
        <time>2018-03-02T09:24:51Z</time>
      </trkpt>
      <trkpt lat="46.380628617480397" lon="11.804794147610664">
        <ele>1917.97</ele>
        <time>2018-03-02T09:25:00Z</time>
      </trkpt>
      <trkpt lat="46.380642531439662" lon="11.80493806488812">
        <ele>1917.97</ele>
        <time>2018-03-02T09:25:10Z</time>
      </trkpt>
      <trkpt lat="46.380670526996255" lon="11.805097237229347">
        <ele>1917.97</ele>
        <time>2018-03-02T09:25:21Z</time>
      </trkpt>
      <trkpt lat="46.380683518946171" lon="11.805235790088773">
        <ele>1917.01</ele>
        <time>2018-03-02T09:25:31Z</time>
      </trkpt>
      <trkpt lat="46.380689721554518" lon="11.805347939953208">
        <ele>1916.53</ele>
        <time>2018-03-02T09:25:41Z</time>
      </trkpt>
      <trkpt lat="46.380694918334484" lon="11.805401332676411">
        <ele>1916.53</ele>
        <time>2018-03-02T09:25:45Z</time>
      </trkpt>
      <trkpt lat="46.380699444562197" lon="11.805490180850029">
        <ele>1916.04</ele>
        <time>2018-03-02T09:25:52Z</time>
      </trkpt>
      <trkpt lat="46.38069860637188" lon="11.805525049567223">
        <ele>1915.5599999999999</ele>
        <time>2018-03-02T09:25:54Z</time>
      </trkpt>
      <trkpt lat="46.38070304878056" lon="11.805570479482412">
        <ele>1916.04</ele>
        <time>2018-03-02T09:25:57Z</time>
      </trkpt>
      <trkpt lat="46.380802458152175" lon="11.805671732872725">
        <ele>1917.01</ele>
        <time>2018-03-02T09:26:08Z</time>
      </trkpt>
      <trkpt lat="46.380808828398585" lon="11.805706350132823">
        <ele>1917.49</ele>
        <time>2018-03-02T09:26:11Z</time>
      </trkpt>
      <trkpt lat="46.380799189209938" lon="11.805821936577559">
        <ele>1917.01</ele>
        <time>2018-03-02T09:26:20Z</time>
      </trkpt>
      <trkpt lat="46.380786532536149" lon="11.805833503603935">
        <ele>1917.01</ele>
        <time>2018-03-02T09:26:37Z</time>
      </trkpt>
      <trkpt lat="46.380768092349172" lon="11.805909359827638">
        <ele>1916.04</ele>
        <time>2018-03-02T09:26:47Z</time>
      </trkpt>
      <trkpt lat="46.380755351856351" lon="11.805965937674046">
        <ele>1915.0799999999999</ele>
        <time>2018-03-02T09:26:52Z</time>
      </trkpt>
      <trkpt lat="46.380737330764532" lon="11.806002147495747">
        <ele>1914.1199999999999</ele>
        <time>2018-03-02T09:26:55Z</time>
      </trkpt>
      <trkpt lat="46.380748981609941" lon="11.806107591837645">
        <ele>1913.6400000000001</ele>
        <time>2018-03-02T09:27:03Z</time>
      </trkpt>
      <trkpt lat="46.380731882527471" lon="11.806152435019612">
        <ele>1913.6400000000001</ele>
        <time>2018-03-02T09:27:07Z</time>
      </trkpt>
      <trkpt lat="46.380729116499424" lon="11.806180011481047">
        <ele>1913.6400000000001</ele>
        <time>2018-03-02T09:27:09Z</time>
      </trkpt>
      <trkpt lat="46.380725177004933" lon="11.806342117488384">
        <ele>1913.1600000000001</ele>
        <time>2018-03-02T09:27:20Z</time>
      </trkpt>
      <trkpt lat="46.380709670484066" lon="11.806496260687709">
        <ele>1912.6800000000001</ele>
        <time>2018-03-02T09:27:30Z</time>
      </trkpt>
      <trkpt lat="46.380715286359191" lon="11.806620648130774">
        <ele>1913.1600000000001</ele>
        <time>2018-03-02T09:27:39Z</time>
      </trkpt>
      <trkpt lat="46.380759961903095" lon="11.806751154363155">
        <ele>1912.6800000000001</ele>
        <time>2018-03-02T09:27:50Z</time>
      </trkpt>
      <trkpt lat="46.380789466202259" lon="11.806773282587528">
        <ele>1912.6800000000001</ele>
        <time>2018-03-02T09:27:54Z</time>
      </trkpt>
      <trkpt lat="46.380874961614609" lon="11.806757356971502">
        <ele>1912.2</ele>
        <time>2018-03-02T09:28:04Z</time>
      </trkpt>
      <trkpt lat="46.380888037383556" lon="11.80675090290606">
        <ele>1912.2</ele>
        <time>2018-03-02T09:28:06Z</time>
      </trkpt>
      <trkpt lat="46.38095123693347" lon="11.806677896529436">
        <ele>1912.2</ele>
        <time>2018-03-02T09:28:15Z</time>
      </trkpt>
      <trkpt lat="46.381078390404582" lon="11.806628946214914">
        <ele>1911.24</ele>
        <time>2018-03-02T09:28:29Z</time>
      </trkpt>
      <trkpt lat="46.381141422316432" lon="11.806628778576851">
        <ele>1911.24</ele>
        <time>2018-03-02T09:28:36Z</time>
      </trkpt>
      <trkpt lat="46.38117503374815" lon="11.806656941771507">
        <ele>1911.24</ele>
        <time>2018-03-02T09:28:39Z</time>
      </trkpt>
      <trkpt lat="46.381295062601566" lon="11.806630957871675">
        <ele>1910.76</ele>
        <time>2018-03-02T09:28:49Z</time>
      </trkpt>
      <trkpt lat="46.381307048723102" lon="11.806630622595549">
        <ele>1911.24</ele>
        <time>2018-03-02T09:28:50Z</time>
      </trkpt>
      <trkpt lat="46.38141006231308" lon="11.806602207943797">
        <ele>1910.28</ele>
        <time>2018-03-02T09:28:59Z</time>
      </trkpt>
      <trkpt lat="46.381509304046631" lon="11.806611344218254">
        <ele>1910.28</ele>
        <time>2018-03-02T09:29:09Z</time>
      </trkpt>
      <trkpt lat="46.381517602130771" lon="11.806615116074681">
        <ele>1910.28</ele>
        <time>2018-03-02T09:29:10Z</time>
      </trkpt>
      <trkpt lat="46.381539478898048" lon="11.806614780798554">
        <ele>1910.28</ele>
        <time>2018-03-02T09:29:12Z</time>
      </trkpt>
      <trkpt lat="46.381646515801549" lon="11.806675968691707">
        <ele>1909.8</ele>
        <time>2018-03-02T09:29:25Z</time>
      </trkpt>
      <trkpt lat="46.38169689103961" lon="11.806714190170169">
        <ele>1909.8</ele>
        <time>2018-03-02T09:29:31Z</time>
      </trkpt>
      <trkpt lat="46.381788924336433" lon="11.806826423853636">
        <ele>1909.8</ele>
        <time>2018-03-02T09:29:42Z</time>
      </trkpt>
      <trkpt lat="46.381841478869319" lon="11.806969838216901">
        <ele>1910.28</ele>
        <time>2018-03-02T09:29:52Z</time>
      </trkpt>
      <trkpt lat="46.381861176341772" lon="11.807127250358462">
        <ele>1910.28</ele>
        <time>2018-03-02T09:30:03Z</time>
      </trkpt>
      <trkpt lat="46.381872659549117" lon="11.807266557589173">
        <ele>1910.76</ele>
        <time>2018-03-02T09:30:12Z</time>
      </trkpt>
      <trkpt lat="46.381883136928082" lon="11.807413073256612">
        <ele>1910.76</ele>
        <time>2018-03-02T09:30:23Z</time>
      </trkpt>
      <trkpt lat="46.381873916834593" lon="11.807591021060944">
        <ele>1910.28</ele>
        <time>2018-03-02T09:30:34Z</time>
      </trkpt>
      <trkpt lat="46.38182538561523" lon="11.807719515636563">
        <ele>1910.28</ele>
        <time>2018-03-02T09:30:44Z</time>
      </trkpt>
      <trkpt lat="46.381788589060307" lon="11.807728484272957">
        <ele>1910.76</ele>
        <time>2018-03-02T09:30:54Z</time>
      </trkpt>
      <trkpt lat="46.381752630695701" lon="11.807773243635893">
        <ele>1911.24</ele>
        <time>2018-03-02T09:31:05Z</time>
      </trkpt>
      <trkpt lat="46.381744667887688" lon="11.807777350768447">
        <ele>1911.24</ele>
        <time>2018-03-02T09:31:06Z</time>
      </trkpt>
      <trkpt lat="46.381671158596873" lon="11.807828899472952">
        <ele>1911.72</ele>
        <time>2018-03-02T09:31:16Z</time>
      </trkpt>
      <trkpt lat="46.381604271009564" lon="11.807918921113014">
        <ele>1912.6800000000001</ele>
        <time>2018-03-02T09:31:28Z</time>
      </trkpt>
      <trkpt lat="46.381542580202222" lon="11.80804381147027">
        <ele>1914.1199999999999</ele>
        <time>2018-03-02T09:31:40Z</time>
      </trkpt>
      <trkpt lat="46.381510309875011" lon="11.808152357116342">
        <ele>1915.0799999999999</ele>
        <time>2018-03-02T09:31:51Z</time>
      </trkpt>
      <trkpt lat="46.381497904658318" lon="11.808229051530361">
        <ele>1915.5599999999999</ele>
        <time>2018-03-02T09:31:57Z</time>
      </trkpt>
      <trkpt lat="46.38146479614079" lon="11.808371543884277">
        <ele>1917.49</ele>
        <time>2018-03-02T09:32:10Z</time>
      </trkpt>
      <trkpt lat="46.381464377045631" lon="11.808434072881937">
        <ele>1917.97</ele>
        <time>2018-03-02T09:32:16Z</time>
      </trkpt>
      <trkpt lat="46.381483906880021" lon="11.808584276586771">
        <ele>1917.97</ele>
        <time>2018-03-02T09:32:28Z</time>
      </trkpt>
      <trkpt lat="46.381505616009235" lon="11.808724170550704">
        <ele>1918.45</ele>
        <time>2018-03-02T09:32:39Z</time>
      </trkpt>
      <trkpt lat="46.381497569382191" lon="11.808864986523986">
        <ele>1918.9300000000001</ele>
        <time>2018-03-02T09:32:50Z</time>
      </trkpt>
      <trkpt lat="46.381451636552811" lon="11.809004964306951">
        <ele>1919.8900000000001</ele>
        <time>2018-03-02T09:33:01Z</time>
      </trkpt>
      <trkpt lat="46.381419952958822" lon="11.809114012867212">
        <ele>1920.8499999999999</ele>
        <time>2018-03-02T09:33:10Z</time>
      </trkpt>
      <trkpt lat="46.381369158625603" lon="11.809214008972049">
        <ele>1922.29</ele>
        <time>2018-03-02T09:33:21Z</time>
      </trkpt>
      <trkpt lat="46.381346862763166" lon="11.809296403080225">
        <ele>1922.77</ele>
        <time>2018-03-02T09:33:30Z</time>
      </trkpt>
      <trkpt lat="46.381331188604236" lon="11.809320710599422">
        <ele>1923.25</ele>
        <time>2018-03-02T09:33:38Z</time>
      </trkpt>
      <trkpt lat="46.381336050108075" lon="11.809370750561357">
        <ele>1923.74</ele>
        <time>2018-03-02T09:33:47Z</time>
      </trkpt>
      <trkpt lat="46.381343007087708" lon="11.809348370879889">
        <ele>1923.74</ele>
        <time>2018-03-02T09:34:02Z</time>
      </trkpt>
      <trkpt lat="46.381369577720761" lon="11.809349879622459">
        <ele>1924.22</ele>
        <time>2018-03-02T09:34:17Z</time>
      </trkpt>
      <trkpt lat="46.381334792822599" lon="11.809549368917942">
        <ele>1924.22</ele>
        <time>2018-03-02T09:34:28Z</time>
      </trkpt>
      <trkpt lat="46.381335966289043" lon="11.809668056666851">
        <ele>1924.22</ele>
        <time>2018-03-02T09:34:36Z</time>
      </trkpt>
      <trkpt lat="46.381349209696054" lon="11.809818595647812">
        <ele>1924.22</ele>
        <time>2018-03-02T09:34:46Z</time>
      </trkpt>
      <trkpt lat="46.381351137533784" lon="11.809882884845138">
        <ele>1924.22</ele>
        <time>2018-03-02T09:34:51Z</time>
      </trkpt>
      <trkpt lat="46.381403440609574" lon="11.810034597292542">
        <ele>1924.22</ele>
        <time>2018-03-02T09:35:04Z</time>
      </trkpt>
      <trkpt lat="46.381421126425266" lon="11.810068544000387">
        <ele>1924.22</ele>
        <time>2018-03-02T09:35:07Z</time>
      </trkpt>
      <trkpt lat="46.381471250206232" lon="11.810164768248796">
        <ele>1924.22</ele>
        <time>2018-03-02T09:35:15Z</time>
      </trkpt>
      <trkpt lat="46.381500167772174" lon="11.810206510126591">
        <ele>1924.22</ele>
        <time>2018-03-02T09:35:19Z</time>
      </trkpt>
      <trkpt lat="46.381545597687364" lon="11.810267362743616">
        <ele>1923.74</ele>
        <time>2018-03-02T09:35:26Z</time>
      </trkpt>
      <trkpt lat="46.381575521081686" lon="11.810293011367321">
        <ele>1924.22</ele>
        <time>2018-03-02T09:35:30Z</time>
      </trkpt>
      <trkpt lat="46.381664369255304" lon="11.810343889519572">
        <ele>1923.74</ele>
        <time>2018-03-02T09:35:40Z</time>
      </trkpt>
      <trkpt lat="46.381766041740775" lon="11.810369873419404">
        <ele>1923.74</ele>
        <time>2018-03-02T09:35:50Z</time>
      </trkpt>
      <trkpt lat="46.381883891299367" lon="11.810379764065146">
        <ele>1923.25</ele>
        <time>2018-03-02T09:36:01Z</time>
      </trkpt>
      <trkpt lat="46.381987575441599" lon="11.810379093512893">
        <ele>1922.77</ele>
        <time>2018-03-02T09:36:10Z</time>
      </trkpt>
      <trkpt lat="46.382062258198857" lon="11.810320084914565">
        <ele>1922.77</ele>
        <time>2018-03-02T09:36:20Z</time>
      </trkpt>
      <trkpt lat="46.382076842710376" lon="11.810305500403047">
        <ele>1922.29</ele>
        <time>2018-03-02T09:36:22Z</time>
      </trkpt>
      <trkpt lat="46.382170720025897" lon="11.810205588117242">
        <ele>1921.3299999999999</ele>
        <time>2018-03-02T09:36:34Z</time>
      </trkpt>
      <trkpt lat="46.38218798674643" lon="11.810183962807059">
        <ele>1920.8499999999999</ele>
        <time>2018-03-02T09:36:36Z</time>
      </trkpt>
      <trkpt lat="46.382242972031236" lon="11.810097880661488">
        <ele>1920.3699999999999</ele>
        <time>2018-03-02T09:36:44Z</time>
      </trkpt>
      <trkpt lat="46.382253197953105" lon="11.810081787407398">
        <ele>1920.3699999999999</ele>
        <time>2018-03-02T09:36:46Z</time>
      </trkpt>
      <trkpt lat="46.382293934002519" lon="11.810044152662158">
        <ele>1919.8900000000001</ele>
        <time>2018-03-02T09:36:51Z</time>
      </trkpt>
      <trkpt lat="46.38230474665761" lon="11.81001590564847">
        <ele>1919.4100000000001</ele>
        <time>2018-03-02T09:36:53Z</time>
      </trkpt>
      <trkpt lat="46.382408095523715" lon="11.809894787147641">
        <ele>1919.4100000000001</ele>
        <time>2018-03-02T09:37:05Z</time>
      </trkpt>
      <trkpt lat="46.382516138255596" lon="11.809809543192387">
        <ele>1918.9300000000001</ele>
        <time>2018-03-02T09:37:16Z</time>
      </trkpt>
      <trkpt lat="46.382608255371451" lon="11.809797389432788">
        <ele>1918.45</ele>
        <time>2018-03-02T09:37:26Z</time>
      </trkpt>
      <trkpt lat="46.382664833217859" lon="11.809831922873855">
        <ele>1918.45</ele>
        <time>2018-03-02T09:37:32Z</time>
      </trkpt>
      <trkpt lat="46.382730128243566" lon="11.809964021667838">
        <ele>1919.4100000000001</ele>
        <time>2018-03-02T09:37:43Z</time>
      </trkpt>
      <trkpt lat="46.382752675563097" lon="11.810112884268165">
        <ele>1919.8900000000001</ele>
        <time>2018-03-02T09:37:54Z</time>
      </trkpt>
      <trkpt lat="46.382754687219858" lon="11.810129228979349">
        <ele>1919.8900000000001</ele>
        <time>2018-03-02T09:37:55Z</time>
      </trkpt>
      <trkpt lat="46.382784526795149" lon="11.810251018032432">
        <ele>1919.8900000000001</ele>
        <time>2018-03-02T09:38:04Z</time>
      </trkpt>
      <trkpt lat="46.382818222045898" lon="11.810363586992025">
        <ele>1920.8499999999999</ele>
        <time>2018-03-02T09:38:13Z</time>
      </trkpt>
      <trkpt lat="46.382897179573774" lon="11.810466768220067">
        <ele>1920.8499999999999</ele>
        <time>2018-03-02T09:38:24Z</time>
      </trkpt>
      <trkpt lat="46.3829839322716" lon="11.810568189248443">
        <ele>1920.3699999999999</ele>
        <time>2018-03-02T09:38:36Z</time>
      </trkpt>
      <trkpt lat="46.383068254217505" lon="11.810666844248772">
        <ele>1919.8900000000001</ele>
        <time>2018-03-02T09:38:47Z</time>
      </trkpt>
      <trkpt lat="46.383092310279608" lon="11.810690565034747">
        <ele>1920.3699999999999</ele>
        <time>2018-03-02T09:38:50Z</time>
      </trkpt>
      <trkpt lat="46.383138494566083" lon="11.810773881152272">
        <ele>1919.8900000000001</ele>
        <time>2018-03-02T09:38:57Z</time>
      </trkpt>
      <trkpt lat="46.383163807913661" lon="11.810928443446755">
        <ele>1920.3699999999999</ele>
        <time>2018-03-02T09:39:08Z</time>
      </trkpt>
      <trkpt lat="46.383151905611157" lon="11.810994995757937">
        <ele>1920.8499999999999</ele>
        <time>2018-03-02T09:39:13Z</time>
      </trkpt>
      <trkpt lat="46.383136818185449" lon="11.811049310490489">
        <ele>1921.3299999999999</ele>
        <time>2018-03-02T09:39:17Z</time>
      </trkpt>
      <trkpt lat="46.383103625848889" lon="11.811194652691483">
        <ele>1921.3299999999999</ele>
        <time>2018-03-02T09:39:28Z</time>
      </trkpt>
      <trkpt lat="46.383050568401814" lon="11.811311328783631">
        <ele>1921.8099999999999</ele>
        <time>2018-03-02T09:39:38Z</time>
      </trkpt>
      <trkpt lat="46.382969180122018" lon="11.811458012089133">
        <ele>1922.29</ele>
        <time>2018-03-02T09:39:51Z</time>
      </trkpt>
      <trkpt lat="46.382909584790468" lon="11.811573095619678">
        <ele>1922.29</ele>
        <time>2018-03-02T09:40:02Z</time>
      </trkpt>
      <trkpt lat="46.38289013877511" lon="11.81162397377193">
        <ele>1922.77</ele>
        <time>2018-03-02T09:40:07Z</time>
      </trkpt>
      <trkpt lat="46.382881756871939" lon="11.811678456142545">
        <ele>1922.77</ele>
        <time>2018-03-02T09:40:10Z</time>
      </trkpt>
      <trkpt lat="46.382848564535379" lon="11.81184726767242">
        <ele>1923.25</ele>
        <time>2018-03-02T09:40:21Z</time>
      </trkpt>
      <trkpt lat="46.382834734395146" lon="11.811868976801634">
        <ele>1923.25</ele>
        <time>2018-03-02T09:40:23Z</time>
      </trkpt>
      <trkpt lat="46.382814114913344" lon="11.812007529661059">
        <ele>1924.22</ele>
        <time>2018-03-02T09:40:34Z</time>
      </trkpt>
      <trkpt lat="46.382795171812177" lon="11.812160834670067">
        <ele>1924.22</ele>
        <time>2018-03-02T09:40:46Z</time>
      </trkpt>
      <trkpt lat="46.382784275338054" lon="11.812302153557539">
        <ele>1924.22</ele>
        <time>2018-03-02T09:40:56Z</time>
      </trkpt>
      <trkpt lat="46.382781593129039" lon="11.812332412227988">
        <ele>1924.22</ele>
        <time>2018-03-02T09:40:58Z</time>
      </trkpt>
      <trkpt lat="46.382784526795149" lon="11.812403490766883">
        <ele>1924.22</ele>
        <time>2018-03-02T09:41:03Z</time>
      </trkpt>
      <trkpt lat="46.382773965597153" lon="11.812521340325475">
        <ele>1924.7</ele>
        <time>2018-03-02T09:41:12Z</time>
      </trkpt>
      <trkpt lat="46.382772205397487" lon="11.812586300075054">
        <ele>1924.22</ele>
        <time>2018-03-02T09:41:17Z</time>
      </trkpt>
      <trkpt lat="46.382762147113681" lon="11.812742119655013">
        <ele>1925.1800000000001</ele>
        <time>2018-03-02T09:41:28Z</time>
      </trkpt>
      <trkpt lat="46.382751250639558" lon="11.8128826841712">
        <ele>1925.1800000000001</ele>
        <time>2018-03-02T09:41:38Z</time>
      </trkpt>
      <trkpt lat="46.382761308923364" lon="11.812942028045654">
        <ele>1925.1800000000001</ele>
        <time>2018-03-02T09:41:42Z</time>
      </trkpt>
      <trkpt lat="46.382793746888638" lon="11.813119389116764">
        <ele>1924.7</ele>
        <time>2018-03-02T09:41:54Z</time>
      </trkpt>
      <trkpt lat="46.382833393290639" lon="11.813250565901399">
        <ele>1925.1800000000001</ele>
        <time>2018-03-02T09:42:04Z</time>
      </trkpt>
      <trkpt lat="46.382864909246564" lon="11.81332197971642">
        <ele>1925.1800000000001</ele>
        <time>2018-03-02T09:42:11Z</time>
      </trkpt>
      <trkpt lat="46.382873291149735" lon="11.81334251537919">
        <ele>1925.1800000000001</ele>
        <time>2018-03-02T09:42:13Z</time>
      </trkpt>
      <trkpt lat="46.382931545376778" lon="11.813471596688032">
        <ele>1926.1400000000001</ele>
        <time>2018-03-02T09:42:24Z</time>
      </trkpt>
      <trkpt lat="46.382971862331033" lon="11.813526665791869">
        <ele>1926.1400000000001</ele>
        <time>2018-03-02T09:42:29Z</time>
      </trkpt>
      <trkpt lat="46.382992062717676" lon="11.813564132899046">
        <ele>1926.1400000000001</ele>
        <time>2018-03-02T09:42:33Z</time>
      </trkpt>
      <trkpt lat="46.383047131821513" lon="11.813681898638606">
        <ele>1926.6199999999999</ele>
        <time>2018-03-02T09:42:43Z</time>
      </trkpt>
      <trkpt lat="46.383101865649223" lon="11.813764544203877">
        <ele>1926.6199999999999</ele>
        <time>2018-03-02T09:42:53Z</time>
      </trkpt>
      <trkpt lat="46.383106056600809" lon="11.813772171735764">
        <ele>1927.0999999999999</ele>
        <time>2018-03-02T09:42:54Z</time>
      </trkpt>
      <trkpt lat="46.383150313049555" lon="11.813825145363808">
        <ele>1927.0999999999999</ele>
        <time>2018-03-02T09:43:00Z</time>
      </trkpt>
      <trkpt lat="46.383236143738031" lon="11.813915753737092">
        <ele>1928.0599999999999</ele>
        <time>2018-03-02T09:43:12Z</time>
      </trkpt>
      <trkpt lat="46.383299259468913" lon="11.813968308269978">
        <ele>1929.02</ele>
        <time>2018-03-02T09:43:22Z</time>
      </trkpt>
      <trkpt lat="46.383354160934687" lon="11.813986161723733">
        <ele>1929.98</ele>
        <time>2018-03-02T09:43:33Z</time>
      </trkpt>
      <trkpt lat="46.383368745446205" lon="11.813988843932748">
        <ele>1930.46</ele>
        <time>2018-03-02T09:43:35Z</time>
      </trkpt>
      <trkpt lat="46.383495563641191" lon="11.813987838104367">
        <ele>1931.4300000000001</ele>
        <time>2018-03-02T09:43:47Z</time>
      </trkpt>
      <trkpt lat="46.38359765522182" lon="11.814003847539425">
        <ele>1932.8699999999999</ele>
        <time>2018-03-02T09:43:59Z</time>
      </trkpt>
      <trkpt lat="46.383659597486258" lon="11.814039302989841">
        <ele>1933.3499999999999</ele>
        <time>2018-03-02T09:44:05Z</time>
      </trkpt>
      <trkpt lat="46.383710559457541" lon="11.814162181690335">
        <ele>1934.3099999999999</ele>
        <time>2018-03-02T09:44:17Z</time>
      </trkpt>
      <trkpt lat="46.383709888905287" lon="11.8141760956496">
        <ele>1934.3099999999999</ele>
        <time>2018-03-02T09:44:18Z</time>
      </trkpt>
      <trkpt lat="46.383700333535671" lon="11.814271062612534">
        <ele>1935.27</ele>
        <time>2018-03-02T09:44:26Z</time>
      </trkpt>
      <trkpt lat="46.383681558072567" lon="11.814364772289991">
        <ele>1936.23</ele>
        <time>2018-03-02T09:44:35Z</time>
      </trkpt>
      <trkpt lat="46.383647359907627" lon="11.814467199146748">
        <ele>1937.6700000000001</ele>
        <time>2018-03-02T09:44:47Z</time>
      </trkpt>
      <trkpt lat="46.383616514503956" lon="11.814559400081635">
        <ele>1938.6400000000001</ele>
        <time>2018-03-02T09:44:58Z</time>
      </trkpt>
      <trkpt lat="46.383581226691604" lon="11.814636178314686">
        <ele>1940.0799999999999</ele>
        <time>2018-03-02T09:45:08Z</time>
      </trkpt>
      <trkpt lat="46.383551387116313" lon="11.814731396734715">
        <ele>1941.04</ele>
        <time>2018-03-02T09:45:17Z</time>
      </trkpt>
      <trkpt lat="46.383512830361724" lon="11.814834326505661">
        <ele>1942</ele>
        <time>2018-03-02T09:45:27Z</time>
      </trkpt>
      <trkpt lat="46.38350042514503" lon="11.81493298150599">
        <ele>1942.96</ele>
        <time>2018-03-02T09:45:36Z</time>
      </trkpt>
      <trkpt lat="46.383473854511976" lon="11.815043371170759">
        <ele>1944.4000000000001</ele>
        <time>2018-03-02T09:45:49Z</time>
      </trkpt>
      <trkpt lat="46.383479721844196" lon="11.815116293728352">
        <ele>1945.3599999999999</ele>
        <time>2018-03-02T09:45:57Z</time>
      </trkpt>
      <trkpt lat="46.383481733500957" lon="11.815242441371083">
        <ele>1946.8099999999999</ele>
        <time>2018-03-02T09:46:08Z</time>
      </trkpt>
      <trkpt lat="46.383481146767735" lon="11.81535224430263">
        <ele>1948.25</ele>
        <time>2018-03-02T09:46:19Z</time>
      </trkpt>
      <trkpt lat="46.383479721844196" lon="11.815382838249207">
        <ele>1948.73</ele>
        <time>2018-03-02T09:46:22Z</time>
      </trkpt>
      <trkpt lat="46.383496569469571" lon="11.815507309511304">
        <ele>1950.1700000000001</ele>
        <time>2018-03-02T09:46:34Z</time>
      </trkpt>
      <trkpt lat="46.383510818704963" lon="11.815602108836174">
        <ele>1951.1300000000001</ele>
        <time>2018-03-02T09:46:44Z</time>
      </trkpt>
      <trkpt lat="46.383543508127332" lon="11.815726412460208">
        <ele>1952.5699999999999</ele>
        <time>2018-03-02T09:46:56Z</time>
      </trkpt>
      <trkpt lat="46.383577873930335" lon="11.815815260633826">
        <ele>1953.54</ele>
        <time>2018-03-02T09:47:06Z</time>
      </trkpt>
      <trkpt lat="46.383597068488598" lon="11.815859349444509">
        <ele>1954.02</ele>
        <time>2018-03-02T09:47:10Z</time>
      </trkpt>
      <trkpt lat="46.383643001317978" lon="11.815960016101599">
        <ele>1955.46</ele>
        <time>2018-03-02T09:47:23Z</time>
      </trkpt>
      <trkpt lat="46.383680552244186" lon="11.816072249785066">
        <ele>1955.9400000000001</ele>
        <time>2018-03-02T09:47:33Z</time>
      </trkpt>
      <trkpt lat="46.383719528093934" lon="11.816182639449835">
        <ele>1956.9000000000001</ele>
        <time>2018-03-02T09:47:44Z</time>
      </trkpt>
      <trkpt lat="46.383756492286921" lon="11.816293699666858">
        <ele>1957.8599999999999</ele>
        <time>2018-03-02T09:47:54Z</time>
      </trkpt>
      <trkpt lat="46.383783062919974" lon="11.816408196464181">
        <ele>1958.8199999999999</ele>
        <time>2018-03-02T09:48:05Z</time>
      </trkpt>
      <trkpt lat="46.383820697665215" lon="11.81651565246284">
        <ele>1960.27</ele>
        <time>2018-03-02T09:48:16Z</time>
      </trkpt>
      <trkpt lat="46.383876521140337" lon="11.816639117896557">
        <ele>1961.23</ele>
        <time>2018-03-02T09:48:28Z</time>
      </trkpt>
      <trkpt lat="46.38391524553299" lon="11.816668957471848">
        <ele>1961.23</ele>
        <time>2018-03-02T09:48:38Z</time>
      </trkpt>
      <trkpt lat="46.383930165320635" lon="11.816677926108241">
        <ele>1961.71</ele>
        <time>2018-03-02T09:48:40Z</time>
      </trkpt>
      <trkpt lat="46.38399101793766" lon="11.816714722663164">
        <ele>1961.71</ele>
        <time>2018-03-02T09:48:48Z</time>
      </trkpt>
      <trkpt lat="46.384084140881896" lon="11.816772641614079">
        <ele>1962.6700000000001</ele>
        <time>2018-03-02T09:49:00Z</time>
      </trkpt>
      <trkpt lat="46.384117500856519" lon="11.816789237782359">
        <ele>1962.1900000000001</ele>
        <time>2018-03-02T09:49:04Z</time>
      </trkpt>
      <trkpt lat="46.384176425635815" lon="11.816908847540617">
        <ele>1963.1500000000001</ele>
        <time>2018-03-02T09:49:14Z</time>
      </trkpt>
      <trkpt lat="46.384185645729303" lon="11.816948661580682">
        <ele>1963.6300000000001</ele>
        <time>2018-03-02T09:49:17Z</time>
      </trkpt>
      <trkpt lat="46.384188663214445" lon="11.816972801461816">
        <ele>1963.1500000000001</ele>
        <time>2018-03-02T09:49:19Z</time>
      </trkpt>
      <trkpt lat="46.384226633235812" lon="11.817116383463144">
        <ele>1964.5899999999999</ele>
        <time>2018-03-02T09:49:32Z</time>
      </trkpt>
      <trkpt lat="46.384280696511269" lon="11.817240351811051">
        <ele>1965.0699999999999</ele>
        <time>2018-03-02T09:49:42Z</time>
      </trkpt>
      <trkpt lat="46.38434087857604" lon="11.817328026518226">
        <ele>1965.0699999999999</ele>
        <time>2018-03-02T09:49:51Z</time>
      </trkpt>
      <trkpt lat="46.384363090619445" lon="11.817363314330578">
        <ele>1965.55</ele>
        <time>2018-03-02T09:49:55Z</time>
      </trkpt>
      <trkpt lat="46.384406760334969" lon="11.817408408969641">
        <ele>1965.55</ele>
        <time>2018-03-02T09:50:01Z</time>
      </trkpt>
      <trkpt lat="46.384451938793063" lon="11.817457443103194">
        <ele>1965.0699999999999</ele>
        <time>2018-03-02T09:50:07Z</time>
      </trkpt>
      <trkpt lat="46.384526956826448" lon="11.817533634603024">
        <ele>1965.55</ele>
        <time>2018-03-02T09:50:16Z</time>
      </trkpt>
      <trkpt lat="46.384631143882871" lon="11.817600270733237">
        <ele>1965.55</ele>
        <time>2018-03-02T09:50:27Z</time>
      </trkpt>
      <trkpt lat="46.384657463058829" lon="11.817624410614371">
        <ele>1965.55</ele>
        <time>2018-03-02T09:50:30Z</time>
      </trkpt>
      <trkpt lat="46.384702892974019" lon="11.817647209390998">
        <ele>1965.55</ele>
        <time>2018-03-02T09:50:36Z</time>
      </trkpt>
      <trkpt lat="46.38472099788487" lon="11.817658105865121">
        <ele>1966.03</ele>
        <time>2018-03-02T09:50:38Z</time>
      </trkpt>
      <trkpt lat="46.384753100574017" lon="11.817684257403016">
        <ele>1965.55</ele>
        <time>2018-03-02T09:50:41Z</time>
      </trkpt>
      <trkpt lat="46.384789058938622" lon="11.817709738388658">
        <ele>1965.55</ele>
        <time>2018-03-02T09:50:45Z</time>
      </trkpt>
      <trkpt lat="46.384816383942962" lon="11.817722311243415">
        <ele>1965.55</ele>
        <time>2018-03-02T09:50:48Z</time>
      </trkpt>
      <trkpt lat="46.384921409189701" lon="11.817775284871459">
        <ele>1966.03</ele>
        <time>2018-03-02T09:50:59Z</time>
      </trkpt>
      <trkpt lat="46.384969102218747" lon="11.817817110568285">
        <ele>1966.51</ele>
        <time>2018-03-02T09:51:05Z</time>
      </trkpt>
      <trkpt lat="46.384988212957978" lon="11.817821552976966">
        <ele>1966.99</ele>
        <time>2018-03-02T09:51:07Z</time>
      </trkpt>
      <trkpt lat="46.385092316195369" lon="11.817918615415692">
        <ele>1967.96</ele>
        <time>2018-03-02T09:51:21Z</time>
      </trkpt>
      <trkpt lat="46.385175716131926" lon="11.818030262365937">
        <ele>1968.4400000000001</ele>
        <time>2018-03-02T09:51:33Z</time>
      </trkpt>
      <trkpt lat="46.38520278967917" lon="11.818111231550574">
        <ele>1968.9200000000001</ele>
        <time>2018-03-02T09:51:43Z</time>
      </trkpt>
      <trkpt lat="46.385244028642774" lon="11.818170407786965">
        <ele>1969.4000000000001</ele>
        <time>2018-03-02T09:51:57Z</time>
      </trkpt>
      <trkpt lat="46.385281411930919" lon="11.818221705034375">
        <ele>1969.4000000000001</ele>
        <time>2018-03-02T09:52:03Z</time>
      </trkpt>
      <trkpt lat="46.38534058816731" lon="11.818285239860415">
        <ele>1970.3599999999999</ele>
        <time>2018-03-02T09:52:12Z</time>
      </trkpt>
      <trkpt lat="46.38535819016397" lon="11.81830108165741">
        <ele>1969.8800000000001</ele>
        <time>2018-03-02T09:52:25Z</time>
      </trkpt>
      <trkpt lat="46.385366404429078" lon="11.818288089707494">
        <ele>1970.3599999999999</ele>
        <time>2018-03-02T09:52:32Z</time>
      </trkpt>
      <trkpt lat="46.385407894849777" lon="11.818306110799313">
        <ele>1970.3599999999999</ele>
        <time>2018-03-02T09:52:37Z</time>
      </trkpt>
      <trkpt lat="46.385467909276485" lon="11.818317761644721">
        <ele>1971.3199999999999</ele>
        <time>2018-03-02T09:52:45Z</time>
      </trkpt>
      <trkpt lat="46.385485678911209" lon="11.818302338942885">
        <ele>1971.8</ele>
        <time>2018-03-02T09:52:57Z</time>
      </trkpt>
      <trkpt lat="46.385511243715882" lon="11.818319773301482">
        <ele>1971.3199999999999</ele>
        <time>2018-03-02T09:53:14Z</time>
      </trkpt>
      <trkpt lat="46.385493474081159" lon="11.818328909575939">
        <ele>1971.3199999999999</ele>
        <time>2018-03-02T09:53:37Z</time>
      </trkpt>
      <trkpt lat="46.385502526536584" lon="11.818370232358575">
        <ele>1971.3199999999999</ele>
        <time>2018-03-02T09:53:44Z</time>
      </trkpt>
      <trkpt lat="46.385517027229071" lon="11.818355228751898">
        <ele>1971.8</ele>
        <time>2018-03-02T09:53:55Z</time>
      </trkpt>
      <trkpt lat="46.385560026392341" lon="11.818331759423018">
        <ele>1971.8</ele>
        <time>2018-03-02T09:54:03Z</time>
      </trkpt>
      <trkpt lat="46.38556832447648" lon="11.81833335198462">
        <ele>1971.8</ele>
        <time>2018-03-02T09:54:04Z</time>
      </trkpt>
      <trkpt lat="46.385676199570298" lon="11.818386325612664">
        <ele>1971.8</ele>
        <time>2018-03-02T09:54:16Z</time>
      </trkpt>
      <trkpt lat="46.385753229260445" lon="11.818456733599305">
        <ele>1972.76</ele>
        <time>2018-03-02T09:54:27Z</time>
      </trkpt>
      <trkpt lat="46.385762533172965" lon="11.81846478022635">
        <ele>1974.6900000000001</ele>
        <time>2018-03-02T09:54:28Z</time>
      </trkpt>
      <trkpt lat="46.385869067162275" lon="11.818507947027683">
        <ele>1973.72</ele>
        <time>2018-03-02T09:54:39Z</time>
      </trkpt>
      <trkpt lat="46.385958669707179" lon="11.818571565672755">
        <ele>1973.72</ele>
        <time>2018-03-02T09:54:49Z</time>
      </trkpt>
      <trkpt lat="46.38606620952487" lon="11.81859377771616">
        <ele>1973.72</ele>
        <time>2018-03-02T09:55:00Z</time>
      </trkpt>
      <trkpt lat="46.386159081012011" lon="11.818623952567577">
        <ele>1973.24</ele>
        <time>2018-03-02T09:55:10Z</time>
      </trkpt>
      <trkpt lat="46.386260082945228" lon="11.818683128803968">
        <ele>1973.72</ele>
        <time>2018-03-02T09:55:21Z</time>
      </trkpt>
      <trkpt lat="46.386336106806993" lon="11.818840205669403">
        <ele>1973.72</ele>
        <time>2018-03-02T09:55:33Z</time>
      </trkpt>
      <trkpt lat="46.386388745158911" lon="11.818991079926491">
        <ele>1974.2</ele>
        <time>2018-03-02T09:55:44Z</time>
      </trkpt>
      <trkpt lat="46.38639360666275" lon="11.819021254777908">
        <ele>1973.72</ele>
        <time>2018-03-02T09:55:46Z</time>
      </trkpt>
      <trkpt lat="46.386446747928858" lon="11.819163495674729">
        <ele>1973.72</ele>
        <time>2018-03-02T09:55:57Z</time>
      </trkpt>
      <trkpt lat="46.386502319946885" lon="11.819298779591918">
        <ele>1973.24</ele>
        <time>2018-03-02T09:56:06Z</time>
      </trkpt>
      <trkpt lat="46.386543307453394" lon="11.819463819265366">
        <ele>1973.72</ele>
        <time>2018-03-02T09:56:17Z</time>
      </trkpt>
      <trkpt lat="46.386548336595297" lon="11.819505309686065">
        <ele>1972.76</ele>
        <time>2018-03-02T09:56:20Z</time>
      </trkpt>
      <trkpt lat="46.38657390139997" lon="11.819596840068698">
        <ele>1973.24</ele>
        <time>2018-03-02T09:56:27Z</time>
      </trkpt>
      <trkpt lat="46.38658219948411" lon="11.819621315225959">
        <ele>1973.72</ele>
        <time>2018-03-02T09:56:29Z</time>
      </trkpt>
      <trkpt lat="46.386617571115494" lon="11.819719048216939">
        <ele>1972.76</ele>
        <time>2018-03-02T09:56:37Z</time>
      </trkpt>
      <trkpt lat="46.386660570278764" lon="11.819867072626948">
        <ele>1971.8</ele>
        <time>2018-03-02T09:56:47Z</time>
      </trkpt>
      <trkpt lat="46.386698707938194" lon="11.820000596344471">
        <ele>1971.8</ele>
        <time>2018-03-02T09:56:57Z</time>
      </trkpt>
      <trkpt lat="46.386765846982598" lon="11.820125067606568">
        <ele>1970.8399999999999</ele>
        <time>2018-03-02T09:57:08Z</time>
      </trkpt>
      <trkpt lat="46.386873051524162" lon="11.820127414539456">
        <ele>1969.8800000000001</ele>
        <time>2018-03-02T09:57:19Z</time>
      </trkpt>
      <trkpt lat="46.386962402611971" lon="11.820077877491713">
        <ele>1968.9200000000001</ele>
        <time>2018-03-02T09:57:29Z</time>
      </trkpt>
      <trkpt lat="46.387059297412634" lon="11.82002691552043">
        <ele>1967.96</ele>
        <time>2018-03-02T09:57:39Z</time>
      </trkpt>
      <trkpt lat="46.387091735377908" lon="11.820019539445639">
        <ele>1967.96</ele>
        <time>2018-03-02T09:57:42Z</time>
      </trkpt>
      <trkpt lat="46.387172704562545" lon="11.820040242746472">
        <ele>1967.96</ele>
        <time>2018-03-02T09:57:49Z</time>
      </trkpt>
      <trkpt lat="46.387260714545846" lon="11.820100424811244">
        <ele>1968.4400000000001</ele>
        <time>2018-03-02T09:57:59Z</time>
      </trkpt>
      <trkpt lat="46.387268342077732" lon="11.820106208324432">
        <ele>1968.9200000000001</ele>
        <time>2018-03-02T09:58:00Z</time>
      </trkpt>
      <trkpt lat="46.387315951287746" lon="11.820178795605898">
        <ele>1969.4000000000001</ele>
        <time>2018-03-02T09:58:08Z</time>
      </trkpt>
      <trkpt lat="46.387348053976893" lon="11.82023118250072">
        <ele>1969.8800000000001</ele>
        <time>2018-03-02T09:58:13Z</time>
      </trkpt>
      <trkpt lat="46.387384096160531" lon="11.820291029289365">
        <ele>1970.8399999999999</ele>
        <time>2018-03-02T09:58:19Z</time>
      </trkpt>
      <trkpt lat="46.387411253526807" lon="11.820356659591198">
        <ele>1971.3199999999999</ele>
        <time>2018-03-02T09:58:25Z</time>
      </trkpt>
      <trkpt lat="46.387458862736821" lon="11.82048917748034">
        <ele>1972.28</ele>
        <time>2018-03-02T09:58:36Z</time>
      </trkpt>
      <trkpt lat="46.387479063123465" lon="11.820631166920066">
        <ele>1972.76</ele>
        <time>2018-03-02T09:58:47Z</time>
      </trkpt>
      <trkpt lat="46.38749054633081" lon="11.820714147761464">
        <ele>1973.24</ele>
        <time>2018-03-02T09:58:54Z</time>
      </trkpt>
      <trkpt lat="46.38749641366303" lon="11.820745076984167">
        <ele>1973.72</ele>
        <time>2018-03-02T09:58:56Z</time>
      </trkpt>
      <trkpt lat="46.387502951547503" lon="11.820852616801858">
        <ele>1974.2</ele>
        <time>2018-03-02T09:59:05Z</time>
      </trkpt>
      <trkpt lat="46.387506555765867" lon="11.820991672575474">
        <ele>1975.1700000000001</ele>
        <time>2018-03-02T09:59:16Z</time>
      </trkpt>
      <trkpt lat="46.387522481381893" lon="11.821115221828222">
        <ele>1974.6900000000001</ele>
        <time>2018-03-02T09:59:25Z</time>
      </trkpt>
      <trkpt lat="46.387549806386232" lon="11.821229048073292">
        <ele>1974.6900000000001</ele>
        <time>2018-03-02T09:59:35Z</time>
      </trkpt>
      <trkpt lat="46.387580819427967" lon="11.82132275775075">
        <ele>1974.2</ele>
        <time>2018-03-02T09:59:43Z</time>
      </trkpt>
      <trkpt lat="46.387582663446665" lon="11.821336839348078">
        <ele>1974.2</ele>
        <time>2018-03-02T09:59:44Z</time>
      </trkpt>
      <trkpt lat="46.387633876875043" lon="11.821469105780125">
        <ele>1973.72</ele>
        <time>2018-03-02T09:59:54Z</time>
      </trkpt>
      <trkpt lat="46.387650473043323" lon="11.821507075801492">
        <ele>1973.72</ele>
        <time>2018-03-02T09:59:57Z</time>
      </trkpt>
      <trkpt lat="46.387724820524454" lon="11.821626015007496">
        <ele>1973.24</ele>
        <time>2018-03-02T10:00:08Z</time>
      </trkpt>
      <trkpt lat="46.387800592929125" lon="11.821727771311998">
        <ele>1972.76</ele>
        <time>2018-03-02T10:00:18Z</time>
      </trkpt>
      <trkpt lat="46.387887764722109" lon="11.821832209825516">
        <ele>1972.76</ele>
        <time>2018-03-02T10:00:29Z</time>
      </trkpt>
      <trkpt lat="46.387977451086044" lon="11.821910664439201">
        <ele>1972.76</ele>
        <time>2018-03-02T10:00:39Z</time>
      </trkpt>
      <trkpt lat="46.388071328401566" lon="11.821982497349381">
        <ele>1972.28</ele>
        <time>2018-03-02T10:00:49Z</time>
      </trkpt>
      <trkpt lat="46.388160260394216" lon="11.822047373279929">
        <ele>1972.28</ele>
        <time>2018-03-02T10:00:58Z</time>
      </trkpt>
      <trkpt lat="46.38823720626533" lon="11.822105459868908">
        <ele>1972.28</ele>
        <time>2018-03-02T10:01:06Z</time>
      </trkpt>
      <trkpt lat="46.388268386945128" lon="11.822147704660892">
        <ele>1972.28</ele>
        <time>2018-03-02T10:01:10Z</time>
      </trkpt>
      <trkpt lat="46.388357905671" lon="11.82223554700613">
        <ele>1972.28</ele>
        <time>2018-03-02T10:01:20Z</time>
      </trkpt>
      <trkpt lat="46.388433761894703" lon="11.822328334674239">
        <ele>1972.76</ele>
        <time>2018-03-02T10:01:30Z</time>
      </trkpt>
      <trkpt lat="46.388509953394532" lon="11.82242657057941">
        <ele>1972.76</ele>
        <time>2018-03-02T10:01:40Z</time>
      </trkpt>
      <trkpt lat="46.388532081618905" lon="11.822459846735001">
        <ele>1973.24</ele>
        <time>2018-03-02T10:01:43Z</time>
      </trkpt>
      <trkpt lat="46.388585977256298" lon="11.822514412924647">
        <ele>1973.72</ele>
        <time>2018-03-02T10:01:50Z</time>
      </trkpt>
      <trkpt lat="46.388684632256627" lon="11.822637626901269">
        <ele>1974.2</ele>
        <time>2018-03-02T10:02:03Z</time>
      </trkpt>
      <trkpt lat="46.388767110183835" lon="11.822746424004436">
        <ele>1974.6900000000001</ele>
        <time>2018-03-02T10:02:14Z</time>
      </trkpt>
      <trkpt lat="46.388826621696353" lon="11.822841474786401">
        <ele>1974.6900000000001</ele>
        <time>2018-03-02T10:02:23Z</time>
      </trkpt>
      <trkpt lat="46.388894012197852" lon="11.8230055924505">
        <ele>1974.2</ele>
        <time>2018-03-02T10:02:35Z</time>
      </trkpt>
      <trkpt lat="46.388933239504695" lon="11.823157640174031">
        <ele>1974.2</ele>
        <time>2018-03-02T10:02:45Z</time>
      </trkpt>
      <trkpt lat="46.388962995260954" lon="11.823284374549985">
        <ele>1974.2</ele>
        <time>2018-03-02T10:02:54Z</time>
      </trkpt>
      <trkpt lat="46.388994008302689" lon="11.823466345667839">
        <ele>1974.6900000000001</ele>
        <time>2018-03-02T10:03:06Z</time>
      </trkpt>
      <trkpt lat="46.389020243659616" lon="11.823616800829768">
        <ele>1975.1700000000001</ele>
        <time>2018-03-02T10:03:17Z</time>
      </trkpt>
      <trkpt lat="46.38902141712606" lon="11.823630044236779">
        <ele>1975.1700000000001</ele>
        <time>2018-03-02T10:03:18Z</time>
      </trkpt>
      <trkpt lat="46.389035163447261" lon="11.823685113340616">
        <ele>1975.6500000000001</ele>
        <time>2018-03-02T10:03:22Z</time>
      </trkpt>
      <trkpt lat="46.38907958753407" lon="11.82383137755096">
        <ele>1975.1700000000001</ele>
        <time>2018-03-02T10:03:33Z</time>
      </trkpt>
      <trkpt lat="46.389134991914034" lon="11.823970517143607">
        <ele>1974.6900000000001</ele>
        <time>2018-03-02T10:03:44Z</time>
      </trkpt>
      <trkpt lat="46.389192827045918" lon="11.824107812717557">
        <ele>1974.2</ele>
        <time>2018-03-02T10:03:55Z</time>
      </trkpt>
      <trkpt lat="46.389239011332393" lon="11.824232367798686">
        <ele>1974.2</ele>
        <time>2018-03-02T10:04:05Z</time>
      </trkpt>
      <trkpt lat="46.389303551986814" lon="11.824378632009029">
        <ele>1974.2</ele>
        <time>2018-03-02T10:04:16Z</time>
      </trkpt>
      <trkpt lat="46.389362895861268" lon="11.824488351121545">
        <ele>1974.2</ele>
        <time>2018-03-02T10:04:26Z</time>
      </trkpt>
      <trkpt lat="46.389435483142734" lon="11.824587341398001">
        <ele>1974.2</ele>
        <time>2018-03-02T10:04:36Z</time>
      </trkpt>
      <trkpt lat="46.38951787725091" lon="11.824684487655759">
        <ele>1974.2</ele>
        <time>2018-03-02T10:04:47Z</time>
      </trkpt>
      <trkpt lat="46.389599768444896" lon="11.82476663030684">
        <ele>1973.72</ele>
        <time>2018-03-02T10:04:57Z</time>
      </trkpt>
      <trkpt lat="46.389663387089968" lon="11.824835278093815">
        <ele>1974.2</ele>
        <time>2018-03-02T10:05:05Z</time>
      </trkpt>
      <trkpt lat="46.389757851138711" lon="11.824945164844394">
        <ele>1974.6900000000001</ele>
        <time>2018-03-02T10:05:17Z</time>
      </trkpt>
      <trkpt lat="46.389806382358074" lon="11.824994701892138">
        <ele>1974.2</ele>
        <time>2018-03-02T10:05:26Z</time>
      </trkpt>
      <trkpt lat="46.389880646020174" lon="11.82508765719831">
        <ele>1973.24</ele>
        <time>2018-03-02T10:05:35Z</time>
      </trkpt>
      <trkpt lat="46.38997670263052" lon="11.825171476230025">
        <ele>1973.24</ele>
        <time>2018-03-02T10:05:45Z</time>
      </trkpt>
      <trkpt lat="46.39006664045155" lon="11.82522838935256">
        <ele>1972.76</ele>
        <time>2018-03-02T10:05:54Z</time>
      </trkpt>
      <trkpt lat="46.390159344300628" lon="11.825283458456397">
        <ele>1972.28</ele>
        <time>2018-03-02T10:06:04Z</time>
      </trkpt>
      <trkpt lat="46.390178287401795" lon="11.825293432921171">
        <ele>1972.28</ele>
        <time>2018-03-02T10:06:06Z</time>
      </trkpt>
      <trkpt lat="46.390278032049537" lon="11.825322099030018">
        <ele>1972.76</ele>
        <time>2018-03-02T10:06:16Z</time>
      </trkpt>
      <trkpt lat="46.390377357602119" lon="11.825379179790616">
        <ele>1973.24</ele>
        <time>2018-03-02T10:06:27Z</time>
      </trkpt>
      <trkpt lat="46.390458242967725" lon="11.82542041875422">
        <ele>1974.2</ele>
        <time>2018-03-02T10:06:36Z</time>
      </trkpt>
      <trkpt lat="46.390546169131994" lon="11.82547414675355">
        <ele>1975.1700000000001</ele>
        <time>2018-03-02T10:06:46Z</time>
      </trkpt>
      <trkpt lat="46.390625881031156" lon="11.825526868924499">
        <ele>1975.6500000000001</ele>
        <time>2018-03-02T10:06:56Z</time>
      </trkpt>
      <trkpt lat="46.39070869423449" lon="11.825591409578919">
        <ele>1976.1300000000001</ele>
        <time>2018-03-02T10:07:05Z</time>
      </trkpt>
      <trkpt lat="46.390782203525305" lon="11.825623260810971">
        <ele>1976.1300000000001</ele>
        <time>2018-03-02T10:07:14Z</time>
      </trkpt>
      <trkpt lat="46.390897203236818" lon="11.825651843100786">
        <ele>1975.6500000000001</ele>
        <time>2018-03-02T10:07:25Z</time>
      </trkpt>
      <trkpt lat="46.391019411385059" lon="11.825649160891771">
        <ele>1973.72</ele>
        <time>2018-03-02T10:07:36Z</time>
      </trkpt>
      <trkpt lat="46.391139943152666" lon="11.825642371550202">
        <ele>1973.24</ele>
        <time>2018-03-02T10:07:47Z</time>
      </trkpt>
      <trkpt lat="46.39124664478004" lon="11.825674306601286">
        <ele>1973.24</ele>
        <time>2018-03-02T10:07:57Z</time>
      </trkpt>
      <trkpt lat="46.391279166564345" lon="11.825707498937845">
        <ele>1973.72</ele>
        <time>2018-03-02T10:08:01Z</time>
      </trkpt>
      <trkpt lat="46.391359213739634" lon="11.825807243585587">
        <ele>1973.72</ele>
        <time>2018-03-02T10:08:12Z</time>
      </trkpt>
      <trkpt lat="46.391448564827442" lon="11.8259188067168">
        <ele>1974.2</ele>
        <time>2018-03-02T10:08:25Z</time>
      </trkpt>
      <trkpt lat="46.391538335010409" lon="11.826013186946511">
        <ele>1974.6900000000001</ele>
        <time>2018-03-02T10:08:36Z</time>
      </trkpt>
      <trkpt lat="46.391569348052144" lon="11.826040260493755">
        <ele>1974.6900000000001</ele>
        <time>2018-03-02T10:08:40Z</time>
      </trkpt>
      <trkpt lat="46.391638079658151" lon="11.826113434508443">
        <ele>1974.6900000000001</ele>
        <time>2018-03-02T10:08:48Z</time>
      </trkpt>
      <trkpt lat="46.391739416867495" lon="11.826197085902095">
        <ele>1974.6900000000001</ele>
        <time>2018-03-02T10:09:00Z</time>
      </trkpt>
      <trkpt lat="46.391792558133602" lon="11.826250394806266">
        <ele>1974.6900000000001</ele>
        <time>2018-03-02T10:09:06Z</time>
      </trkpt>
      <trkpt lat="46.391871264204383" lon="11.826319461688399">
        <ele>1974.6900000000001</ele>
        <time>2018-03-02T10:09:17Z</time>
      </trkpt>
      <trkpt lat="46.391888782382011" lon="11.826332872733474">
        <ele>1974.6900000000001</ele>
        <time>2018-03-02T10:09:38Z</time>
      </trkpt>
      <trkpt lat="46.391919376328588" lon="11.826382745057344">
        <ele>1975.1700000000001</ele>
        <time>2018-03-02T10:09:46Z</time>
      </trkpt>
      <trkpt lat="46.391956172883511" lon="11.826456170529127">
        <ele>1975.1700000000001</ele>
        <time>2018-03-02T10:09:57Z</time>
      </trkpt>
      <trkpt lat="46.391953909769654" lon="11.826520711183548">
        <ele>1975.6500000000001</ele>
        <time>2018-03-02T10:10:02Z</time>
      </trkpt>
      <trkpt lat="46.391928344964981" lon="11.82668449357152">
        <ele>1977.0899999999999</ele>
        <time>2018-03-02T10:10:14Z</time>
      </trkpt>
      <trkpt lat="46.391909904778004" lon="11.826776778325438">
        <ele>1978.53</ele>
        <time>2018-03-02T10:10:23Z</time>
      </trkpt>
      <trkpt lat="46.391901355236769" lon="11.826849030330777">
        <ele>1979.01</ele>
        <time>2018-03-02T10:10:28Z</time>
      </trkpt>
      <trkpt lat="46.391912922263145" lon="11.826987834647298">
        <ele>1979.97</ele>
        <time>2018-03-02T10:10:39Z</time>
      </trkpt>
      <trkpt lat="46.391952149569988" lon="11.827034773305058">
        <ele>1980.9300000000001</ele>
        <time>2018-03-02T10:10:47Z</time>
      </trkpt>
      <trkpt lat="46.39198592863977" lon="11.827065702527761">
        <ele>1980.9300000000001</ele>
        <time>2018-03-02T10:10:59Z</time>
      </trkpt>
      <trkpt lat="46.392010068520904" lon="11.827110294252634">
        <ele>1980.9300000000001</ele>
        <time>2018-03-02T10:11:15Z</time>
      </trkpt>
      <trkpt lat="46.392103023827076" lon="11.827195789664984">
        <ele>1981.4100000000001</ele>
        <time>2018-03-02T10:11:26Z</time>
      </trkpt>
      <trkpt lat="46.392197906970978" lon="11.827290756627917">
        <ele>1981.4100000000001</ele>
        <time>2018-03-02T10:11:37Z</time>
      </trkpt>
      <trkpt lat="46.39228792861104" lon="11.827380359172821">
        <ele>1981.9000000000001</ele>
        <time>2018-03-02T10:11:49Z</time>
      </trkpt>
      <trkpt lat="46.39233335852623" lon="11.827419586479664">
        <ele>1981.9000000000001</ele>
        <time>2018-03-02T10:11:54Z</time>
      </trkpt>
      <trkpt lat="46.392355570569634" lon="11.827445486560464">
        <ele>1981.9000000000001</ele>
        <time>2018-03-02T10:11:57Z</time>
      </trkpt>
      <trkpt lat="46.392460092902184" lon="11.827556379139423">
        <ele>1981.9000000000001</ele>
        <time>2018-03-02T10:12:09Z</time>
      </trkpt>
      <trkpt lat="46.392531422898173" lon="11.827631816267967">
        <ele>1981.9000000000001</ele>
        <time>2018-03-02T10:12:19Z</time>
      </trkpt>
      <trkpt lat="46.392589341849089" lon="11.827694764360785">
        <ele>1981.9000000000001</ele>
        <time>2018-03-02T10:12:29Z</time>
      </trkpt>
      <trkpt lat="46.392593197524548" lon="11.827727789059281">
        <ele>1981.9000000000001</ele>
        <time>2018-03-02T10:12:41Z</time>
      </trkpt>
      <trkpt lat="46.392562016844749" lon="11.827764501795173">
        <ele>1981.4100000000001</ele>
        <time>2018-03-02T10:12:50Z</time>
      </trkpt>
      <trkpt lat="46.39259479008615" lon="11.82776533998549">
        <ele>1981.4100000000001</ele>
        <time>2018-03-02T10:13:03Z</time>
      </trkpt>
      <trkpt lat="46.392627898603678" lon="11.827769698575139">
        <ele>1981.9000000000001</ele>
        <time>2018-03-02T10:13:11Z</time>
      </trkpt>
      <trkpt lat="46.392632592469454" lon="11.827775817364454">
        <ele>1981.9000000000001</ele>
        <time>2018-03-02T10:13:25Z</time>
      </trkpt>
      <trkpt lat="46.39263778924942" lon="11.827806159853935">
        <ele>1981.9000000000001</ele>
        <time>2018-03-02T10:13:41Z</time>
      </trkpt>
      <trkpt lat="46.392637537792325" lon="11.827834323048592">
        <ele>1981.4100000000001</ele>
        <time>2018-03-02T10:13:43Z</time>
      </trkpt>
      <trkpt lat="46.392642315477133" lon="11.82786064222455">
        <ele>1981.4100000000001</ele>
        <time>2018-03-02T10:13:53Z</time>
      </trkpt>
      <trkpt lat="46.392647009342909" lon="11.827869610860944">
        <ele>1981.4100000000001</ele>
        <time>2018-03-02T10:14:03Z</time>
      </trkpt>
      <trkpt lat="46.392642818391323" lon="11.827857960015535">
        <ele>1981.9000000000001</ele>
        <time>2018-03-02T10:14:17Z</time>
      </trkpt>
      <trkpt lat="46.392648266628385" lon="11.827856115996838">
        <ele>1981.4100000000001</ele>
        <time>2018-03-02T10:14:33Z</time>
      </trkpt>
      <trkpt lat="46.39264265075326" lon="11.827870365232229">
        <ele>1981.9000000000001</ele>
        <time>2018-03-02T10:14:48Z</time>
      </trkpt>
      <trkpt lat="46.392614990472794" lon="11.827871454879642">
        <ele>1981.9000000000001</ele>
        <time>2018-03-02T10:15:14Z</time>
      </trkpt>
      <trkpt lat="46.392670394852757" lon="11.827923506498337">
        <ele>1981.9000000000001</ele>
        <time>2018-03-02T10:15:42Z</time>
      </trkpt>
      <trkpt lat="46.392674501985312" lon="11.827918142080307">
        <ele>1982.3800000000001</ele>
        <time>2018-03-02T10:16:12Z</time>
      </trkpt>
      <trkpt lat="46.392695875838399" lon="11.827899953350425">
        <ele>1982.8599999999999</ele>
        <time>2018-03-02T10:16:40Z</time>
      </trkpt>
      <trkpt lat="46.392694870010018" lon="11.827902300283313">
        <ele>1982.8599999999999</ele>
        <time>2018-03-02T10:17:01Z</time>
      </trkpt>
      <trkpt lat="46.392689505591989" lon="11.827920656651258">
        <ele>1983.3399999999999</ele>
        <time>2018-03-02T10:17:18Z</time>
      </trkpt>
      <trkpt lat="46.392693109810352" lon="11.827902803197503">
        <ele>1983.3399999999999</ele>
        <time>2018-03-02T10:17:39Z</time>
      </trkpt>
      <trkpt lat="46.392645332962275" lon="11.82788553647697">
        <ele>1983.8199999999999</ele>
        <time>2018-03-02T10:18:01Z</time>
      </trkpt>
      <trkpt lat="46.39264902099967" lon="11.827893750742078">
        <ele>1983.8199999999999</ele>
        <time>2018-03-02T10:18:20Z</time>
      </trkpt>
      <trkpt lat="46.392655642703176" lon="11.827881094068289">
        <ele>1983.8199999999999</ele>
        <time>2018-03-02T10:18:44Z</time>
      </trkpt>
      <trkpt lat="46.392641561105847" lon="11.827874640002847">
        <ele>1983.8199999999999</ele>
        <time>2018-03-02T10:19:05Z</time>
      </trkpt>
      <trkpt lat="46.392601160332561" lon="11.827903054654598">
        <ele>1983.8199999999999</ele>
        <time>2018-03-02T10:19:35Z</time>
      </trkpt>
      <trkpt lat="46.39257475733757" lon="11.827893666923046">
        <ele>1983.8199999999999</ele>
        <time>2018-03-02T10:20:07Z</time>
      </trkpt>
      <trkpt lat="46.3925801217556" lon="11.827879752963781">
        <ele>1983.8199999999999</ele>
        <time>2018-03-02T10:20:30Z</time>
      </trkpt>
      <trkpt lat="46.392607949674129" lon="11.827866677194834">
        <ele>1983.8199999999999</ele>
        <time>2018-03-02T10:20:58Z</time>
      </trkpt>
      <trkpt lat="46.392612811177969" lon="11.827867180109024">
        <ele>1983.3399999999999</ele>
        <time>2018-03-02T10:21:30Z</time>
      </trkpt>
      <trkpt lat="46.392588252201676" lon="11.827875813469291">
        <ele>1983.8199999999999</ele>
        <time>2018-03-02T10:22:01Z</time>
      </trkpt>
      <trkpt lat="46.39262898825109" lon="11.827881513163447">
        <ele>1983.8199999999999</ele>
        <time>2018-03-02T10:22:34Z</time>
      </trkpt>
      <trkpt lat="46.392565621063113" lon="11.827891236171126">
        <ele>1983.3399999999999</ele>
        <time>2018-03-02T10:23:01Z</time>
      </trkpt>
      <trkpt lat="46.392589844763279" lon="11.827890062704682">
        <ele>1983.3399999999999</ele>
        <time>2018-03-02T10:23:31Z</time>
      </trkpt>
      <trkpt lat="46.392595041543245" lon="11.827871538698673">
        <ele>1983.3399999999999</ele>
        <time>2018-03-02T10:23:55Z</time>
      </trkpt>
      <trkpt lat="46.392622701823711" lon="11.827865922823548">
        <ele>1983.3399999999999</ele>
        <time>2018-03-02T10:24:15Z</time>
      </trkpt>
      <trkpt lat="46.392647428438067" lon="11.827863743528724">
        <ele>1983.3399999999999</ele>
        <time>2018-03-02T10:24:50Z</time>
      </trkpt>
      <trkpt lat="46.392642315477133" lon="11.827857876196504">
        <ele>1983.3399999999999</ele>
        <time>2018-03-02T10:25:12Z</time>
      </trkpt>
      <trkpt lat="46.392629742622375" lon="11.827874723821878">
        <ele>1982.8599999999999</ele>
        <time>2018-03-02T10:25:38Z</time>
      </trkpt>
      <trkpt lat="46.392652038484812" lon="11.827881261706352">
        <ele>1983.3399999999999</ele>
        <time>2018-03-02T10:26:10Z</time>
      </trkpt>
      <trkpt lat="46.392634520307183" lon="11.827878914773464">
        <ele>1982.8599999999999</ele>
        <time>2018-03-02T10:26:38Z</time>
      </trkpt>
      <trkpt lat="46.392647679895163" lon="11.827863240614533">
        <ele>1982.8599999999999</ele>
        <time>2018-03-02T10:27:11Z</time>
      </trkpt>
      <trkpt lat="46.392622366547585" lon="11.827871454879642">
        <ele>1982.8599999999999</ele>
        <time>2018-03-02T10:27:42Z</time>
      </trkpt>
      <trkpt lat="46.392639297991991" lon="11.827885704115033">
        <ele>1982.8599999999999</ele>
        <time>2018-03-02T10:28:16Z</time>
      </trkpt>
      <trkpt lat="46.392652960494161" lon="11.827873550355434">
        <ele>1982.3800000000001</ele>
        <time>2018-03-02T10:28:36Z</time>
      </trkpt>
      <trkpt lat="46.392653966322541" lon="11.82787086814642">
        <ele>1979.01</ele>
        <time>2018-03-02T10:28:39Z</time>
      </trkpt>
      <trkpt lat="46.392655139788985" lon="11.827868856489658">
        <ele>1987.6600000000001</ele>
        <time>2018-03-02T10:28:41Z</time>
      </trkpt>
      <trkpt lat="46.392653966322541" lon="11.827868102118373">
        <ele>1982.8599999999999</ele>
        <time>2018-03-02T10:28:42Z</time>
      </trkpt>
      <trkpt lat="46.392639549449086" lon="11.827865419909358">
        <ele>1982.3800000000001</ele>
        <time>2018-03-02T10:29:01Z</time>
      </trkpt>
      <trkpt lat="46.392658073455095" lon="11.827861312776804">
        <ele>1982.3800000000001</ele>
        <time>2018-03-02T10:29:28Z</time>
      </trkpt>
      <trkpt lat="46.392646254971623" lon="11.827875142917037">
        <ele>1982.8599999999999</ele>
        <time>2018-03-02T10:29:42Z</time>
      </trkpt>
      <trkpt lat="46.392651032656431" lon="11.827866677194834">
        <ele>1981.4100000000001</ele>
        <time>2018-03-02T10:30:01Z</time>
      </trkpt>
      <trkpt lat="46.392656061798334" lon="11.827875562012196">
        <ele>1981.9000000000001</ele>
        <time>2018-03-02T10:30:18Z</time>
      </trkpt>
      <trkpt lat="46.392664192244411" lon="11.827870616689324">
        <ele>1981.9000000000001</ele>
        <time>2018-03-02T10:30:39Z</time>
      </trkpt>
      <trkpt lat="46.392669221386313" lon="11.82787824422121">
        <ele>1982.3800000000001</ele>
        <time>2018-03-02T10:31:00Z</time>
      </trkpt>
      <trkpt lat="46.392666790634394" lon="11.827885117381811">
        <ele>1982.3800000000001</ele>
        <time>2018-03-02T10:31:23Z</time>
      </trkpt>
      <trkpt lat="46.392680620774627" lon="11.827882938086987">
        <ele>1981.9000000000001</ele>
        <time>2018-03-02T10:31:25Z</time>
      </trkpt>
      <trkpt lat="46.392722027376294" lon="11.827827533707023">
        <ele>1982.8599999999999</ele>
        <time>2018-03-02T10:31:35Z</time>
      </trkpt>
      <trkpt lat="46.392741054296494" lon="11.8278494104743">
        <ele>1982.8599999999999</ele>
        <time>2018-03-02T10:31:39Z</time>
      </trkpt>
      <trkpt lat="46.39281464740634" lon="11.827956279739738">
        <ele>1983.3399999999999</ele>
        <time>2018-03-02T10:31:50Z</time>
      </trkpt>
      <trkpt lat="46.392842726781964" lon="11.828014617785811">
        <ele>1982.8599999999999</ele>
        <time>2018-03-02T10:31:54Z</time>
      </trkpt>
      <trkpt lat="46.392859490588307" lon="11.828040517866611">
        <ele>1983.3399999999999</ele>
        <time>2018-03-02T10:31:57Z</time>
      </trkpt>
      <trkpt lat="46.39293291606009" lon="11.828114613890648">
        <ele>1982.8599999999999</ele>
        <time>2018-03-02T10:32:06Z</time>
      </trkpt>
      <trkpt lat="46.392948925495148" lon="11.828124755993485">
        <ele>1982.8599999999999</ele>
        <time>2018-03-02T10:32:08Z</time>
      </trkpt>
      <trkpt lat="46.393007766455412" lon="11.828152667731047">
        <ele>1983.3399999999999</ele>
        <time>2018-03-02T10:32:14Z</time>
      </trkpt>
      <trkpt lat="46.393141038715839" lon="11.828193990513682">
        <ele>1982.8599999999999</ele>
        <time>2018-03-02T10:32:26Z</time>
      </trkpt>
      <trkpt lat="46.393197616562247" lon="11.828197091817856">
        <ele>1982.8599999999999</ele>
        <time>2018-03-02T10:32:38Z</time>
      </trkpt>
      <trkpt lat="46.393177416175604" lon="11.828198013827205">
        <ele>1982.8599999999999</ele>
        <time>2018-03-02T10:32:48Z</time>
      </trkpt>
      <trkpt lat="46.393151767551899" lon="11.828168341889977">
        <ele>1982.3800000000001</ele>
        <time>2018-03-02T10:32:52Z</time>
      </trkpt>
      <trkpt lat="46.393113797530532" lon="11.828156858682632">
        <ele>1982.3800000000001</ele>
        <time>2018-03-02T10:32:55Z</time>
      </trkpt>
      <trkpt lat="46.393077336251736" lon="11.828140346333385">
        <ele>1982.3800000000001</ele>
        <time>2018-03-02T10:32:59Z</time>
      </trkpt>
      <trkpt lat="46.392985973507166" lon="11.828114362433553">
        <ele>1982.8599999999999</ele>
        <time>2018-03-02T10:33:08Z</time>
      </trkpt>
      <trkpt lat="46.39298371039331" lon="11.828099358826876">
        <ele>1982.8599999999999</ele>
        <time>2018-03-02T10:33:10Z</time>
      </trkpt>
      <trkpt lat="46.392951775342226" lon="11.828095586970448">
        <ele>1982.8599999999999</ele>
        <time>2018-03-02T10:33:13Z</time>
      </trkpt>
      <trkpt lat="46.39295244589448" lon="11.828126264736056">
        <ele>1982.3800000000001</ele>
        <time>2018-03-02T10:33:19Z</time>
      </trkpt>
      <trkpt lat="46.392887150868773" lon="11.828018976375461">
        <ele>1983.3399999999999</ele>
        <time>2018-03-02T10:33:28Z</time>
      </trkpt>
      <trkpt lat="46.392870051786304" lon="11.827992992475629">
        <ele>1982.8599999999999</ele>
        <time>2018-03-02T10:33:31Z</time>
      </trkpt>
      <trkpt lat="46.392854377627373" lon="11.827976899221539">
        <ele>1983.3399999999999</ele>
        <time>2018-03-02T10:33:32Z</time>
      </trkpt>
      <trkpt lat="46.392831495031714" lon="11.82795686647296">
        <ele>1983.3399999999999</ele>
        <time>2018-03-02T10:33:36Z</time>
      </trkpt>
      <trkpt lat="46.392838535830379" lon="11.827976647764444">
        <ele>1982.8599999999999</ele>
        <time>2018-03-02T10:33:45Z</time>
      </trkpt>
      <trkpt lat="46.392846331000328" lon="11.82796030305326">
        <ele>1982.8599999999999</ele>
        <time>2018-03-02T10:33:53Z</time>
      </trkpt>
      <trkpt lat="46.392828477546573" lon="11.827940605580807">
        <ele>1982.8599999999999</ele>
        <time>2018-03-02T10:33:54Z</time>
      </trkpt>
      <trkpt lat="46.392809450626373" lon="11.827919986099005">
        <ele>1983.3399999999999</ele>
        <time>2018-03-02T10:33:55Z</time>
      </trkpt>
      <trkpt lat="46.392791597172618" lon="11.827905150130391">
        <ele>1982.8599999999999</ele>
        <time>2018-03-02T10:33:56Z</time>
      </trkpt>
      <trkpt lat="46.392767792567611" lon="11.827885871753097">
        <ele>1982.8599999999999</ele>
        <time>2018-03-02T10:33:59Z</time>
      </trkpt>
      <trkpt lat="46.392750358209014" lon="11.827870113775134">
        <ele>1983.3399999999999</ele>
        <time>2018-03-02T10:34:00Z</time>
      </trkpt>
      <trkpt lat="46.392734767869115" lon="11.827857038006186">
        <ele>1983.3399999999999</ele>
        <time>2018-03-02T10:34:01Z</time>
      </trkpt>
      <trkpt lat="46.392720518633723" lon="11.827845554798841">
        <ele>1982.8599999999999</ele>
        <time>2018-03-02T10:34:04Z</time>
      </trkpt>
      <trkpt lat="46.392704593017697" lon="11.827831976115704">
        <ele>1982.8599999999999</ele>
        <time>2018-03-02T10:34:05Z</time>
      </trkpt>
      <trkpt lat="46.392680704593658" lon="11.827792581170797">
        <ele>1982.3800000000001</ele>
        <time>2018-03-02T10:34:10Z</time>
      </trkpt>
      <trkpt lat="46.392687661573291" lon="11.827760729938745">
        <ele>1982.3800000000001</ele>
        <time>2018-03-02T10:34:15Z</time>
      </trkpt>
      <trkpt lat="46.392704425379634" lon="11.827771123498678">
        <ele>1982.8599999999999</ele>
        <time>2018-03-02T10:34:18Z</time>
      </trkpt>
      <trkpt lat="46.392723368480802" lon="11.827770788222551">
        <ele>1982.8599999999999</ele>
        <time>2018-03-02T10:34:19Z</time>
      </trkpt>
      <trkpt lat="46.392758572474122" lon="11.827766932547092">
        <ele>1982.8599999999999</ele>
        <time>2018-03-02T10:34:23Z</time>
      </trkpt>
      <trkpt lat="46.39277265407145" lon="11.827748157083988">
        <ele>1982.8599999999999</ele>
        <time>2018-03-02T10:34:24Z</time>
      </trkpt>
      <trkpt lat="46.392780281603336" lon="11.827759388834238">
        <ele>1982.8599999999999</ele>
        <time>2018-03-02T10:34:31Z</time>
      </trkpt>
      <trkpt lat="46.392750944942236" lon="11.827750420197845">
        <ele>1983.3399999999999</ele>
        <time>2018-03-02T10:34:47Z</time>
      </trkpt>
      <trkpt lat="46.392684476450086" lon="11.827768022194505">
        <ele>1983.3399999999999</ele>
        <time>2018-03-02T10:35:02Z</time>
      </trkpt>
      <trkpt lat="46.392686488106847" lon="11.827780427411199">
        <ele>1983.3399999999999</ele>
        <time>2018-03-02T10:35:15Z</time>
      </trkpt>
      <trkpt lat="46.392714316025376" lon="11.827726196497679">
        <ele>1983.3399999999999</ele>
        <time>2018-03-02T10:35:26Z</time>
      </trkpt>
      <trkpt lat="46.392699731513858" lon="11.827718820422888">
        <ele>1982.8599999999999</ele>
        <time>2018-03-02T10:35:46Z</time>
      </trkpt>
      <trkpt lat="46.392720937728882" lon="11.827802723273635">
        <ele>1982.8599999999999</ele>
        <time>2018-03-02T10:36:05Z</time>
      </trkpt>
      <trkpt lat="46.392713896930218" lon="11.827804148197174">
        <ele>1982.8599999999999</ele>
        <time>2018-03-02T10:36:06Z</time>
      </trkpt>
      <trkpt lat="46.392693864181638" lon="11.827814625576138">
        <ele>1982.8599999999999</ele>
        <time>2018-03-02T10:36:09Z</time>
      </trkpt>
      <trkpt lat="46.392638962715864" lon="11.82783231139183">
        <ele>1982.3800000000001</ele>
        <time>2018-03-02T10:36:17Z</time>
      </trkpt>
      <trkpt lat="46.392619600519538" lon="11.827825270593166">
        <ele>1982.8599999999999</ele>
        <time>2018-03-02T10:36:31Z</time>
      </trkpt>
      <trkpt lat="46.392624964937568" lon="11.82782644405961">
        <ele>1982.3800000000001</ele>
        <time>2018-03-02T10:36:51Z</time>
      </trkpt>
      <trkpt lat="46.392624629661441" lon="11.827834071591496">
        <ele>1982.8599999999999</ele>
        <time>2018-03-02T10:37:05Z</time>
      </trkpt>
      <trkpt lat="46.392633514478803" lon="11.827872628346086">
        <ele>1982.3800000000001</ele>
        <time>2018-03-02T10:37:20Z</time>
      </trkpt>
      <trkpt lat="46.392639633268118" lon="11.827866258099675">
        <ele>1982.8599999999999</ele>
        <time>2018-03-02T10:37:35Z</time>
      </trkpt>
      <trkpt lat="46.39263384975493" lon="11.827860809862614">
        <ele>1982.8599999999999</ele>
        <time>2018-03-02T10:37:59Z</time>
      </trkpt>
      <trkpt lat="46.392631251364946" lon="11.827853852882981">
        <ele>1982.8599999999999</ele>
        <time>2018-03-02T10:38:29Z</time>
      </trkpt>
      <trkpt lat="46.392640806734562" lon="11.827863827347755">
        <ele>1982.8599999999999</ele>
        <time>2018-03-02T10:38:57Z</time>
      </trkpt>
      <trkpt lat="46.39263829216361" lon="11.827856283634901">
        <ele>1982.8599999999999</ele>
        <time>2018-03-02T10:39:21Z</time>
      </trkpt>
      <trkpt lat="46.392639800906181" lon="11.827867263928056">
        <ele>1982.8599999999999</ele>
        <time>2018-03-02T10:39:47Z</time>
      </trkpt>
      <trkpt lat="46.392648685723543" lon="11.827873131260276">
        <ele>1982.8599999999999</ele>
        <time>2018-03-02T10:40:22Z</time>
      </trkpt>
      <trkpt lat="46.39263384975493" lon="11.827869359403849">
        <ele>1982.8599999999999</ele>
        <time>2018-03-02T10:40:55Z</time>
      </trkpt>
      <trkpt lat="46.392640639096498" lon="11.827861731871963">
        <ele>1982.8599999999999</ele>
        <time>2018-03-02T10:41:31Z</time>
      </trkpt>
      <trkpt lat="46.392624042928219" lon="11.827866844832897">
        <ele>1982.8599999999999</ele>
        <time>2018-03-02T10:41:59Z</time>
      </trkpt>
      <trkpt lat="46.392617002129555" lon="11.827862402424216">
        <ele>1982.8599999999999</ele>
        <time>2018-03-02T10:42:30Z</time>
      </trkpt>
      <trkpt lat="46.3926284853369" lon="11.827858546748757">
        <ele>1982.8599999999999</ele>
        <time>2018-03-02T10:42:55Z</time>
      </trkpt>
      <trkpt lat="46.3926284853369" lon="11.827852679416537">
        <ele>1982.8599999999999</ele>
        <time>2018-03-02T10:43:21Z</time>
      </trkpt>
      <trkpt lat="46.392628150060773" lon="11.827856786549091">
        <ele>1982.8599999999999</ele>
        <time>2018-03-02T10:43:53Z</time>
      </trkpt>
      <trkpt lat="46.392626641318202" lon="11.82788067497313">
        <ele>1982.8599999999999</ele>
        <time>2018-03-02T10:44:12Z</time>
      </trkpt>
      <trkpt lat="46.392629323527217" lon="11.827882854267955">
        <ele>1982.8599999999999</ele>
        <time>2018-03-02T10:44:37Z</time>
      </trkpt>
      <trkpt lat="46.392622450366616" lon="11.827872712165117">
        <ele>1982.8599999999999</ele>
        <time>2018-03-02T10:45:05Z</time>
      </trkpt>
      <trkpt lat="46.392632676288486" lon="11.827869694679976">
        <ele>1982.8599999999999</ele>
        <time>2018-03-02T10:45:29Z</time>
      </trkpt>
      <trkpt lat="46.392629239708185" lon="11.827859971672297">
        <ele>1982.8599999999999</ele>
        <time>2018-03-02T10:45:51Z</time>
      </trkpt>
      <trkpt lat="46.392625803127885" lon="11.827875059098005">
        <ele>1982.8599999999999</ele>
        <time>2018-03-02T10:46:15Z</time>
      </trkpt>
      <trkpt lat="46.392631502822042" lon="11.827878663316369">
        <ele>1982.8599999999999</ele>
        <time>2018-03-02T10:46:40Z</time>
      </trkpt>
      <trkpt lat="46.3926353584975" lon="11.827878076583147">
        <ele>1982.8599999999999</ele>
        <time>2018-03-02T10:47:03Z</time>
      </trkpt>
      <trkpt lat="46.392638208344579" lon="11.827880423516035">
        <ele>1982.8599999999999</ele>
        <time>2018-03-02T10:47:30Z</time>
      </trkpt>
      <trkpt lat="46.392635861411691" lon="11.827881345525384">
        <ele>1982.8599999999999</ele>
        <time>2018-03-02T10:48:06Z</time>
      </trkpt>
      <trkpt lat="46.392639381811023" lon="11.827883357182145">
        <ele>1982.8599999999999</ele>
        <time>2018-03-02T10:48:29Z</time>
      </trkpt>
      <trkpt lat="46.392634268850088" lon="11.827878663316369">
        <ele>1982.8599999999999</ele>
        <time>2018-03-02T10:48:57Z</time>
      </trkpt>
      <trkpt lat="46.392646171152592" lon="11.827876903116703">
        <ele>1982.8599999999999</ele>
        <time>2018-03-02T10:49:26Z</time>
      </trkpt>
      <trkpt lat="46.392652876675129" lon="11.827874640002847">
        <ele>1982.8599999999999</ele>
        <time>2018-03-02T10:49:57Z</time>
      </trkpt>
      <trkpt lat="46.392635945230722" lon="11.827869862318039">
        <ele>1982.8599999999999</ele>
        <time>2018-03-02T10:50:25Z</time>
      </trkpt>
      <trkpt lat="46.392630077898502" lon="11.827864833176136">
        <ele>1982.8599999999999</ele>
        <time>2018-03-02T10:50:50Z</time>
      </trkpt>
      <trkpt lat="46.392613649368286" lon="11.827860055491328">
        <ele>1982.8599999999999</ele>
        <time>2018-03-02T10:51:00Z</time>
      </trkpt>
      <trkpt lat="46.392635190859437" lon="11.827846560627222">
        <ele>1982.8599999999999</ele>
        <time>2018-03-02T10:51:14Z</time>
      </trkpt>
      <trkpt lat="46.3926094584167" lon="11.827857373282313">
        <ele>1982.8599999999999</ele>
        <time>2018-03-02T10:51:25Z</time>
      </trkpt>
      <trkpt lat="46.39260015450418" lon="11.827864916995168">
        <ele>1982.8599999999999</ele>
        <time>2018-03-02T10:51:39Z</time>
      </trkpt>
      <trkpt lat="46.392608201131225" lon="11.827843375504017">
        <ele>1982.8599999999999</ele>
        <time>2018-03-02T10:52:04Z</time>
      </trkpt>
      <trkpt lat="46.392611050978303" lon="11.82778931222856">
        <ele>1982.8599999999999</ele>
        <time>2018-03-02T10:52:11Z</time>
      </trkpt>
      <trkpt lat="46.392697216942906" lon="11.827831557020545">
        <ele>1983.3399999999999</ele>
        <time>2018-03-02T10:52:20Z</time>
      </trkpt>
      <trkpt lat="46.392714735120535" lon="11.827839352190495">
        <ele>1983.3399999999999</ele>
        <time>2018-03-02T10:52:22Z</time>
      </trkpt>
      <trkpt lat="46.39273988083005" lon="11.827883692458272">
        <ele>1983.3399999999999</ele>
        <time>2018-03-02T10:52:29Z</time>
      </trkpt>
      <trkpt lat="46.392750609666109" lon="11.827892577275634">
        <ele>1983.8199999999999</ele>
        <time>2018-03-02T10:52:31Z</time>
      </trkpt>
      <trkpt lat="46.392781287431717" lon="11.82792266830802">
        <ele>1983.8199999999999</ele>
        <time>2018-03-02T10:52:35Z</time>
      </trkpt>
      <trkpt lat="46.392875835299492" lon="11.828048061579466">
        <ele>1983.8199999999999</ele>
        <time>2018-03-02T10:52:48Z</time>
      </trkpt>
      <trkpt lat="46.39292998239398" lon="11.828105896711349">
        <ele>1983.8199999999999</ele>
        <time>2018-03-02T10:52:56Z</time>
      </trkpt>
      <trkpt lat="46.393037689849734" lon="11.828149063512683">
        <ele>1983.8199999999999</ele>
        <time>2018-03-02T10:53:07Z</time>
      </trkpt>
      <trkpt lat="46.393153443932533" lon="11.828184854239225">
        <ele>1983.3399999999999</ele>
        <time>2018-03-02T10:53:19Z</time>
      </trkpt>
      <trkpt lat="46.393268695101142" lon="11.828241934999824">
        <ele>1983.3399999999999</ele>
        <time>2018-03-02T10:53:32Z</time>
      </trkpt>
      <trkpt lat="46.393309850245714" lon="11.828265069052577">
        <ele>1983.3399999999999</ele>
        <time>2018-03-02T10:53:38Z</time>
      </trkpt>
      <trkpt lat="46.393348658457398" lon="11.828342098742723">
        <ele>1982.8599999999999</ele>
        <time>2018-03-02T10:53:45Z</time>
      </trkpt>
      <trkpt lat="46.393353771418333" lon="11.828412003815174">
        <ele>1982.8599999999999</ele>
        <time>2018-03-02T10:53:50Z</time>
      </trkpt>
      <trkpt lat="46.393343294039369" lon="11.828504120931029">
        <ele>1983.8199999999999</ele>
        <time>2018-03-02T10:53:59Z</time>
      </trkpt>
      <trkpt lat="46.393257630988955" lon="11.828614762052894">
        <ele>1984.78</ele>
        <time>2018-03-02T10:54:11Z</time>
      </trkpt>
      <trkpt lat="46.393219577148557" lon="11.828702855855227">
        <ele>1985.26</ele>
        <time>2018-03-02T10:54:22Z</time>
      </trkpt>
      <trkpt lat="46.393237598240376" lon="11.828779047355056">
        <ele>1985.74</ele>
        <time>2018-03-02T10:54:30Z</time>
      </trkpt>
      <trkpt lat="46.39318504370749" lon="11.82878952473402">
        <ele>1985.74</ele>
        <time>2018-03-02T10:54:37Z</time>
      </trkpt>
      <trkpt lat="46.393176075071096" lon="11.828792123124003">
        <ele>1985.74</ele>
        <time>2018-03-02T10:54:38Z</time>
      </trkpt>
      <trkpt lat="46.393126705661416" lon="11.828815592452884">
        <ele>1985.26</ele>
        <time>2018-03-02T10:54:47Z</time>
      </trkpt>
      <trkpt lat="46.393104242160916" lon="11.828818442299962">
        <ele>1985.26</ele>
        <time>2018-03-02T10:54:56Z</time>
      </trkpt>
      <trkpt lat="46.393041126430035" lon="11.828908128663898">
        <ele>1985.74</ele>
        <time>2018-03-02T10:55:06Z</time>
      </trkpt>
      <trkpt lat="46.39298714697361" lon="11.828971831128001">
        <ele>1986.22</ele>
        <time>2018-03-02T10:55:16Z</time>
      </trkpt>
      <trkpt lat="46.392911290749907" lon="11.829085573554039">
        <ele>1986.7</ele>
        <time>2018-03-02T10:55:27Z</time>
      </trkpt>
      <trkpt lat="46.392887653782964" lon="11.829118514433503">
        <ele>1986.7</ele>
        <time>2018-03-02T10:55:31Z</time>
      </trkpt>
      <trkpt lat="46.392799643799663" lon="11.829243907704949">
        <ele>1986.7</ele>
        <time>2018-03-02T10:55:44Z</time>
      </trkpt>
      <trkpt lat="46.39278581365943" lon="11.829263772815466">
        <ele>1986.7</ele>
        <time>2018-03-02T10:55:46Z</time>
      </trkpt>
      <trkpt lat="46.392707107588649" lon="11.829364188015461">
        <ele>1987.1800000000001</ele>
        <time>2018-03-02T10:55:57Z</time>
      </trkpt>
      <trkpt lat="46.392633430659771" lon="11.829448258504272">
        <ele>1987.1800000000001</ele>
        <time>2018-03-02T10:56:07Z</time>
      </trkpt>
      <trkpt lat="46.392546175047755" lon="11.829557307064533">
        <ele>1987.6600000000001</ele>
        <time>2018-03-02T10:56:19Z</time>
      </trkpt>
      <trkpt lat="46.392562938854098" lon="11.829610615968704">
        <ele>1987.1800000000001</ele>
        <time>2018-03-02T10:56:28Z</time>
      </trkpt>
      <trkpt lat="46.392508456483483" lon="11.829644311219454">
        <ele>1987.1800000000001</ele>
        <time>2018-03-02T10:56:38Z</time>
      </trkpt>
      <trkpt lat="46.392507534474134" lon="11.829679263755679">
        <ele>1987.1800000000001</ele>
        <time>2018-03-02T10:56:42Z</time>
      </trkpt>
      <trkpt lat="46.392512479797006" lon="11.829814966768026">
        <ele>1987.1800000000001</ele>
        <time>2018-03-02T10:56:52Z</time>
      </trkpt>
      <trkpt lat="46.392506277188659" lon="11.829843549057841">
        <ele>1987.1800000000001</ele>
        <time>2018-03-02T10:56:54Z</time>
      </trkpt>
      <trkpt lat="46.392465457320213" lon="11.82994119822979">
        <ele>1987.6600000000001</ele>
        <time>2018-03-02T10:57:03Z</time>
      </trkpt>
      <trkpt lat="46.39244626276195" lon="11.83001697063446">
        <ele>1988.6199999999999</ele>
        <time>2018-03-02T10:57:12Z</time>
      </trkpt>
      <trkpt lat="46.392427152022719" lon="11.830088049173355">
        <ele>1989.5899999999999</ele>
        <time>2018-03-02T10:57:20Z</time>
      </trkpt>
      <trkpt lat="46.39239639043808" lon="11.830170275643468">
        <ele>1990.55</ele>
        <time>2018-03-02T10:57:28Z</time>
      </trkpt>
      <trkpt lat="46.392375268042088" lon="11.830245042219758">
        <ele>1991.03</ele>
        <time>2018-03-02T10:57:36Z</time>
      </trkpt>
      <trkpt lat="46.392346769571304" lon="11.830285107716918">
        <ele>1991.51</ele>
        <time>2018-03-02T10:57:40Z</time>
      </trkpt>
      <trkpt lat="46.392291951924562" lon="11.830408740788698">
        <ele>1992.47</ele>
        <time>2018-03-02T10:57:52Z</time>
      </trkpt>
      <trkpt lat="46.392264878377318" lon="11.830455176532269">
        <ele>1993.4300000000001</ele>
        <time>2018-03-02T10:58:00Z</time>
      </trkpt>
      <trkpt lat="46.392256580293179" lon="11.830459786579013">
        <ele>1993.9100000000001</ele>
        <time>2018-03-02T10:58:01Z</time>
      </trkpt>
      <trkpt lat="46.392215173691511" lon="11.830525333061814">
        <ele>1995.3499999999999</ele>
        <time>2018-03-02T10:58:11Z</time>
      </trkpt>
      <trkpt lat="46.392167564481497" lon="11.830598842352629">
        <ele>1996.8</ele>
        <time>2018-03-02T10:58:22Z</time>
      </trkpt>
      <trkpt lat="46.392129678279161" lon="11.830685343593359">
        <ele>1998.24</ele>
        <time>2018-03-02T10:58:34Z</time>
      </trkpt>
      <trkpt lat="46.392100425437093" lon="11.830741753801703">
        <ele>1999.6800000000001</ele>
        <time>2018-03-02T10:58:43Z</time>
      </trkpt>
      <trkpt lat="46.392050720751286" lon="11.830790871754289">
        <ele>2000.6400000000001</ele>
        <time>2018-03-02T10:58:53Z</time>
      </trkpt>
      <trkpt lat="46.392006212845445" lon="11.830822722986341">
        <ele>2001.1199999999999</ele>
        <time>2018-03-02T10:58:58Z</time>
      </trkpt>
      <trkpt lat="46.391987185925245" lon="11.830842755734921">
        <ele>2001.1199999999999</ele>
        <time>2018-03-02T10:59:01Z</time>
      </trkpt>
      <trkpt lat="46.391925243660808" lon="11.83092531748116">
        <ele>2002.0799999999999</ele>
        <time>2018-03-02T10:59:12Z</time>
      </trkpt>
      <trkpt lat="46.391890123486519" lon="11.830985164269805">
        <ele>2003.52</ele>
        <time>2018-03-02T10:59:22Z</time>
      </trkpt>
      <trkpt lat="46.391880568116903" lon="11.830993127077818">
        <ele>2003.52</ele>
        <time>2018-03-02T10:59:24Z</time>
      </trkpt>
      <trkpt lat="46.391824912279844" lon="11.831029755994678">
        <ele>2004.49</ele>
        <time>2018-03-02T10:59:34Z</time>
      </trkpt>
      <trkpt lat="46.391753917559981" lon="11.831049621105194">
        <ele>2005.9300000000001</ele>
        <time>2018-03-02T10:59:45Z</time>
      </trkpt>
      <trkpt lat="46.391687029972672" lon="11.831064289435744">
        <ele>2007.3699999999999</ele>
        <time>2018-03-02T10:59:55Z</time>
      </trkpt>
      <trkpt lat="46.391645120456815" lon="11.831103097647429">
        <ele>2008.3299999999999</ele>
        <time>2018-03-02T11:00:04Z</time>
      </trkpt>
      <trkpt lat="46.391589380800724" lon="11.831118855625391">
        <ele>2009.77</ele>
        <time>2018-03-02T11:00:14Z</time>
      </trkpt>
      <trkpt lat="46.391528444364667" lon="11.83113687671721">
        <ele>2010.73</ele>
        <time>2018-03-02T11:00:23Z</time>
      </trkpt>
      <trkpt lat="46.391476392745972" lon="11.8311598431319">
        <ele>2012.6600000000001</ele>
        <time>2018-03-02T11:00:33Z</time>
      </trkpt>
      <trkpt lat="46.391434567049146" lon="11.831170655786991">
        <ele>2013.6199999999999</ele>
        <time>2018-03-02T11:00:43Z</time>
      </trkpt>
      <trkpt lat="46.391399446874857" lon="11.831187754869461">
        <ele>2015.0599999999999</ele>
        <time>2018-03-02T11:00:51Z</time>
      </trkpt>
      <trkpt lat="46.39138737693429" lon="11.831191778182983">
        <ele>2015.0599999999999</ele>
        <time>2018-03-02T11:00:54Z</time>
      </trkpt>
      <trkpt lat="46.391328787431121" lon="11.831220192834735">
        <ele>2016.98</ele>
        <time>2018-03-02T11:01:04Z</time>
      </trkpt>
      <trkpt lat="46.391290985047817" lon="11.83124391362071">
        <ele>2017.46</ele>
        <time>2018-03-02T11:01:13Z</time>
      </trkpt>
      <trkpt lat="46.391256535425782" lon="11.83127760887146">
        <ele>2018.9100000000001</ele>
        <time>2018-03-02T11:01:22Z</time>
      </trkpt>
      <trkpt lat="46.391248404979706" lon="11.831282638013363">
        <ele>2018.9100000000001</ele>
        <time>2018-03-02T11:01:23Z</time>
      </trkpt>
      <trkpt lat="46.391189815476537" lon="11.831323457881808">
        <ele>2020.3499999999999</ele>
        <time>2018-03-02T11:01:33Z</time>
      </trkpt>
      <trkpt lat="46.391159389168024" lon="11.831355728209019">
        <ele>2021.3099999999999</ele>
        <time>2018-03-02T11:01:41Z</time>
      </trkpt>
      <trkpt lat="46.391112031415105" lon="11.831385400146246">
        <ele>2022.27</ele>
        <time>2018-03-02T11:01:50Z</time>
      </trkpt>
      <trkpt lat="46.391059812158346" lon="11.831419514492154">
        <ele>2023.23</ele>
        <time>2018-03-02T11:01:58Z</time>
      </trkpt>
      <trkpt lat="46.391045646741986" lon="11.831432422623038">
        <ele>2023.71</ele>
        <time>2018-03-02T11:02:01Z</time>
      </trkpt>
      <trkpt lat="46.390993846580386" lon="11.831468800082803">
        <ele>2024.6700000000001</ele>
        <time>2018-03-02T11:02:11Z</time>
      </trkpt>
      <trkpt lat="46.39097741805017" lon="11.831482546404004">
        <ele>2025.1500000000001</ele>
        <time>2018-03-02T11:02:14Z</time>
      </trkpt>
      <trkpt lat="46.390943806618452" lon="11.831513643264771">
        <ele>2026.1199999999999</ele>
        <time>2018-03-02T11:02:21Z</time>
      </trkpt>
      <trkpt lat="46.390891252085567" lon="11.831567455083132">
        <ele>2027.0799999999999</ele>
        <time>2018-03-02T11:02:32Z</time>
      </trkpt>
      <trkpt lat="46.390882451087236" lon="11.831571897491813">
        <ele>2027.5599999999999</ele>
        <time>2018-03-02T11:02:34Z</time>
      </trkpt>
      <trkpt lat="46.390835931524634" lon="11.831623530015349">
        <ele>2029</ele>
        <time>2018-03-02T11:02:44Z</time>
      </trkpt>
      <trkpt lat="46.390786813572049" lon="11.831680443137884">
        <ele>2029.96</ele>
        <time>2018-03-02T11:02:53Z</time>
      </trkpt>
      <trkpt lat="46.390719255432487" lon="11.831736098974943">
        <ele>2030.9200000000001</ele>
        <time>2018-03-02T11:03:04Z</time>
      </trkpt>
      <trkpt lat="46.390666700899601" lon="11.831779852509499">
        <ele>2032.3599999999999</ele>
        <time>2018-03-02T11:03:14Z</time>
      </trkpt>
      <trkpt lat="46.390592772513628" lon="11.831824108958244">
        <ele>2032.8399999999999</ele>
        <time>2018-03-02T11:03:24Z</time>
      </trkpt>
      <trkpt lat="46.390518173575401" lon="11.831869874149561">
        <ele>2033.8099999999999</ele>
        <time>2018-03-02T11:03:34Z</time>
      </trkpt>
      <trkpt lat="46.390525214374065" lon="11.831811368465424">
        <ele>2033.8099999999999</ele>
        <time>2018-03-02T11:03:43Z</time>
      </trkpt>
      <trkpt lat="46.39051565900445" lon="11.831849757581949">
        <ele>2033.8099999999999</ele>
        <time>2018-03-02T11:03:56Z</time>
      </trkpt>
      <trkpt lat="46.390489842742682" lon="11.831889068707824">
        <ele>2034.29</ele>
        <time>2018-03-02T11:04:11Z</time>
      </trkpt>
      <trkpt lat="46.39043259434402" lon="11.831961907446384">
        <ele>2035.25</ele>
        <time>2018-03-02T11:04:22Z</time>
      </trkpt>
      <trkpt lat="46.390372747555375" lon="11.832011193037033">
        <ele>2036.6900000000001</ele>
        <time>2018-03-02T11:04:31Z</time>
      </trkpt>
      <trkpt lat="46.390316337347031" lon="11.832040445879102">
        <ele>2037.6500000000001</ele>
        <time>2018-03-02T11:04:38Z</time>
      </trkpt>
      <trkpt lat="46.390280714258552" lon="11.832086630165577">
        <ele>2038.1300000000001</ele>
        <time>2018-03-02T11:04:46Z</time>
      </trkpt>
      <trkpt lat="46.390251293778419" lon="11.832126947119832">
        <ele>2038.6099999999999</ele>
        <time>2018-03-02T11:04:52Z</time>
      </trkpt>
      <trkpt lat="46.390183484181762" lon="11.832184949889779">
        <ele>2039.0899999999999</ele>
        <time>2018-03-02T11:05:00Z</time>
      </trkpt>
      <trkpt lat="46.390170408412814" lon="11.832196516916156">
        <ele>2039.0899999999999</ele>
        <time>2018-03-02T11:05:02Z</time>
      </trkpt>
      <trkpt lat="46.390069657936692" lon="11.832269774749875">
        <ele>2039.5699999999999</ele>
        <time>2018-03-02T11:05:14Z</time>
      </trkpt>
      <trkpt lat="46.390025401487947" lon="11.832301542162895">
        <ele>2040.54</ele>
        <time>2018-03-02T11:05:22Z</time>
      </trkpt>
      <trkpt lat="46.389990448951721" lon="11.832333141937852">
        <ele>2041.5</ele>
        <time>2018-03-02T11:05:31Z</time>
      </trkpt>
      <trkpt lat="46.389930685982108" lon="11.832356275990605">
        <ele>2042.46</ele>
        <time>2018-03-02T11:05:39Z</time>
      </trkpt>
      <trkpt lat="46.389884417876601" lon="11.832380415871739">
        <ele>2043.4200000000001</ele>
        <time>2018-03-02T11:05:48Z</time>
      </trkpt>
      <trkpt lat="46.38983647339046" lon="11.832388127222657">
        <ele>2044.3800000000001</ele>
        <time>2018-03-02T11:05:57Z</time>
      </trkpt>
      <trkpt lat="46.389813590794802" lon="11.832427605986595">
        <ele>2045.8199999999999</ele>
        <time>2018-03-02T11:06:07Z</time>
      </trkpt>
      <trkpt lat="46.389794563874602" lon="11.832468090578914">
        <ele>2046.78</ele>
        <time>2018-03-02T11:06:16Z</time>
      </trkpt>
      <trkpt lat="46.389790792018175" lon="11.832534223794937">
        <ele>2048.23</ele>
        <time>2018-03-02T11:06:26Z</time>
      </trkpt>
      <trkpt lat="46.389786517247558" lon="11.832597339525819">
        <ele>2049.1900000000001</ele>
        <time>2018-03-02T11:06:36Z</time>
      </trkpt>
      <trkpt lat="46.389794563874602" lon="11.832668501883745">
        <ele>2050.6300000000001</ele>
        <time>2018-03-02T11:06:45Z</time>
      </trkpt>
      <trkpt lat="46.389802107587457" lon="11.832753662019968">
        <ele>2051.5900000000001</ele>
        <time>2018-03-02T11:06:56Z</time>
      </trkpt>
      <trkpt lat="46.389781488105655" lon="11.832834044471383">
        <ele>2053.0300000000002</ele>
        <time>2018-03-02T11:07:07Z</time>
      </trkpt>
      <trkpt lat="46.389732537791133" lon="11.832860196009278">
        <ele>2053.5100000000002</ele>
        <time>2018-03-02T11:07:18Z</time>
      </trkpt>
      <trkpt lat="46.38971233740449" lon="11.832852400839329">
        <ele>2053.9899999999998</ele>
        <time>2018-03-02T11:07:29Z</time>
      </trkpt>
      <trkpt lat="46.389698255807161" lon="11.832871763035655">
        <ele>2053.9899999999998</ele>
        <time>2018-03-02T11:07:48Z</time>
      </trkpt>
      <trkpt lat="46.389694232493639" lon="11.832881569862366">
        <ele>2053.9899999999998</ele>
        <time>2018-03-02T11:07:49Z</time>
      </trkpt>
      <trkpt lat="46.38963220641017" lon="11.832943595945835">
        <ele>2054.96</ele>
        <time>2018-03-02T11:07:58Z</time>
      </trkpt>
      <trkpt lat="46.389586022123694" lon="11.832990953698754">
        <ele>2055.9200000000001</ele>
        <time>2018-03-02T11:08:07Z</time>
      </trkpt>
      <trkpt lat="46.389576802030206" lon="11.833038814365864">
        <ele>2056.8800000000001</ele>
        <time>2018-03-02T11:08:15Z</time>
      </trkpt>
      <trkpt lat="46.389565318822861" lon="11.833096565678716">
        <ele>2058.3200000000002</ele>
        <time>2018-03-02T11:08:25Z</time>
      </trkpt>
      <trkpt lat="46.389563223347068" lon="11.833162363618612">
        <ele>2059.2800000000002</ele>
        <time>2018-03-02T11:08:34Z</time>
      </trkpt>
      <trkpt lat="46.389558613300323" lon="11.833144845440984">
        <ele>2059.2800000000002</ele>
        <time>2018-03-02T11:08:46Z</time>
      </trkpt>
      <trkpt lat="46.389560624957085" lon="11.833122801035643">
        <ele>2059.2800000000002</ele>
        <time>2018-03-02T11:09:00Z</time>
      </trkpt>
      <trkpt lat="46.389545956626534" lon="11.833134451881051">
        <ele>2058.3200000000002</ele>
        <time>2018-03-02T11:09:08Z</time>
      </trkpt>
      <trkpt lat="46.38953891582787" lon="11.833135290071368">
        <ele>2058.3200000000002</ele>
        <time>2018-03-02T11:09:31Z</time>
      </trkpt>
      <trkpt lat="46.389537490904331" lon="11.833138223737478">
        <ele>2058.3200000000002</ele>
        <time>2018-03-02T11:09:33Z</time>
      </trkpt>
      <trkpt lat="46.389532377943397" lon="11.83313294313848">
        <ele>2058.8000000000002</ele>
        <time>2018-03-02T11:09:41Z</time>
      </trkpt>
      <trkpt lat="46.389550315216184" lon="11.833140570670366">
        <ele>2059.2800000000002</ele>
        <time>2018-03-02T11:09:57Z</time>
      </trkpt>
      <trkpt lat="46.389580825343728" lon="11.833202596753836">
        <ele>2060.2399999999998</ele>
        <time>2018-03-02T11:10:08Z</time>
      </trkpt>
      <trkpt lat="46.389612425118685" lon="11.833326313644648">
        <ele>2062.6500000000001</ele>
        <time>2018-03-02T11:10:23Z</time>
      </trkpt>
      <trkpt lat="46.389615777879953" lon="11.833415413275361">
        <ele>2063.6100000000001</ele>
        <time>2018-03-02T11:10:32Z</time>
      </trkpt>
      <trkpt lat="46.389605468139052" lon="11.833441313356161">
        <ele>2064.5700000000002</ele>
        <time>2018-03-02T11:10:41Z</time>
      </trkpt>
      <trkpt lat="46.389599600806832" lon="11.833488084375858">
        <ele>2065.5300000000002</ele>
        <time>2018-03-02T11:10:54Z</time>
      </trkpt>
      <trkpt lat="46.389601528644562" lon="11.833561258390546">
        <ele>2066.9699999999998</ele>
        <time>2018-03-02T11:11:05Z</time>
      </trkpt>
      <trkpt lat="46.389595326036215" lon="11.83357466943562">
        <ele>2066.0100000000002</ele>
        <time>2018-03-02T11:11:21Z</time>
      </trkpt>
      <trkpt lat="46.389585519209504" lon="11.833564694970846">
        <ele>2066.4899999999998</ele>
        <time>2018-03-02T11:11:37Z</time>
      </trkpt>
      <trkpt lat="46.389584178104997" lon="11.833585985004902">
        <ele>2066.9699999999998</ele>
        <time>2018-03-02T11:11:51Z</time>
      </trkpt>
      <trkpt lat="46.389580238610506" lon="11.833572238683701">
        <ele>2066.9699999999998</ele>
        <time>2018-03-02T11:12:02Z</time>
      </trkpt>
      <trkpt lat="46.389600774273276" lon="11.833623284474015">
        <ele>2067.4499999999998</ele>
        <time>2018-03-02T11:12:08Z</time>
      </trkpt>
      <trkpt lat="46.389687778428197" lon="11.833663433790207">
        <ele>2066.9699999999998</ele>
        <time>2018-03-02T11:12:19Z</time>
      </trkpt>
      <trkpt lat="46.389748798683286" lon="11.833671564236283">
        <ele>2068.4099999999999</ele>
        <time>2018-03-02T11:12:28Z</time>
      </trkpt>
      <trkpt lat="46.389806047081947" lon="11.833634683862329">
        <ele>2070.8200000000002</ele>
        <time>2018-03-02T11:12:39Z</time>
      </trkpt>
      <trkpt lat="46.38988240621984" lon="11.83363233692944">
        <ele>2070.8200000000002</ele>
        <time>2018-03-02T11:12:50Z</time>
      </trkpt>
      <trkpt lat="46.389926830306649" lon="11.833627475425601">
        <ele>2071.3000000000002</ele>
        <time>2018-03-02T11:12:56Z</time>
      </trkpt>
      <trkpt lat="46.390021797269583" lon="11.833631917834282">
        <ele>2072.7399999999998</ele>
        <time>2018-03-02T11:13:08Z</time>
      </trkpt>
      <trkpt lat="46.39004216529429" lon="11.833648094907403">
        <ele>2073.6999999999998</ele>
        <time>2018-03-02T11:13:17Z</time>
      </trkpt>
      <trkpt lat="46.390108047053218" lon="11.833636276423931">
        <ele>2074.1799999999998</ele>
        <time>2018-03-02T11:13:26Z</time>
      </trkpt>
      <trkpt lat="46.390179041773081" lon="11.833642059937119">
        <ele>2075.1399999999999</ele>
        <time>2018-03-02T11:13:36Z</time>
      </trkpt>
      <trkpt lat="46.390248192474246" lon="11.833628062158823">
        <ele>2077.0700000000002</ele>
        <time>2018-03-02T11:13:47Z</time>
      </trkpt>
      <trkpt lat="46.390315247699618" lon="11.833642395213246">
        <ele>2078.5100000000002</ele>
        <time>2018-03-02T11:13:58Z</time>
      </trkpt>
      <trkpt lat="46.390376519411802" lon="11.833649184554815">
        <ele>2079.9499999999998</ele>
        <time>2018-03-02T11:14:10Z</time>
      </trkpt>
      <trkpt lat="46.390452794730663" lon="11.833649016916752">
        <ele>2081.3899999999999</ele>
        <time>2018-03-02T11:14:22Z</time>
      </trkpt>
      <trkpt lat="46.39052789658308" lon="11.833670642226934">
        <ele>2081.8699999999999</ele>
        <time>2018-03-02T11:14:32Z</time>
      </trkpt>
      <trkpt lat="46.390585312619805" lon="11.833682376891375">
        <ele>2083.3099999999999</ele>
        <time>2018-03-02T11:14:43Z</time>
      </trkpt>
      <trkpt lat="46.390615571290255" lon="11.833688914775848">
        <ele>2083.79</ele>
        <time>2018-03-02T11:14:56Z</time>
      </trkpt>
      <trkpt lat="46.390672735869884" lon="11.833704672753811">
        <ele>2084.7600000000002</ele>
        <time>2018-03-02T11:15:05Z</time>
      </trkpt>
      <trkpt lat="46.39073166064918" lon="11.833715569227934">
        <ele>2086.1999999999998</ele>
        <time>2018-03-02T11:15:17Z</time>
      </trkpt>
      <trkpt lat="46.390800727531314" lon="11.833736943081021">
        <ele>2088.1199999999999</ele>
        <time>2018-03-02T11:15:28Z</time>
      </trkpt>
      <trkpt lat="46.390837021172047" lon="11.83376032859087">
        <ele>2089.0799999999999</ele>
        <time>2018-03-02T11:15:41Z</time>
      </trkpt>
      <trkpt lat="46.390842385590076" lon="11.833759741857648">
        <ele>2088.5999999999999</ele>
        <time>2018-03-02T11:15:57Z</time>
      </trkpt>
      <trkpt lat="46.390829226002097" lon="11.833766615018249">
        <ele>2089.0799999999999</ele>
        <time>2018-03-02T11:16:14Z</time>
      </trkpt>
      <trkpt lat="46.390842301771045" lon="11.83375840075314">
        <ele>2089.0799999999999</ele>
        <time>2018-03-02T11:16:26Z</time>
      </trkpt>
      <trkpt lat="46.390915643423796" lon="11.833799807354808">
        <ele>2090.52</ele>
        <time>2018-03-02T11:16:36Z</time>
      </trkpt>
      <trkpt lat="46.390998540446162" lon="11.833885805681348">
        <ele>2091.9699999999998</ele>
        <time>2018-03-02T11:16:49Z</time>
      </trkpt>
      <trkpt lat="46.39107272028923" lon="11.833950094878674">
        <ele>2092.4499999999998</ele>
        <time>2018-03-02T11:16:59Z</time>
      </trkpt>
      <trkpt lat="46.391138434410095" lon="11.833994183689356">
        <ele>2092.9299999999998</ele>
        <time>2018-03-02T11:17:10Z</time>
      </trkpt>
      <trkpt lat="46.39123247936368" lon="11.834038440138102">
        <ele>2093.4099999999999</ele>
        <time>2018-03-02T11:17:21Z</time>
      </trkpt>
      <trkpt lat="46.391273299232125" lon="11.834065848961473">
        <ele>2093.4099999999999</ele>
        <time>2018-03-02T11:17:26Z</time>
      </trkpt>
      <trkpt lat="46.391368685290217" lon="11.834113458171487">
        <ele>2093.8899999999999</ele>
        <time>2018-03-02T11:17:38Z</time>
      </trkpt>
      <trkpt lat="46.391451247036457" lon="11.834163246676326">
        <ele>2094.3699999999999</ele>
        <time>2018-03-02T11:17:48Z</time>
      </trkpt>
      <trkpt lat="46.391526684165001" lon="11.834202725440264">
        <ele>2094.3699999999999</ele>
        <time>2018-03-02T11:17:57Z</time>
      </trkpt>
      <trkpt lat="46.39161117374897" lon="11.834252011030912">
        <ele>2094.3699999999999</ele>
        <time>2018-03-02T11:18:08Z</time>
      </trkpt>
      <trkpt lat="46.391684180125594" lon="11.834309427067637">
        <ele>2094.3699999999999</ele>
        <time>2018-03-02T11:18:18Z</time>
      </trkpt>
      <trkpt lat="46.391692729666829" lon="11.834312528371811">
        <ele>2094.8499999999999</ele>
        <time>2018-03-02T11:18:19Z</time>
      </trkpt>
      <trkpt lat="46.391781829297543" lon="11.834392659366131">
        <ele>2095.8099999999999</ele>
        <time>2018-03-02T11:18:31Z</time>
      </trkpt>
      <trkpt lat="46.391842430457473" lon="11.834436077624559">
        <ele>2095.8099999999999</ele>
        <time>2018-03-02T11:18:41Z</time>
      </trkpt>
      <trkpt lat="46.391914850100875" lon="11.834502294659615">
        <ele>2095.8099999999999</ele>
        <time>2018-03-02T11:18:51Z</time>
      </trkpt>
      <trkpt lat="46.391997160390019" lon="11.834607990458608">
        <ele>2095.8099999999999</ele>
        <time>2018-03-02T11:19:03Z</time>
      </trkpt>
      <trkpt lat="46.392020713537931" lon="11.834659622982144">
        <ele>2096.29</ele>
        <time>2018-03-02T11:19:13Z</time>
      </trkpt>
      <trkpt lat="46.392010655254126" lon="11.834651660174131">
        <ele>2095.8099999999999</ele>
        <time>2018-03-02T11:19:28Z</time>
      </trkpt>
      <trkpt lat="46.392041584476829" lon="11.834664400666952">
        <ele>2096.29</ele>
        <time>2018-03-02T11:19:38Z</time>
      </trkpt>
      <trkpt lat="46.392024150118232" lon="11.834694156423211">
        <ele>2095.8099999999999</ele>
        <time>2018-03-02T11:19:48Z</time>
      </trkpt>
      <trkpt lat="46.392023647204041" lon="11.834667921066284">
        <ele>2096.29</ele>
        <time>2018-03-02T11:20:02Z</time>
      </trkpt>
      <trkpt lat="46.39205482788384" lon="11.834689043462276">
        <ele>2096.29</ele>
        <time>2018-03-02T11:20:11Z</time>
      </trkpt>
      <trkpt lat="46.392117105424404" lon="11.834756685420871">
        <ele>2096.29</ele>
        <time>2018-03-02T11:20:19Z</time>
      </trkpt>
      <trkpt lat="46.392184579744935" lon="11.834836062043905">
        <ele>2096.77</ele>
        <time>2018-03-02T11:20:28Z</time>
      </trkpt>
      <trkpt lat="46.392263453453779" lon="11.834924658760428">
        <ele>2096.77</ele>
        <time>2018-03-02T11:20:38Z</time>
      </trkpt>
      <trkpt lat="46.392344255000353" lon="11.835008729249239">
        <ele>2097.73</ele>
        <time>2018-03-02T11:20:49Z</time>
      </trkpt>
      <trkpt lat="46.39241055585444" lon="11.835116352885962">
        <ele>2097.73</ele>
        <time>2018-03-02T11:21:00Z</time>
      </trkpt>
      <trkpt lat="46.392478784546256" lon="11.835193717852235">
        <ele>2097.73</ele>
        <time>2018-03-02T11:21:11Z</time>
      </trkpt>
      <trkpt lat="46.392546007409692" lon="11.835252055898309">
        <ele>2098.21</ele>
        <time>2018-03-02T11:21:22Z</time>
      </trkpt>
      <trkpt lat="46.39258791692555" lon="11.835272507742047">
        <ele>2099.6599999999999</ele>
        <time>2018-03-02T11:21:31Z</time>
      </trkpt>
      <trkpt lat="46.39268271625042" lon="11.835332354530692">
        <ele>2101.0999999999999</ele>
        <time>2018-03-02T11:21:43Z</time>
      </trkpt>
      <trkpt lat="46.392760835587978" lon="11.835397398099303">
        <ele>2101.5799999999999</ele>
        <time>2018-03-02T11:21:53Z</time>
      </trkpt>
      <trkpt lat="46.392836440354586" lon="11.835483480244875">
        <ele>2102.0599999999999</ele>
        <time>2018-03-02T11:22:06Z</time>
      </trkpt>
      <trkpt lat="46.392894526943564" lon="11.835508290678263">
        <ele>2102.54</ele>
        <time>2018-03-02T11:22:17Z</time>
      </trkpt>
      <trkpt lat="46.392950853332877" lon="11.835547601804137">
        <ele>2103.98</ele>
        <time>2018-03-02T11:22:26Z</time>
      </trkpt>
      <trkpt lat="46.393027044832706" lon="11.83560736477375">
        <ele>2104.9400000000001</ele>
        <time>2018-03-02T11:22:38Z</time>
      </trkpt>
      <trkpt lat="46.393098207190633" lon="11.835673749446869">
        <ele>2105.9099999999999</ele>
        <time>2018-03-02T11:22:48Z</time>
      </trkpt>
      <trkpt lat="46.393160987645388" lon="11.83570216409862">
        <ele>2106.8699999999999</ele>
        <time>2018-03-02T11:22:58Z</time>
      </trkpt>
      <trkpt lat="46.393238101154566" lon="11.835758155211806">
        <ele>2108.3099999999999</ele>
        <time>2018-03-02T11:23:11Z</time>
      </trkpt>
      <trkpt lat="46.393310017883778" lon="11.835805093869567">
        <ele>2109.75</ele>
        <time>2018-03-02T11:23:23Z</time>
      </trkpt>
      <trkpt lat="46.393371876329184" lon="11.8358482606709">
        <ele>2111.1900000000001</ele>
        <time>2018-03-02T11:23:34Z</time>
      </trkpt>
      <trkpt lat="46.393431471660733" lon="11.83589075691998">
        <ele>2112.6300000000001</ele>
        <time>2018-03-02T11:23:45Z</time>
      </trkpt>
      <trkpt lat="46.393488636240363" lon="11.835913890972733">
        <ele>2113.5999999999999</ele>
        <time>2018-03-02T11:23:56Z</time>
      </trkpt>
      <trkpt lat="46.393553009256721" lon="11.835973402485251">
        <ele>2115.04</ele>
        <time>2018-03-02T11:24:07Z</time>
      </trkpt>
      <trkpt lat="46.393609503284097" lon="11.836014306172729">
        <ele>2115.52</ele>
        <time>2018-03-02T11:24:16Z</time>
      </trkpt>
      <trkpt lat="46.393679659813643" lon="11.836071806028485">
        <ele>2116.96</ele>
        <time>2018-03-02T11:24:27Z</time>
      </trkpt>
      <trkpt lat="46.393751408904791" lon="11.836133496835828">
        <ele>2117.4400000000001</ele>
        <time>2018-03-02T11:24:38Z</time>
      </trkpt>
      <trkpt lat="46.39384713023901" lon="11.836196780204773">
        <ele>2117.9200000000001</ele>
        <time>2018-03-02T11:24:50Z</time>
      </trkpt>
      <trkpt lat="46.39389113523066" lon="11.836242964491248">
        <ele>2118.4000000000001</ele>
        <time>2018-03-02T11:25:00Z</time>
      </trkpt>
      <trkpt lat="46.393940756097436" lon="11.836284203454852">
        <ele>2118.8800000000001</ele>
        <time>2018-03-02T11:25:10Z</time>
      </trkpt>
      <trkpt lat="46.394002111628652" lon="11.836343882605433">
        <ele>2119.3600000000001</ele>
        <time>2018-03-02T11:25:19Z</time>
      </trkpt>
      <trkpt lat="46.394074279814959" lon="11.836384870111942">
        <ele>2119.8400000000001</ele>
        <time>2018-03-02T11:25:30Z</time>
      </trkpt>
      <trkpt lat="46.394143514335155" lon="11.836451003327966">
        <ele>2120.8099999999999</ele>
        <time>2018-03-02T11:25:40Z</time>
      </trkpt>
      <trkpt lat="46.394247366115451" lon="11.836522668600082">
        <ele>2120.8099999999999</ele>
        <time>2018-03-02T11:25:53Z</time>
      </trkpt>
      <trkpt lat="46.394297322258353" lon="11.836545299738646">
        <ele>2121.77</ele>
        <time>2018-03-02T11:26:01Z</time>
      </trkpt>
      <trkpt lat="46.394379381090403" lon="11.836593663319945">
        <ele>2122.25</ele>
        <time>2018-03-02T11:26:11Z</time>
      </trkpt>
      <trkpt lat="46.394441239535809" lon="11.836644373834133">
        <ele>2123.21</ele>
        <time>2018-03-02T11:26:20Z</time>
      </trkpt>
      <trkpt lat="46.39446722343564" lon="11.836654599756002">
        <ele>2122.73</ele>
        <time>2018-03-02T11:26:23Z</time>
      </trkpt>
      <trkpt lat="46.394551377743483" lon="11.836715200915933">
        <ele>2122.25</ele>
        <time>2018-03-02T11:26:34Z</time>
      </trkpt>
      <trkpt lat="46.394624384120107" lon="11.836776472628117">
        <ele>2122.25</ele>
        <time>2018-03-02T11:26:44Z</time>
      </trkpt>
      <trkpt lat="46.394664281979203" lon="11.836815699934959">
        <ele>2122.25</ele>
        <time>2018-03-02T11:26:50Z</time>
      </trkpt>
      <trkpt lat="46.394713819026947" lon="11.836862722411752">
        <ele>2121.77</ele>
        <time>2018-03-02T11:26:56Z</time>
      </trkpt>
      <trkpt lat="46.394736366346478" lon="11.836885521188378">
        <ele>2122.25</ele>
        <time>2018-03-02T11:27:00Z</time>
      </trkpt>
      <trkpt lat="46.394782466813922" lon="11.83693396858871">
        <ele>2122.73</ele>
        <time>2018-03-02T11:27:08Z</time>
      </trkpt>
      <trkpt lat="46.394858490675688" lon="11.836994821205735">
        <ele>2123.21</ele>
        <time>2018-03-02T11:27:19Z</time>
      </trkpt>
      <trkpt lat="46.394952619448304" lon="11.837081573903561">
        <ele>2124.1700000000001</ele>
        <time>2018-03-02T11:27:32Z</time>
      </trkpt>
      <trkpt lat="46.395035767927766" lon="11.837135469540954">
        <ele>2125.6100000000001</ele>
        <time>2018-03-02T11:27:45Z</time>
      </trkpt>
      <trkpt lat="46.395088573917747" lon="11.837173523381352">
        <ele>2126.5700000000002</ele>
        <time>2018-03-02T11:27:57Z</time>
      </trkpt>
      <trkpt lat="46.395157389342785" lon="11.83725306764245">
        <ele>2127.0500000000002</ele>
        <time>2018-03-02T11:28:09Z</time>
      </trkpt>
      <trkpt lat="46.395242130383849" lon="11.837325906381011">
        <ele>2128.02</ele>
        <time>2018-03-02T11:28:21Z</time>
      </trkpt>
      <trkpt lat="46.395321758463979" lon="11.837410312145948">
        <ele>2129.46</ele>
        <time>2018-03-02T11:28:34Z</time>
      </trkpt>
      <trkpt lat="46.395359979942441" lon="11.837444175034761">
        <ele>2130.4200000000001</ele>
        <time>2018-03-02T11:28:45Z</time>
      </trkpt>
      <trkpt lat="46.395406918600202" lon="11.837487090379">
        <ele>2131.3800000000001</ele>
        <time>2018-03-02T11:28:55Z</time>
      </trkpt>
      <trkpt lat="46.395463496446609" lon="11.83754718862474">
        <ele>2131.8600000000001</ele>
        <time>2018-03-02T11:29:05Z</time>
      </trkpt>
      <trkpt lat="46.395516972988844" lon="11.837589181959629">
        <ele>2132.8200000000002</ele>
        <time>2018-03-02T11:29:15Z</time>
      </trkpt>
      <trkpt lat="46.395580172538757" lon="11.83765078894794">
        <ele>2132.3400000000001</ele>
        <time>2018-03-02T11:29:23Z</time>
      </trkpt>
      <trkpt lat="46.395635409280658" lon="11.83768792077899">
        <ele>2133.3000000000002</ele>
        <time>2018-03-02T11:29:32Z</time>
      </trkpt>
      <trkpt lat="46.395704057067633" lon="11.837752796709538">
        <ele>2134.2600000000002</ele>
        <time>2018-03-02T11:29:43Z</time>
      </trkpt>
      <trkpt lat="46.395718473941088" lon="11.837772661820054">
        <ele>2134.7399999999998</ele>
        <time>2018-03-02T11:29:46Z</time>
      </trkpt>
      <trkpt lat="46.395800951868296" lon="11.837835358455777">
        <ele>2135.23</ele>
        <time>2018-03-02T11:29:57Z</time>
      </trkpt>
      <trkpt lat="46.395824756473303" lon="11.837853128090501">
        <ele>2135.23</ele>
        <time>2018-03-02T11:30:08Z</time>
      </trkpt>
      <trkpt lat="46.395796425640583" lon="11.837844243273139">
        <ele>2135.23</ele>
        <time>2018-03-02T11:30:15Z</time>
      </trkpt>
      <trkpt lat="46.395797850564122" lon="11.837855223566294">
        <ele>2135.23</ele>
        <time>2018-03-02T11:30:27Z</time>
      </trkpt>
      <trkpt lat="46.395869515836239" lon="11.837874334305525">
        <ele>2135.71</ele>
        <time>2018-03-02T11:30:42Z</time>
      </trkpt>
      <trkpt lat="46.395912514999509" lon="11.837919177487493">
        <ele>2136.1900000000001</ele>
        <time>2018-03-02T11:30:50Z</time>
      </trkpt>
      <trkpt lat="46.396005554124713" lon="11.837996793910861">
        <ele>2137.1500000000001</ele>
        <time>2018-03-02T11:31:04Z</time>
      </trkpt>
      <trkpt lat="46.396047798916698" lon="11.838021269068122">
        <ele>2138.5900000000001</ele>
        <time>2018-03-02T11:31:13Z</time>
      </trkpt>
      <trkpt lat="46.396122900769114" lon="11.838077679276466">
        <ele>2139.0700000000002</ele>
        <time>2018-03-02T11:31:23Z</time>
      </trkpt>
      <trkpt lat="46.396199762821198" lon="11.838119253516197">
        <ele>2139.0700000000002</ele>
        <time>2018-03-02T11:31:32Z</time>
      </trkpt>
      <trkpt lat="46.396271679550409" lon="11.838171556591988">
        <ele>2140.0300000000002</ele>
        <time>2018-03-02T11:31:41Z</time>
      </trkpt>
      <trkpt lat="46.396339237689972" lon="11.838238947093487">
        <ele>2140.5100000000002</ele>
        <time>2018-03-02T11:31:52Z</time>
      </trkpt>
      <trkpt lat="46.396392714232206" lon="11.838260572403669">
        <ele>2140.9899999999998</ele>
        <time>2018-03-02T11:32:02Z</time>
      </trkpt>
      <trkpt lat="46.396438227966428" lon="11.838323688134551">
        <ele>2142.4400000000001</ele>
        <time>2018-03-02T11:32:12Z</time>
      </trkpt>
      <trkpt lat="46.396485166624188" lon="11.838357299566269">
        <ele>2142.9200000000001</ele>
        <time>2018-03-02T11:32:21Z</time>
      </trkpt>
      <trkpt lat="46.396515257656574" lon="11.838355287909508">
        <ele>2143.8800000000001</ele>
        <time>2018-03-02T11:32:34Z</time>
      </trkpt>
      <trkpt lat="46.396524058654904" lon="11.838359562680125">
        <ele>2143.8800000000001</ele>
        <time>2018-03-02T11:32:46Z</time>
      </trkpt>
      <trkpt lat="46.39652288518846" lon="11.838480513542891">
        <ele>2143.8800000000001</ele>
        <time>2018-03-02T11:32:57Z</time>
      </trkpt>
      <trkpt lat="46.396572254598141" lon="11.838568020612001">
        <ele>2145.3200000000002</ele>
        <time>2018-03-02T11:33:10Z</time>
      </trkpt>
      <trkpt lat="46.396648529917002" lon="11.838611857965589">
        <ele>2146.7600000000002</ele>
        <time>2018-03-02T11:33:24Z</time>
      </trkpt>
      <trkpt lat="46.396719440817833" lon="11.838671704754233">
        <ele>2148.1999999999998</ele>
        <time>2018-03-02T11:33:36Z</time>
      </trkpt>
      <trkpt lat="46.396777611225843" lon="11.838720487430692">
        <ele>2149.1599999999999</ele>
        <time>2018-03-02T11:33:48Z</time>
      </trkpt>
      <trkpt lat="46.396820778027177" lon="11.838760636746883">
        <ele>2150.6100000000001</ele>
        <time>2018-03-02T11:33:56Z</time>
      </trkpt>
      <trkpt lat="46.396875595673919" lon="11.838823752477765">
        <ele>2151.5700000000002</ele>
        <time>2018-03-02T11:34:06Z</time>
      </trkpt>
      <trkpt lat="46.396914822980762" lon="11.838860800489783">
        <ele>2152.5300000000002</ele>
        <time>2018-03-02T11:34:15Z</time>
      </trkpt>
      <trkpt lat="46.396974921226501" lon="11.83892123401165">
        <ele>2153.9699999999998</ele>
        <time>2018-03-02T11:34:26Z</time>
      </trkpt>
      <trkpt lat="46.397026889026165" lon="11.83896423317492">
        <ele>2155.4099999999999</ele>
        <time>2018-03-02T11:34:37Z</time>
      </trkpt>
      <trkpt lat="46.397082209587097" lon="11.839034473523498">
        <ele>2156.3699999999999</ele>
        <time>2018-03-02T11:34:48Z</time>
      </trkpt>
      <trkpt lat="46.397117832675576" lon="11.839080741629004">
        <ele>2157.3400000000001</ele>
        <time>2018-03-02T11:34:56Z</time>
      </trkpt>
      <trkpt lat="46.397162592038512" lon="11.839090380817652">
        <ele>2158.3000000000002</ele>
        <time>2018-03-02T11:35:06Z</time>
      </trkpt>
      <trkpt lat="46.397187151014805" lon="11.839138744398952">
        <ele>2159.2600000000002</ele>
        <time>2018-03-02T11:35:16Z</time>
      </trkpt>
      <trkpt lat="46.397169884294271" lon="11.839163638651371">
        <ele>2159.2600000000002</ele>
        <time>2018-03-02T11:35:28Z</time>
      </trkpt>
      <trkpt lat="46.397181367501616" lon="11.839124830439687">
        <ele>2158.3000000000002</ele>
        <time>2018-03-02T11:35:41Z</time>
      </trkpt>
      <trkpt lat="46.397171393036842" lon="11.839131033048034">
        <ele>2159.2600000000002</ele>
        <time>2018-03-02T11:35:56Z</time>
      </trkpt>
      <trkpt lat="46.397172315046191" lon="11.839130194857717">
        <ele>2158.7800000000002</ele>
        <time>2018-03-02T11:36:08Z</time>
      </trkpt>
      <trkpt lat="46.397176925092936" lon="11.839159447699785">
        <ele>2159.2600000000002</ele>
        <time>2018-03-02T11:36:23Z</time>
      </trkpt>
      <trkpt lat="46.39717223122716" lon="11.839156933128834">
        <ele>2159.2600000000002</ele>
        <time>2018-03-02T11:36:43Z</time>
      </trkpt>
      <trkpt lat="46.397196957841516" lon="11.83912692591548">
        <ele>2158.7800000000002</ele>
        <time>2018-03-02T11:37:06Z</time>
      </trkpt>
      <trkpt lat="46.397241717204452" lon="11.839168081060052">
        <ele>2159.7399999999998</ele>
        <time>2018-03-02T11:37:14Z</time>
      </trkpt>
      <trkpt lat="46.397296283394098" lon="11.839218959212303">
        <ele>2160.6999999999998</ele>
        <time>2018-03-02T11:37:22Z</time>
      </trkpt>
      <trkpt lat="46.397353950887918" lon="11.839281991124153">
        <ele>2161.6599999999999</ele>
        <time>2018-03-02T11:37:33Z</time>
      </trkpt>
      <trkpt lat="46.397412121295929" lon="11.839324738830328">
        <ele>2163.5799999999999</ele>
        <time>2018-03-02T11:37:45Z</time>
      </trkpt>
      <trkpt lat="46.39747372828424" lon="11.839370336383581">
        <ele>2164.5500000000002</ele>
        <time>2018-03-02T11:37:55Z</time>
      </trkpt>
      <trkpt lat="46.39754606410861" lon="11.839446695521474">
        <ele>2165.9899999999998</ele>
        <time>2018-03-02T11:38:07Z</time>
      </trkpt>
      <trkpt lat="46.397611442953348" lon="11.839496232569218">
        <ele>2167.4299999999998</ele>
        <time>2018-03-02T11:38:20Z</time>
      </trkpt>
      <trkpt lat="46.397661566734314" lon="11.839570077136159">
        <ele>2168.8699999999999</ele>
        <time>2018-03-02T11:38:31Z</time>
      </trkpt>
      <trkpt lat="46.397681683301926" lon="11.839602347463369">
        <ele>2169.3499999999999</ele>
        <time>2018-03-02T11:38:35Z</time>
      </trkpt>
      <trkpt lat="46.397740775719285" lon="11.839650543406606">
        <ele>2170.79</ele>
        <time>2018-03-02T11:38:47Z</time>
      </trkpt>
      <trkpt lat="46.397792156785727" lon="11.839689686894417">
        <ele>2171.7600000000002</ele>
        <time>2018-03-02T11:38:57Z</time>
      </trkpt>
      <trkpt lat="46.397848483175039" lon="11.83979052118957">
        <ele>2173.1999999999998</ele>
        <time>2018-03-02T11:39:08Z</time>
      </trkpt>
      <trkpt lat="46.397891566157341" lon="11.839822120964527">
        <ele>2174.1599999999999</ele>
        <time>2018-03-02T11:39:18Z</time>
      </trkpt>
      <trkpt lat="46.397938085719943" lon="11.839927984401584">
        <ele>2175.1199999999999</ele>
        <time>2018-03-02T11:39:29Z</time>
      </trkpt>
      <trkpt lat="46.397976642474532" lon="11.839992525056005">
        <ele>2176.0799999999999</ele>
        <time>2018-03-02T11:39:41Z</time>
      </trkpt>
      <trkpt lat="46.398037159815431" lon="11.840094197541475">
        <ele>2177.04</ele>
        <time>2018-03-02T11:39:53Z</time>
      </trkpt>
      <trkpt lat="46.39810211956501" lon="11.840196959674358">
        <ele>2177.52</ele>
        <time>2018-03-02T11:40:05Z</time>
      </trkpt>
      <trkpt lat="46.398155763745308" lon="11.840259991586208">
        <ele>2179.9299999999998</ele>
        <time>2018-03-02T11:40:19Z</time>
      </trkpt>
      <trkpt lat="46.398185770958662" lon="11.84032847173512">
        <ele>2181.3699999999999</ele>
        <time>2018-03-02T11:40:30Z</time>
      </trkpt>
      <trkpt lat="46.398231787607074" lon="11.840400472283363">
        <ele>2182.8099999999999</ele>
        <time>2018-03-02T11:40:41Z</time>
      </trkpt>
      <trkpt lat="46.398261291906238" lon="11.840490074828267">
        <ele>2185.21</ele>
        <time>2018-03-02T11:40:52Z</time>
      </trkpt>
      <trkpt lat="46.398318456485868" lon="11.84059040620923">
        <ele>2185.21</ele>
        <time>2018-03-02T11:41:04Z</time>
      </trkpt>
      <trkpt lat="46.398346116766334" lon="11.840647906064987">
        <ele>2186.6599999999999</ele>
        <time>2018-03-02T11:41:16Z</time>
      </trkpt>
      <trkpt lat="46.398362126201391" lon="11.840689647942781">
        <ele>2187.1399999999999</ele>
        <time>2018-03-02T11:41:21Z</time>
      </trkpt>
      <trkpt lat="46.398394145071507" lon="11.840732479467988">
        <ele>2188.5799999999999</ele>
        <time>2018-03-02T11:41:30Z</time>
      </trkpt>
      <trkpt lat="46.398438569158316" lon="11.840819818899035">
        <ele>2190.02</ele>
        <time>2018-03-02T11:41:41Z</time>
      </trkpt>
      <trkpt lat="46.398475114256144" lon="11.840940853580832">
        <ele>2191.46</ele>
        <time>2018-03-02T11:41:55Z</time>
      </trkpt>
      <trkpt lat="46.398515598848462" lon="11.841019140556455">
        <ele>2192.4200000000001</ele>
        <time>2018-03-02T11:42:07Z</time>
      </trkpt>
      <trkpt lat="46.398531859740615" lon="11.841146964579821">
        <ele>2192.9000000000001</ele>
        <time>2018-03-02T11:42:18Z</time>
      </trkpt>
      <trkpt lat="46.398550719022751" lon="11.841250732541084">
        <ele>2193.8699999999999</ele>
        <time>2018-03-02T11:42:30Z</time>
      </trkpt>
      <trkpt lat="46.398553401231766" lon="11.841261461377144">
        <ele>2193.8699999999999</ele>
        <time>2018-03-02T11:42:31Z</time>
      </trkpt>
      <trkpt lat="46.398592796176672" lon="11.841394565999508">
        <ele>2194.8299999999999</ele>
        <time>2018-03-02T11:42:44Z</time>
      </trkpt>
      <trkpt lat="46.39864937402308" lon="11.841480312868953">
        <ele>2195.3099999999999</ele>
        <time>2018-03-02T11:42:58Z</time>
      </trkpt>
      <trkpt lat="46.398703185841441" lon="11.841587768867612">
        <ele>2196.27</ele>
        <time>2018-03-02T11:43:11Z</time>
      </trkpt>
      <trkpt lat="46.398691451177001" lon="11.841562706977129">
        <ele>2196.27</ele>
        <time>2018-03-02T11:43:20Z</time>
      </trkpt>
      <trkpt lat="46.398700587451458" lon="11.841563461348414">
        <ele>2196.27</ele>
        <time>2018-03-02T11:43:41Z</time>
      </trkpt>
      <trkpt lat="46.398699078708887" lon="11.841561030596495">
        <ele>2196.75</ele>
        <time>2018-03-02T11:43:54Z</time>
      </trkpt>
      <trkpt lat="46.398709053173661" lon="11.841576034203172">
        <ele>2196.75</ele>
        <time>2018-03-02T11:44:02Z</time>
      </trkpt>
      <trkpt lat="46.398699330165982" lon="11.841602521017194">
        <ele>2196.27</ele>
        <time>2018-03-02T11:44:16Z</time>
      </trkpt>
      <trkpt lat="46.398724894970655" lon="11.841673264279962">
        <ele>2197.71</ele>
        <time>2018-03-02T11:44:26Z</time>
      </trkpt>
      <trkpt lat="46.39877250418067" lon="11.841740068048239">
        <ele>2198.6700000000001</ele>
        <time>2018-03-02T11:44:39Z</time>
      </trkpt>
      <trkpt lat="46.398820783942938" lon="11.841868897899985">
        <ele>2200.1100000000001</ele>
        <time>2018-03-02T11:44:53Z</time>
      </trkpt>
      <trkpt lat="46.398848192766309" lon="11.841933270916343">
        <ele>2201.0799999999999</ele>
        <time>2018-03-02T11:45:03Z</time>
      </trkpt>
      <trkpt lat="46.398873757570982" lon="11.842023963108659">
        <ele>2202.52</ele>
        <time>2018-03-02T11:45:14Z</time>
      </trkpt>
      <trkpt lat="46.398912984877825" lon="11.842078026384115">
        <ele>2203.96</ele>
        <time>2018-03-02T11:45:25Z</time>
      </trkpt>
      <trkpt lat="46.398950116708875" lon="11.842159498482943">
        <ele>2204.9200000000001</ele>
        <time>2018-03-02T11:45:36Z</time>
      </trkpt>
      <trkpt lat="46.398984733968973" lon="11.842232085764408">
        <ele>2205.4000000000001</ele>
        <time>2018-03-02T11:45:47Z</time>
      </trkpt>
      <trkpt lat="46.399010885506868" lon="11.84232646599412">
        <ele>2206.3600000000001</ele>
        <time>2018-03-02T11:45:58Z</time>
      </trkpt>
      <trkpt lat="46.399025972932577" lon="11.842401903122663">
        <ele>2207.3200000000002</ele>
        <time>2018-03-02T11:46:09Z</time>
      </trkpt>
      <trkpt lat="46.399023206904531" lon="11.842393772676587">
        <ele>2206.8400000000001</ele>
        <time>2018-03-02T11:46:30Z</time>
      </trkpt>
      <trkpt lat="46.399048268795013" lon="11.842454625293612">
        <ele>2207.3200000000002</ele>
        <time>2018-03-02T11:46:38Z</time>
      </trkpt>
      <trkpt lat="46.399095458909869" lon="11.842515310272574">
        <ele>2208.29</ele>
        <time>2018-03-02T11:46:48Z</time>
      </trkpt>
      <trkpt lat="46.399123203009367" lon="11.842512376606464">
        <ele>2209.25</ele>
        <time>2018-03-02T11:46:56Z</time>
      </trkpt>
      <trkpt lat="46.399096129462123" lon="11.842509359121323">
        <ele>2208.77</ele>
        <time>2018-03-02T11:47:08Z</time>
      </trkpt>
      <trkpt lat="46.399117587134242" lon="11.842524530366063">
        <ele>2207.8099999999999</ele>
        <time>2018-03-02T11:47:15Z</time>
      </trkpt>
      <trkpt lat="46.399135356768966" lon="11.842512544244528">
        <ele>2207.8099999999999</ele>
        <time>2018-03-02T11:47:41Z</time>
      </trkpt>
      <trkpt lat="46.399132590740919" lon="11.842545149847865">
        <ele>2207.8099999999999</ele>
        <time>2018-03-02T11:48:07Z</time>
      </trkpt>
      <trkpt lat="46.39912630431354" lon="11.842543305829167">
        <ele>2208.29</ele>
        <time>2018-03-02T11:48:31Z</time>
      </trkpt>
      <trkpt lat="46.399122029542923" lon="11.842547245323658">
        <ele>2208.77</ele>
        <time>2018-03-02T11:48:46Z</time>
      </trkpt>
      <trkpt lat="46.399112390354276" lon="11.842537606135011">
        <ele>2208.77</ele>
        <time>2018-03-02T11:49:00Z</time>
      </trkpt>
      <trkpt lat="46.399113731458783" lon="11.842550178989768">
        <ele>2208.77</ele>
        <time>2018-03-02T11:49:19Z</time>
      </trkpt>
      <trkpt lat="46.399114402011037" lon="11.842552945017815">
        <ele>2207.3200000000002</ele>
        <time>2018-03-02T11:49:21Z</time>
      </trkpt>
      <trkpt lat="46.399112809449434" lon="11.842561662197113">
        <ele>2207.8099999999999</ele>
        <time>2018-03-02T11:49:47Z</time>
      </trkpt>
      <trkpt lat="46.399111971259117" lon="11.842554369941354">
        <ele>2208.29</ele>
        <time>2018-03-02T11:50:03Z</time>
      </trkpt>
      <trkpt lat="46.399109205231071" lon="11.842529140412807">
        <ele>2208.77</ele>
        <time>2018-03-02T11:50:10Z</time>
      </trkpt>
      <trkpt lat="46.399100823327899" lon="11.842518243938684">
        <ele>2208.77</ele>
        <time>2018-03-02T11:50:27Z</time>
      </trkpt>
      <trkpt lat="46.399099230766296" lon="11.842532996088266">
        <ele>2208.77</ele>
        <time>2018-03-02T11:50:41Z</time>
      </trkpt>
      <trkpt lat="46.399102164432406" lon="11.842540204524994">
        <ele>2208.77</ele>
        <time>2018-03-02T11:50:58Z</time>
      </trkpt>
      <trkpt lat="46.399121526628733" lon="11.842538360506296">
        <ele>2208.29</ele>
        <time>2018-03-02T11:51:11Z</time>
      </trkpt>
      <trkpt lat="46.39910819940269" lon="11.842536767944694">
        <ele>2208.77</ele>
        <time>2018-03-02T11:51:22Z</time>
      </trkpt>
      <trkpt lat="46.399107361212373" lon="11.842514639720321">
        <ele>2208.77</ele>
        <time>2018-03-02T11:51:40Z</time>
      </trkpt>
      <trkpt lat="46.399096129462123" lon="11.842498295009136">
        <ele>2208.77</ele>
        <time>2018-03-02T11:52:02Z</time>
      </trkpt>
      <trkpt lat="46.399107612669468" lon="11.842540455982089">
        <ele>2208.77</ele>
        <time>2018-03-02T11:52:18Z</time>
      </trkpt>
      <trkpt lat="46.399098560214043" lon="11.842515897005796">
        <ele>2208.77</ele>
        <time>2018-03-02T11:52:38Z</time>
      </trkpt>
      <trkpt lat="46.399107528850436" lon="11.842511706054211">
        <ele>2208.77</ele>
        <time>2018-03-02T11:53:04Z</time>
      </trkpt>
      <trkpt lat="46.399109708145261" lon="11.842510867863894">
        <ele>2208.77</ele>
        <time>2018-03-02T11:53:23Z</time>
      </trkpt>
      <trkpt lat="46.399101996794343" lon="11.842513214796782">
        <ele>2208.77</ele>
        <time>2018-03-02T11:53:42Z</time>
      </trkpt>
      <trkpt lat="46.399096045643091" lon="11.842517321929336">
        <ele>2208.77</ele>
        <time>2018-03-02T11:54:02Z</time>
      </trkpt>
      <trkpt lat="46.399100236594677" lon="11.842513885349035">
        <ele>2208.29</ele>
        <time>2018-03-02T11:54:24Z</time>
      </trkpt>
      <trkpt lat="46.399089423939586" lon="11.842499971389771">
        <ele>2208.29</ele>
        <time>2018-03-02T11:54:49Z</time>
      </trkpt>
      <trkpt lat="46.399101410061121" lon="11.84253710322082">
        <ele>2208.29</ele>
        <time>2018-03-02T11:55:04Z</time>
      </trkpt>
      <trkpt lat="46.399096129462123" lon="11.842543222010136">
        <ele>2208.29</ele>
        <time>2018-03-02T11:55:26Z</time>
      </trkpt>
      <trkpt lat="46.399095961824059" lon="11.842534253373742">
        <ele>2207.8099999999999</ele>
        <time>2018-03-02T11:55:50Z</time>
      </trkpt>
      <trkpt lat="46.399084897711873" lon="11.842551184818149">
        <ele>2208.29</ele>
        <time>2018-03-02T11:56:13Z</time>
      </trkpt>
      <trkpt lat="46.399100488051772" lon="11.842517154291272">
        <ele>2208.29</ele>
        <time>2018-03-02T11:56:40Z</time>
      </trkpt>
      <trkpt lat="46.3990886695683" lon="11.84250726364553">
        <ele>2207.8099999999999</ele>
        <time>2018-03-02T11:56:54Z</time>
      </trkpt>
      <trkpt lat="46.399087077006698" lon="11.842505671083927">
        <ele>2209.25</ele>
        <time>2018-03-02T11:57:00Z</time>
      </trkpt>
      <trkpt lat="46.399096213281155" lon="11.842504246160388">
        <ele>2207.8099999999999</ele>
        <time>2018-03-02T11:57:10Z</time>
      </trkpt>
      <trkpt lat="46.399096213281155" lon="11.842510113492608">
        <ele>2207.8099999999999</ele>
        <time>2018-03-02T11:57:28Z</time>
      </trkpt>
      <trkpt lat="46.399091519415379" lon="11.842507515102625">
        <ele>2207.8099999999999</ele>
        <time>2018-03-02T11:57:46Z</time>
      </trkpt>
      <trkpt lat="46.399088501930237" lon="11.842516399919987">
        <ele>2207.8099999999999</ele>
        <time>2018-03-02T11:58:01Z</time>
      </trkpt>
      <trkpt lat="46.399112138897181" lon="11.842550598084927">
        <ele>2207.8099999999999</ele>
        <time>2018-03-02T11:58:16Z</time>
      </trkpt>
      <trkpt lat="46.399133345112205" lon="11.842561829835176">
        <ele>2207.8099999999999</ele>
        <time>2018-03-02T11:58:19Z</time>
      </trkpt>
      <trkpt lat="46.39916343614459" lon="11.842616982758045">
        <ele>2209.73</ele>
        <time>2018-03-02T11:58:28Z</time>
      </trkpt>
      <trkpt lat="46.399188665673137" lon="11.842660903930664">
        <ele>2210.6900000000001</ele>
        <time>2018-03-02T11:58:37Z</time>
      </trkpt>
      <trkpt lat="46.399215068668127" lon="11.842696610838175">
        <ele>2212.1300000000001</ele>
        <time>2018-03-02T11:58:45Z</time>
      </trkpt>
      <trkpt lat="46.39925379306078" lon="11.842750003561378">
        <ele>2214.0500000000002</ele>
        <time>2018-03-02T11:58:54Z</time>
      </trkpt>
      <trkpt lat="46.399301569908857" lon="11.842789901420474">
        <ele>2215.5</ele>
        <time>2018-03-02T11:59:05Z</time>
      </trkpt>
      <trkpt lat="46.399330403655767" lon="11.84284245595336">
        <ele>2217.4200000000001</ele>
        <time>2018-03-02T11:59:16Z</time>
      </trkpt>
      <trkpt lat="46.399351442232728" lon="11.842902805656195">
        <ele>2218.3800000000001</ele>
        <time>2018-03-02T11:59:25Z</time>
      </trkpt>
      <trkpt lat="46.399365775287151" lon="11.842957539483905">
        <ele>2219.8200000000002</ele>
        <time>2018-03-02T11:59:34Z</time>
      </trkpt>
      <trkpt lat="46.399383544921875" lon="11.843025432899594">
        <ele>2220.7800000000002</ele>
        <time>2018-03-02T11:59:44Z</time>
      </trkpt>
      <trkpt lat="46.399408271536231" lon="11.843077149242163">
        <ele>2221.7399999999998</ele>
        <time>2018-03-02T11:59:54Z</time>
      </trkpt>
      <trkpt lat="46.399439619854093" lon="11.84316105209291">
        <ele>2223.1900000000001</ele>
        <time>2018-03-02T12:00:05Z</time>
      </trkpt>
      <trkpt lat="46.399470465257764" lon="11.843218132853508">
        <ele>2224.1500000000001</ele>
        <time>2018-03-02T12:00:15Z</time>
      </trkpt>
      <trkpt lat="46.399505920708179" lon="11.843280913308263">
        <ele>2225.5900000000001</ele>
        <time>2018-03-02T12:00:26Z</time>
      </trkpt>
      <trkpt lat="46.399536933749914" lon="11.843336904421449">
        <ele>2226.5500000000002</ele>
        <time>2018-03-02T12:00:36Z</time>
      </trkpt>
      <trkpt lat="46.399571802467108" lon="11.84339851140976">
        <ele>2227.5100000000002</ele>
        <time>2018-03-02T12:00:46Z</time>
      </trkpt>
      <trkpt lat="46.399608599022031" lon="11.843452323228121">
        <ele>2228.9499999999998</ele>
        <time>2018-03-02T12:00:56Z</time>
      </trkpt>
      <trkpt lat="46.399652687832713" lon="11.843494232743979">
        <ele>2230.4000000000001</ele>
        <time>2018-03-02T12:01:07Z</time>
      </trkpt>
      <trkpt lat="46.3996965251863" lon="11.843545697629452">
        <ele>2231.8400000000001</ele>
        <time>2018-03-02T12:01:19Z</time>
      </trkpt>
      <trkpt lat="46.399723682552576" lon="11.843592887744308">
        <ele>2233.7600000000002</ele>
        <time>2018-03-02T12:01:29Z</time>
      </trkpt>
      <trkpt lat="46.399763077497482" lon="11.843646196648479">
        <ele>2235.1999999999998</ele>
        <time>2018-03-02T12:01:40Z</time>
      </trkpt>
      <trkpt lat="46.399784786626697" lon="11.843701517209411">
        <ele>2236.6399999999999</ele>
        <time>2018-03-02T12:01:50Z</time>
      </trkpt>
      <trkpt lat="46.399819822981954" lon="11.84376010671258">
        <ele>2238.0900000000001</ele>
        <time>2018-03-02T12:02:01Z</time>
      </trkpt>
      <trkpt lat="46.399852596223354" lon="11.843803776428103">
        <ele>2239.0500000000002</ele>
        <time>2018-03-02T12:02:11Z</time>
      </trkpt>
      <trkpt lat="46.399865169078112" lon="11.843873932957649">
        <ele>2240.4899999999998</ele>
        <time>2018-03-02T12:02:20Z</time>
      </trkpt>
      <trkpt lat="46.399862905964255" lon="11.84394970536232">
        <ele>2240.9699999999998</ele>
        <time>2018-03-02T12:02:30Z</time>
      </trkpt>
      <trkpt lat="46.399876903742552" lon="11.84401273727417">
        <ele>2242.4099999999999</ele>
        <time>2018-03-02T12:02:41Z</time>
      </trkpt>
      <trkpt lat="46.399872796609998" lon="11.844091610983014">
        <ele>2243.8499999999999</ele>
        <time>2018-03-02T12:02:51Z</time>
      </trkpt>
      <trkpt lat="46.399864498525858" lon="11.844177609309554">
        <ele>2245.3000000000002</ele>
        <time>2018-03-02T12:03:03Z</time>
      </trkpt>
      <trkpt lat="46.399851003661752" lon="11.844250448048115">
        <ele>2246.7399999999998</ele>
        <time>2018-03-02T12:03:14Z</time>
      </trkpt>
      <trkpt lat="46.399833988398314" lon="11.844310462474823">
        <ele>2248.1799999999998</ele>
        <time>2018-03-02T12:03:26Z</time>
      </trkpt>
      <trkpt lat="46.399805909022689" lon="11.844385312870145">
        <ele>2249.6199999999999</ele>
        <time>2018-03-02T12:03:37Z</time>
      </trkpt>
      <trkpt lat="46.399799538776278" lon="11.844441303983331">
        <ele>2250.5799999999999</ele>
        <time>2018-03-02T12:03:46Z</time>
      </trkpt>
      <trkpt lat="46.399782858788967" lon="11.844496456906199">
        <ele>2252.0300000000002</ele>
        <time>2018-03-02T12:03:55Z</time>
      </trkpt>
      <trkpt lat="46.399782355874777" lon="11.844533756375313">
        <ele>2252.9899999999998</ele>
        <time>2018-03-02T12:04:04Z</time>
      </trkpt>
      <trkpt lat="46.399775734171271" lon="11.84458346106112">
        <ele>2253.9499999999998</ele>
        <time>2018-03-02T12:04:13Z</time>
      </trkpt>
      <trkpt lat="46.399778667837381" lon="11.844636434689164">
        <ele>2255.3899999999999</ele>
        <time>2018-03-02T12:04:23Z</time>
      </trkpt>
      <trkpt lat="46.399781769141555" lon="11.844712123274803">
        <ele>2255.8699999999999</ele>
        <time>2018-03-02T12:04:34Z</time>
      </trkpt>
      <trkpt lat="46.399761568754911" lon="11.844785297289491">
        <ele>2257.3099999999999</ele>
        <time>2018-03-02T12:04:43Z</time>
      </trkpt>
      <trkpt lat="46.399779925122857" lon="11.844826200976968">
        <ele>2257.79</ele>
        <time>2018-03-02T12:04:52Z</time>
      </trkpt>
      <trkpt lat="46.399812530726194" lon="11.844850508496165">
        <ele>2258.75</ele>
        <time>2018-03-02T12:05:01Z</time>
      </trkpt>
      <trkpt lat="46.399847315624356" lon="11.84488395228982">
        <ele>2259.7199999999998</ele>
        <time>2018-03-02T12:05:10Z</time>
      </trkpt>
      <trkpt lat="46.399884279817343" lon="11.844907673075795">
        <ele>2260.6799999999998</ele>
        <time>2018-03-02T12:05:19Z</time>
      </trkpt>
      <trkpt lat="46.39993398450315" lon="11.844945643097162">
        <ele>2261.6399999999999</ele>
        <time>2018-03-02T12:05:28Z</time>
      </trkpt>
      <trkpt lat="46.399976396933198" lon="11.844998700544238">
        <ele>2261.6399999999999</ele>
        <time>2018-03-02T12:05:37Z</time>
      </trkpt>
      <trkpt lat="46.400015372782946" lon="11.845102300867438">
        <ele>2262.1199999999999</ele>
        <time>2018-03-02T12:05:50Z</time>
      </trkpt>
      <trkpt lat="46.40005468390882" lon="11.845209253951907">
        <ele>2262.5999999999999</ele>
        <time>2018-03-02T12:06:03Z</time>
      </trkpt>
      <trkpt lat="46.400090139359236" lon="11.84529391117394">
        <ele>2263.5599999999999</ele>
        <time>2018-03-02T12:06:14Z</time>
      </trkpt>
      <trkpt lat="46.400135150179267" lon="11.845378233119845">
        <ele>2264.52</ele>
        <time>2018-03-02T12:06:25Z</time>
      </trkpt>
      <trkpt lat="46.400170857086778" lon="11.845448389649391">
        <ele>2265.48</ele>
        <time>2018-03-02T12:06:36Z</time>
      </trkpt>
      <trkpt lat="46.400197511538863" lon="11.845545871183276">
        <ele>2266.4499999999998</ele>
        <time>2018-03-02T12:06:46Z</time>
      </trkpt>
      <trkpt lat="46.400236487388611" lon="11.845629941672087">
        <ele>2267.8899999999999</ele>
        <time>2018-03-02T12:06:58Z</time>
      </trkpt>
      <trkpt lat="46.400259621441364" lon="11.845698254182935">
        <ele>2269.3299999999999</ele>
        <time>2018-03-02T12:07:08Z</time>
      </trkpt>
      <trkpt lat="46.400291305035353" lon="11.845754412934184">
        <ele>2269.8099999999999</ele>
        <time>2018-03-02T12:07:18Z</time>
      </trkpt>
      <trkpt lat="46.400317037478089" lon="11.845813170075417">
        <ele>2270.77</ele>
        <time>2018-03-02T12:07:27Z</time>
      </trkpt>
      <trkpt lat="46.400334471836686" lon="11.845917105674744">
        <ele>2271.73</ele>
        <time>2018-03-02T12:07:40Z</time>
      </trkpt>
      <trkpt lat="46.400357019156218" lon="11.846002014353871">
        <ele>2273.1700000000001</ele>
        <time>2018-03-02T12:07:51Z</time>
      </trkpt>
      <trkpt lat="46.400374369695783" lon="11.846075439825654">
        <ele>2274.1399999999999</ele>
        <time>2018-03-02T12:08:02Z</time>
      </trkpt>
      <trkpt lat="46.400361210107803" lon="11.84616512618959">
        <ele>2275.5799999999999</ele>
        <time>2018-03-02T12:08:13Z</time>
      </trkpt>
      <trkpt lat="46.400362467393279" lon="11.846223128959537">
        <ele>2277.02</ele>
        <time>2018-03-02T12:08:22Z</time>
      </trkpt>
      <trkpt lat="46.400368502363563" lon="11.846282137557864">
        <ele>2278.46</ele>
        <time>2018-03-02T12:08:31Z</time>
      </trkpt>
      <trkpt lat="46.400389708578587" lon="11.846333015710115">
        <ele>2279.4200000000001</ele>
        <time>2018-03-02T12:08:41Z</time>
      </trkpt>
      <trkpt lat="46.400414099916816" lon="11.846359502524137">
        <ele>2280.8699999999999</ele>
        <time>2018-03-02T12:08:49Z</time>
      </trkpt>
      <trkpt lat="46.400442682206631" lon="11.846357909962535">
        <ele>2281.3499999999999</ele>
        <time>2018-03-02T12:08:57Z</time>
      </trkpt>
      <trkpt lat="46.400419631972909" lon="11.846355143934488">
        <ele>2282.79</ele>
        <time>2018-03-02T12:09:09Z</time>
      </trkpt>
      <trkpt lat="46.400420973077416" lon="11.846382804214954">
        <ele>2281.8299999999999</ele>
        <time>2018-03-02T12:09:24Z</time>
      </trkpt>
      <trkpt lat="46.400439077988267" lon="11.846368974074721">
        <ele>2282.3099999999999</ele>
        <time>2018-03-02T12:09:47Z</time>
      </trkpt>
      <trkpt lat="46.400492219254375" lon="11.846341313794255">
        <ele>2284.23</ele>
        <time>2018-03-02T12:09:57Z</time>
      </trkpt>
      <trkpt lat="46.400530859827995" lon="11.846350617706776">
        <ele>2285.1900000000001</ele>
        <time>2018-03-02T12:10:05Z</time>
      </trkpt>
      <trkpt lat="46.400573439896107" lon="11.846344415098429">
        <ele>2286.6300000000001</ele>
        <time>2018-03-02T12:10:15Z</time>
      </trkpt>
      <trkpt lat="46.400633035227656" lon="11.84636352583766">
        <ele>2288.5599999999999</ele>
        <time>2018-03-02T12:10:27Z</time>
      </trkpt>
      <trkpt lat="46.400667987763882" lon="11.846422199159861">
        <ele>2290</ele>
        <time>2018-03-02T12:10:37Z</time>
      </trkpt>
      <trkpt lat="46.40068156644702" lon="11.846481123939157">
        <ele>2291.4400000000001</ele>
        <time>2018-03-02T12:10:47Z</time>
      </trkpt>
      <trkpt lat="46.400708975270391" lon="11.846507778391242">
        <ele>2292.4000000000001</ele>
        <time>2018-03-02T12:10:56Z</time>
      </trkpt>
      <trkpt lat="46.400744933634996" lon="11.846544742584229">
        <ele>2293.8400000000001</ele>
        <time>2018-03-02T12:11:06Z</time>
      </trkpt>
      <trkpt lat="46.400778125971556" lon="11.846581790596247">
        <ele>2294.8000000000002</ele>
        <time>2018-03-02T12:11:16Z</time>
      </trkpt>
      <trkpt lat="46.400802433490753" lon="11.846638200804591">
        <ele>2296.73</ele>
        <time>2018-03-02T12:11:27Z</time>
      </trkpt>
      <trkpt lat="46.400814671069384" lon="11.846697041764855">
        <ele>2297.6900000000001</ele>
        <time>2018-03-02T12:11:37Z</time>
      </trkpt>
      <trkpt lat="46.400805115699768" lon="11.84676862321794">
        <ele>2298.6500000000001</ele>
        <time>2018-03-02T12:11:46Z</time>
      </trkpt>
      <trkpt lat="46.400803523138165" lon="11.846837271004915">
        <ele>2300.0900000000001</ele>
        <time>2018-03-02T12:11:57Z</time>
      </trkpt>
      <trkpt lat="46.400809977203608" lon="11.846898458898067">
        <ele>2301.5300000000002</ele>
        <time>2018-03-02T12:12:06Z</time>
      </trkpt>
      <trkpt lat="46.400833278894424" lon="11.846971465274692">
        <ele>2302.4899999999998</ele>
        <time>2018-03-02T12:12:16Z</time>
      </trkpt>
      <trkpt lat="46.400864291936159" lon="11.847041705623269">
        <ele>2303.9400000000001</ele>
        <time>2018-03-02T12:12:28Z</time>
      </trkpt>
      <trkpt lat="46.400896646082401" lon="11.847128961235285">
        <ele>2304.9000000000001</ele>
        <time>2018-03-02T12:12:39Z</time>
      </trkpt>
      <trkpt lat="46.400908883661032" lon="11.847219150513411">
        <ele>2304.4200000000001</ele>
        <time>2018-03-02T12:12:50Z</time>
      </trkpt>
      <trkpt lat="46.400866471230984" lon="11.847289307042956">
        <ele>2305.8600000000001</ele>
        <time>2018-03-02T12:13:01Z</time>
      </trkpt>
      <trkpt lat="46.400838140398264" lon="11.847328282892704">
        <ele>2306.8200000000002</ele>
        <time>2018-03-02T12:13:10Z</time>
      </trkpt>
      <trkpt lat="46.400807043537498" lon="11.847383519634604">
        <ele>2307.7800000000002</ele>
        <time>2018-03-02T12:13:21Z</time>
      </trkpt>
      <trkpt lat="46.400766642764211" lon="11.847408916801214">
        <ele>2308.7399999999998</ele>
        <time>2018-03-02T12:13:31Z</time>
      </trkpt>
      <trkpt lat="46.400763960555196" lon="11.847438756376505">
        <ele>2309.2199999999998</ele>
        <time>2018-03-02T12:13:42Z</time>
      </trkpt>
      <trkpt lat="46.400739317759871" lon="11.847499189898372">
        <ele>2311.1500000000001</ele>
        <time>2018-03-02T12:13:53Z</time>
      </trkpt>
      <trkpt lat="46.400717021897435" lon="11.847545374184847">
        <ele>2312.1100000000001</ele>
        <time>2018-03-02T12:14:04Z</time>
      </trkpt>
      <trkpt lat="46.400690199807286" lon="11.84758024290204">
        <ele>2313.0700000000002</ele>
        <time>2018-03-02T12:14:13Z</time>
      </trkpt>
      <trkpt lat="46.400683661922812" lon="11.847611591219902">
        <ele>2313.5500000000002</ele>
        <time>2018-03-02T12:14:24Z</time>
      </trkpt>
      <trkpt lat="46.400667233392596" lon="11.847653836011887">
        <ele>2314.5100000000002</ele>
        <time>2018-03-02T12:14:33Z</time>
      </trkpt>
      <trkpt lat="46.400645943358541" lon="11.847707647830248">
        <ele>2315.4699999999998</ele>
        <time>2018-03-02T12:14:42Z</time>
      </trkpt>
      <trkpt lat="46.400664215907454" lon="11.847766824066639">
        <ele>2316.9099999999999</ele>
        <time>2018-03-02T12:14:52Z</time>
      </trkpt>
      <trkpt lat="46.400663796812296" lon="11.847810242325068">
        <ele>2317.8800000000001</ele>
        <time>2018-03-02T12:15:01Z</time>
      </trkpt>
      <trkpt lat="46.400663712993264" lon="11.847772020846605">
        <ele>2317.8800000000001</ele>
        <time>2018-03-02T12:15:11Z</time>
      </trkpt>
      <trkpt lat="46.400681650266051" lon="11.847848799079657">
        <ele>2318.8400000000001</ele>
        <time>2018-03-02T12:15:22Z</time>
      </trkpt>
      <trkpt lat="46.400698414072394" lon="11.847883583977818">
        <ele>2319.8000000000002</ele>
        <time>2018-03-02T12:15:31Z</time>
      </trkpt>
      <trkpt lat="46.400693217292428" lon="11.847915351390839">
        <ele>2320.2800000000002</ele>
        <time>2018-03-02T12:15:41Z</time>
      </trkpt>
      <trkpt lat="46.400680392980576" lon="11.847928427159786">
        <ele>2320.2800000000002</ele>
        <time>2018-03-02T12:16:00Z</time>
      </trkpt>
      <trkpt lat="46.40068206936121" lon="11.847969330847263">
        <ele>2320.2800000000002</ele>
        <time>2018-03-02T12:16:10Z</time>
      </trkpt>
      <trkpt lat="46.400678046047688" lon="11.848001768812537">
        <ele>2319.8000000000002</ele>
        <time>2018-03-02T12:16:13Z</time>
      </trkpt>
      <trkpt lat="46.400687769055367" lon="11.848137388005853">
        <ele>2320.7600000000002</ele>
        <time>2018-03-02T12:16:25Z</time>
      </trkpt>
      <trkpt lat="46.400709142908454" lon="11.848242832347751">
        <ele>2321.2399999999998</ele>
        <time>2018-03-02T12:16:36Z</time>
      </trkpt>
      <trkpt lat="46.400729343295097" lon="11.848324807360768">
        <ele>2321.7199999999998</ele>
        <time>2018-03-02T12:16:44Z</time>
      </trkpt>
      <trkpt lat="46.400755746290088" lon="11.848425138741732">
        <ele>2321.7199999999998</ele>
        <time>2018-03-02T12:16:54Z</time>
      </trkpt>
      <trkpt lat="46.40078759752214" lon="11.848559752106667">
        <ele>2321.7199999999998</ele>
        <time>2018-03-02T12:17:05Z</time>
      </trkpt>
      <trkpt lat="46.4007861725986" lon="11.848643152043223">
        <ele>2322.1999999999998</ele>
        <time>2018-03-02T12:17:15Z</time>
      </trkpt>
      <trkpt lat="46.400763625279069" lon="11.848810706287622">
        <ele>2322.1999999999998</ele>
        <time>2018-03-02T12:17:27Z</time>
      </trkpt>
      <trkpt lat="46.40072850510478" lon="11.848959568887949">
        <ele>2322.1999999999998</ele>
        <time>2018-03-02T12:17:39Z</time>
      </trkpt>
      <trkpt lat="46.400690702721477" lon="11.849062750115991">
        <ele>2323.1599999999999</ele>
        <time>2018-03-02T12:17:50Z</time>
      </trkpt>
      <trkpt lat="46.400669161230326" lon="11.849166015163064">
        <ele>2324.6100000000001</ele>
        <time>2018-03-02T12:18:01Z</time>
      </trkpt>
      <trkpt lat="46.400712328031659" lon="11.849148496985435">
        <ele>2325.5700000000002</ele>
        <time>2018-03-02T12:18:10Z</time>
      </trkpt>
      <trkpt lat="46.40076463110745" lon="11.849148748442531">
        <ele>2327.0100000000002</ele>
        <time>2018-03-02T12:18:19Z</time>
      </trkpt>
      <trkpt lat="46.400795727968216" lon="11.849210020154715">
        <ele>2327.9699999999998</ele>
        <time>2018-03-02T12:18:29Z</time>
      </trkpt>
      <trkpt lat="46.400802852585912" lon="11.849270286038518">
        <ele>2328.9299999999998</ele>
        <time>2018-03-02T12:18:38Z</time>
      </trkpt>
      <trkpt lat="46.400801343843341" lon="11.849251929670572">
        <ele>2328.9299999999998</ele>
        <time>2018-03-02T12:18:45Z</time>
      </trkpt>
      <trkpt lat="46.400784831494093" lon="11.849249415099621">
        <ele>2328.9299999999998</ele>
        <time>2018-03-02T12:18:56Z</time>
      </trkpt>
      <trkpt lat="46.400768235325813" lon="11.849238853901625">
        <ele>2328.9299999999998</ele>
        <time>2018-03-02T12:19:05Z</time>
      </trkpt>
      <trkpt lat="46.400792375206947" lon="11.849261652678251">
        <ele>2328.9299999999998</ele>
        <time>2018-03-02T12:19:15Z</time>
      </trkpt>
      <trkpt lat="46.400783658027649" lon="11.849235920235515">
        <ele>2328.9299999999998</ele>
        <time>2018-03-02T12:19:27Z</time>
      </trkpt>
      <trkpt lat="46.400783658027649" lon="11.849218737334013">
        <ele>2328.9299999999998</ele>
        <time>2018-03-02T12:19:38Z</time>
      </trkpt>
      <trkpt lat="46.400783574208617" lon="11.849225191399455">
        <ele>2328.9299999999998</ele>
        <time>2018-03-02T12:19:52Z</time>
      </trkpt>
      <trkpt lat="46.400779299438" lon="11.849228879436851">
        <ele>2328.9299999999998</ele>
        <time>2018-03-02T12:20:05Z</time>
      </trkpt>
      <trkpt lat="46.400778293609619" lon="11.849232902750373">
        <ele>2328.9299999999998</ele>
        <time>2018-03-02T12:20:18Z</time>
      </trkpt>
      <trkpt lat="46.400770833715796" lon="11.849217982962728">
        <ele>2329.4099999999999</ele>
        <time>2018-03-02T12:20:37Z</time>
      </trkpt>
      <trkpt lat="46.40078466385603" lon="11.849228460341692">
        <ele>2329.4099999999999</ele>
        <time>2018-03-02T12:20:51Z</time>
      </trkpt>
      <trkpt lat="46.400769995525479" lon="11.849240195006132">
        <ele>2329.4099999999999</ele>
        <time>2018-03-02T12:21:07Z</time>
      </trkpt>
      <trkpt lat="46.400746442377567" lon="11.84924547560513">
        <ele>2328.9299999999998</ele>
        <time>2018-03-02T12:21:22Z</time>
      </trkpt>
      <trkpt lat="46.400753734633327" lon="11.849229214712977">
        <ele>2329.4099999999999</ele>
        <time>2018-03-02T12:21:37Z</time>
      </trkpt>
      <trkpt lat="46.400759015232325" lon="11.849229969084263">
        <ele>2329.4099999999999</ele>
        <time>2018-03-02T12:21:47Z</time>
      </trkpt>
      <trkpt lat="46.400760440155864" lon="11.849214881658554">
        <ele>2329.4099999999999</ele>
        <time>2018-03-02T12:22:03Z</time>
      </trkpt>
      <trkpt lat="46.400772342458367" lon="11.849222760647535">
        <ele>2329.8899999999999</ele>
        <time>2018-03-02T12:22:14Z</time>
      </trkpt>
      <trkpt lat="46.400757171213627" lon="11.849222341552377">
        <ele>2329.8899999999999</ele>
        <time>2018-03-02T12:22:25Z</time>
      </trkpt>
      <trkpt lat="46.400767061859369" lon="11.849228460341692">
        <ele>2329.8899999999999</ele>
        <time>2018-03-02T12:22:40Z</time>
      </trkpt>
      <trkpt lat="46.400761613622308" lon="11.849238937720656">
        <ele>2329.8899999999999</ele>
        <time>2018-03-02T12:22:54Z</time>
      </trkpt>
      <trkpt lat="46.400763122364879" lon="11.84923960827291">
        <ele>2329.8899999999999</ele>
        <time>2018-03-02T12:23:05Z</time>
      </trkpt>
      <trkpt lat="46.400769324973226" lon="11.849208595231175">
        <ele>2329.4099999999999</ele>
        <time>2018-03-02T12:23:28Z</time>
      </trkpt>
      <trkpt lat="46.400756165385246" lon="11.849228544160724">
        <ele>2329.4099999999999</ele>
        <time>2018-03-02T12:23:41Z</time>
      </trkpt>
      <trkpt lat="46.400769827887416" lon="11.849232735112309">
        <ele>2328.9299999999998</ele>
        <time>2018-03-02T12:23:53Z</time>
      </trkpt>
      <trkpt lat="46.400753147900105" lon="11.849329629912972">
        <ele>2329.8899999999999</ele>
        <time>2018-03-02T12:24:03Z</time>
      </trkpt>
      <trkpt lat="46.40072163194418" lon="11.849385453388095">
        <ele>2330.8499999999999</ele>
        <time>2018-03-02T12:24:12Z</time>
      </trkpt>
      <trkpt lat="46.400675363838673" lon="11.849456699565053">
        <ele>2331.8099999999999</ele>
        <time>2018-03-02T12:24:24Z</time>
      </trkpt>
      <trkpt lat="46.400672849267721" lon="11.84947413392365">
        <ele>2332.7800000000002</ele>
        <time>2018-03-02T12:24:31Z</time>
      </trkpt>
      <trkpt lat="46.400654492899776" lon="11.8494853656739">
        <ele>2333.2600000000002</ele>
        <time>2018-03-02T12:24:39Z</time>
      </trkpt>
      <trkpt lat="46.400656420737505" lon="11.849452340975404">
        <ele>2333.2600000000002</ele>
        <time>2018-03-02T12:24:51Z</time>
      </trkpt>
      <trkpt lat="46.400653654709458" lon="11.849460890516639">
        <ele>2333.2600000000002</ele>
        <time>2018-03-02T12:25:07Z</time>
      </trkpt>
      <trkpt lat="46.400658264756203" lon="11.849438427016139">
        <ele>2333.2600000000002</ele>
        <time>2018-03-02T12:25:19Z</time>
      </trkpt>
      <trkpt lat="46.400665137916803" lon="11.849433900788426">
        <ele>2333.2600000000002</ele>
        <time>2018-03-02T12:25:32Z</time>
      </trkpt>
      <trkpt lat="46.400648960843682" lon="11.849426357075572">
        <ele>2333.2600000000002</ele>
        <time>2018-03-02T12:25:52Z</time>
      </trkpt>
      <trkpt lat="46.400660024955869" lon="11.849453011527658">
        <ele>2332.7800000000002</ele>
        <time>2018-03-02T12:26:05Z</time>
      </trkpt>
      <trkpt lat="46.400651391595602" lon="11.849463908001781">
        <ele>2332.7800000000002</ele>
        <time>2018-03-02T12:26:24Z</time>
      </trkpt>
      <trkpt lat="46.400651140138507" lon="11.849452424794436">
        <ele>2332.3000000000002</ele>
        <time>2018-03-02T12:26:25Z</time>
      </trkpt>
      <trkpt lat="46.400695564225316" lon="11.849377071484923">
        <ele>2330.8499999999999</ele>
        <time>2018-03-02T12:26:33Z</time>
      </trkpt>
      <trkpt lat="46.400732863694429" lon="11.849402636289597">
        <ele>2331.3299999999999</ele>
        <time>2018-03-02T12:26:43Z</time>
      </trkpt>
      <trkpt lat="46.400729510933161" lon="11.849359469488263">
        <ele>2330.8499999999999</ele>
        <time>2018-03-02T12:26:57Z</time>
      </trkpt>
      <trkpt lat="46.400745771825314" lon="11.84929677285254">
        <ele>2330.3699999999999</ele>
        <time>2018-03-02T12:27:03Z</time>
      </trkpt>
      <trkpt lat="46.400794219225645" lon="11.849213289096951">
        <ele>2328.9299999999998</ele>
        <time>2018-03-02T12:27:14Z</time>
      </trkpt>
      <trkpt lat="46.400784412398934" lon="11.849221671000123">
        <ele>2328.4499999999998</ele>
        <time>2018-03-02T12:27:27Z</time>
      </trkpt>
      <trkpt lat="46.400788184255362" lon="11.849211864173412">
        <ele>2328.4499999999998</ele>
        <time>2018-03-02T12:27:45Z</time>
      </trkpt>
      <trkpt lat="46.400773264467716" lon="11.849185461178422">
        <ele>2328.4499999999998</ele>
        <time>2018-03-02T12:28:04Z</time>
      </trkpt>
      <trkpt lat="46.400773683562875" lon="11.849200213328004">
        <ele>2328.4499999999998</ele>
        <time>2018-03-02T12:28:21Z</time>
      </trkpt>
      <trkpt lat="46.400774018839002" lon="11.849195100367069">
        <ele>2328.4499999999998</ele>
        <time>2018-03-02T12:28:38Z</time>
      </trkpt>
      <trkpt lat="46.400772426277399" lon="11.849196692928672">
        <ele>2327.9699999999998</ele>
        <time>2018-03-02T12:28:55Z</time>
      </trkpt>
      <trkpt lat="46.400765972211957" lon="11.849189987406135">
        <ele>2328.4499999999998</ele>
        <time>2018-03-02T12:29:12Z</time>
      </trkpt>
      <trkpt lat="46.40075926668942" lon="11.849151514470577">
        <ele>2327.4899999999998</ele>
        <time>2018-03-02T12:29:20Z</time>
      </trkpt>
      <trkpt lat="46.400734540075064" lon="11.849157549440861">
        <ele>2327.0100000000002</ele>
        <time>2018-03-02T12:29:38Z</time>
      </trkpt>
      <trkpt lat="46.400684751570225" lon="11.849159142002463">
        <ele>2326.0500000000002</ele>
        <time>2018-03-02T12:29:48Z</time>
      </trkpt>
      <trkpt lat="46.400665724650025" lon="11.849168529734015">
        <ele>2325.5700000000002</ele>
        <time>2018-03-02T12:29:51Z</time>
      </trkpt>
      <trkpt lat="46.400645021349192" lon="11.849131314083934">
        <ele>2324.6100000000001</ele>
        <time>2018-03-02T12:29:55Z</time>
      </trkpt>
      <trkpt lat="46.400674693286419" lon="11.849062750115991">
        <ele>2323.1599999999999</ele>
        <time>2018-03-02T12:30:05Z</time>
      </trkpt>
      <trkpt lat="46.400676369667053" lon="11.848978847265244">
        <ele>2322.1999999999998</ele>
        <time>2018-03-02T12:30:12Z</time>
      </trkpt>
      <trkpt lat="46.400707717984915" lon="11.848875414580107">
        <ele>2321.2399999999998</ele>
        <time>2018-03-02T12:30:22Z</time>
      </trkpt>
      <trkpt lat="46.4007084723562" lon="11.848882874473929">
        <ele>2323.1599999999999</ele>
        <time>2018-03-02T12:30:40Z</time>
      </trkpt>
      <trkpt lat="46.400705454871058" lon="11.848849095404148">
        <ele>2321.2399999999998</ele>
        <time>2018-03-02T12:30:48Z</time>
      </trkpt>
      <trkpt lat="46.400724733248353" lon="11.848740298300982">
        <ele>2321.7199999999998</ele>
        <time>2018-03-02T12:30:58Z</time>
      </trkpt>
      <trkpt lat="46.400723475962877" lon="11.848700232803822">
        <ele>2321.7199999999998</ele>
        <time>2018-03-02T12:31:01Z</time>
      </trkpt>
      <trkpt lat="46.400730516761541" lon="11.848639631643891">
        <ele>2321.7199999999998</ele>
        <time>2018-03-02T12:31:06Z</time>
      </trkpt>
      <trkpt lat="46.400726996362209" lon="11.848557321354747">
        <ele>2321.7199999999998</ele>
        <time>2018-03-02T12:31:12Z</time>
      </trkpt>
      <trkpt lat="46.400724062696099" lon="11.848494540899992">
        <ele>2321.2399999999998</ele>
        <time>2018-03-02T12:31:18Z</time>
      </trkpt>
      <trkpt lat="46.40070017427206" lon="11.848401250317693">
        <ele>2321.2399999999998</ele>
        <time>2018-03-02T12:31:28Z</time>
      </trkpt>
      <trkpt lat="46.400702353566885" lon="11.848415583372116">
        <ele>2321.2399999999998</ele>
        <time>2018-03-02T12:31:33Z</time>
      </trkpt>
      <trkpt lat="46.400704281404614" lon="11.848402256146073">
        <ele>2320.2800000000002</ele>
        <time>2018-03-02T12:31:36Z</time>
      </trkpt>
      <trkpt lat="46.400720793753862" lon="11.848404100164771">
        <ele>2319.8000000000002</ele>
        <time>2018-03-02T12:31:50Z</time>
      </trkpt>
      <trkpt lat="46.400756668299437" lon="11.848436621949077">
        <ele>2321.2399999999998</ele>
        <time>2018-03-02T12:32:04Z</time>
      </trkpt>
      <trkpt lat="46.400706376880407" lon="11.848395634442568">
        <ele>2320.7600000000002</ele>
        <time>2018-03-02T12:32:15Z</time>
      </trkpt>
      <trkpt lat="46.400694474577904" lon="11.848323382437229">
        <ele>2321.2399999999998</ele>
        <time>2018-03-02T12:32:20Z</time>
      </trkpt>
      <trkpt lat="46.400665808469057" lon="11.848203521221876">
        <ele>2321.2399999999998</ele>
        <time>2018-03-02T12:32:30Z</time>
      </trkpt>
      <trkpt lat="46.400654157623649" lon="11.848079720512033">
        <ele>2319.8000000000002</ele>
        <time>2018-03-02T12:32:40Z</time>
      </trkpt>
      <trkpt lat="46.400642590597272" lon="11.847981149330735">
        <ele>2319.3200000000002</ele>
        <time>2018-03-02T12:32:47Z</time>
      </trkpt>
      <trkpt lat="46.400665221735835" lon="11.847893893718719">
        <ele>2319.3200000000002</ele>
        <time>2018-03-02T12:32:57Z</time>
      </trkpt>
      <trkpt lat="46.400676621124148" lon="11.84783672913909">
        <ele>2319.8000000000002</ele>
        <time>2018-03-02T12:33:01Z</time>
      </trkpt>
      <trkpt lat="46.400737557560205" lon="11.847750563174486">
        <ele>2320.2800000000002</ele>
        <time>2018-03-02T12:33:11Z</time>
      </trkpt>
      <trkpt lat="46.400768905878067" lon="11.847694320604205">
        <ele>2321.2399999999998</ele>
        <time>2018-03-02T12:33:21Z</time>
      </trkpt>
      <trkpt lat="46.400766391307116" lon="11.847695074975491">
        <ele>2321.2399999999998</ele>
        <time>2018-03-02T12:33:34Z</time>
      </trkpt>
      <trkpt lat="46.400832189247012" lon="11.84765987098217">
        <ele>2320.7600000000002</ele>
        <time>2018-03-02T12:33:44Z</time>
      </trkpt>
      <trkpt lat="46.400909554213285" lon="11.847609747201204">
        <ele>2320.7600000000002</ele>
        <time>2018-03-02T12:33:54Z</time>
      </trkpt>
      <trkpt lat="46.400975016877055" lon="11.847599353641272">
        <ele>2320.2800000000002</ele>
        <time>2018-03-02T12:34:03Z</time>
      </trkpt>
      <trkpt lat="46.401059506461024" lon="11.847610417753458">
        <ele>2320.7600000000002</ele>
        <time>2018-03-02T12:34:14Z</time>
      </trkpt>
      <trkpt lat="46.401090603321791" lon="11.847600527107716">
        <ele>2320.7600000000002</ele>
        <time>2018-03-02T12:34:18Z</time>
      </trkpt>
      <trkpt lat="46.401169896125793" lon="11.847518803551793">
        <ele>2320.2800000000002</ele>
        <time>2018-03-02T12:34:30Z</time>
      </trkpt>
      <trkpt lat="46.401174422353506" lon="11.847483264282346">
        <ele>2318.8400000000001</ele>
        <time>2018-03-02T12:34:39Z</time>
      </trkpt>
      <trkpt lat="46.401147348806262" lon="11.847480665892363">
        <ele>2318.8400000000001</ele>
        <time>2018-03-02T12:34:50Z</time>
      </trkpt>
      <trkpt lat="46.401134189218283" lon="11.847478989511728">
        <ele>2317.8800000000001</ele>
        <time>2018-03-02T12:34:59Z</time>
      </trkpt>
      <trkpt lat="46.401124382391572" lon="11.847467254847288">
        <ele>2316.9099999999999</ele>
        <time>2018-03-02T12:35:09Z</time>
      </trkpt>
      <trkpt lat="46.40107836574316" lon="11.84743070974946">
        <ele>2315.4699999999998</ele>
        <time>2018-03-02T12:35:20Z</time>
      </trkpt>
      <trkpt lat="46.401050789281726" lon="11.847386453300714">
        <ele>2314.0300000000002</ele>
        <time>2018-03-02T12:35:29Z</time>
      </trkpt>
      <trkpt lat="46.401052381843328" lon="11.847372455522418">
        <ele>2313.0700000000002</ele>
        <time>2018-03-02T12:35:40Z</time>
      </trkpt>
      <trkpt lat="46.401024386286736" lon="11.847358038648963">
        <ele>2312.1100000000001</ele>
        <time>2018-03-02T12:35:52Z</time>
      </trkpt>
      <trkpt lat="46.400981387123466" lon="11.847339263185859">
        <ele>2311.6300000000001</ele>
        <time>2018-03-02T12:36:01Z</time>
      </trkpt>
      <trkpt lat="46.400966383516788" lon="11.847356278449297">
        <ele>2310.6700000000001</ele>
        <time>2018-03-02T12:36:13Z</time>
      </trkpt>
      <trkpt lat="46.400904776528478" lon="11.847333563491702">
        <ele>2309.2199999999998</ele>
        <time>2018-03-02T12:36:26Z</time>
      </trkpt>
      <trkpt lat="46.400884827598929" lon="11.84731244109571">
        <ele>2308.2600000000002</ele>
        <time>2018-03-02T12:36:35Z</time>
      </trkpt>
      <trkpt lat="46.400840152055025" lon="11.847315458580852">
        <ele>2307.3000000000002</ele>
        <time>2018-03-02T12:36:45Z</time>
      </trkpt>
      <trkpt lat="46.400834955275059" lon="11.84731487184763">
        <ele>2307.3000000000002</ele>
        <time>2018-03-02T12:36:46Z</time>
      </trkpt>
      <trkpt lat="46.400864124298096" lon="11.847271034494042">
        <ele>2305.8600000000001</ele>
        <time>2018-03-02T12:36:56Z</time>
      </trkpt>
      <trkpt lat="46.400905949994922" lon="11.847197944298387">
        <ele>2304.4200000000001</ele>
        <time>2018-03-02T12:37:07Z</time>
      </trkpt>
      <trkpt lat="46.400884576141834" lon="11.847146395593882">
        <ele>2303.9400000000001</ele>
        <time>2018-03-02T12:37:13Z</time>
      </trkpt>
      <trkpt lat="46.400843420997262" lon="11.847038771957159">
        <ele>2303.9400000000001</ele>
        <time>2018-03-02T12:37:25Z</time>
      </trkpt>
      <trkpt lat="46.40083696693182" lon="11.847025947645307">
        <ele>2303.9400000000001</ele>
        <time>2018-03-02T12:37:26Z</time>
      </trkpt>
      <trkpt lat="46.400782316923141" lon="11.846955874934793">
        <ele>2302.4899999999998</ele>
        <time>2018-03-02T12:37:35Z</time>
      </trkpt>
      <trkpt lat="46.400812910869718" lon="11.846935423091054">
        <ele>2302.4899999999998</ele>
        <time>2018-03-02T12:37:45Z</time>
      </trkpt>
      <trkpt lat="46.400817688554525" lon="11.846917988732457">
        <ele>2302.0100000000002</ele>
        <time>2018-03-02T12:37:52Z</time>
      </trkpt>
      <trkpt lat="46.400821963325143" lon="11.846952773630619">
        <ele>2301.5300000000002</ele>
        <time>2018-03-02T12:38:02Z</time>
      </trkpt>
      <trkpt lat="46.400819029659033" lon="11.84696794487536">
        <ele>2301.5300000000002</ele>
        <time>2018-03-02T12:38:20Z</time>
      </trkpt>
      <trkpt lat="46.400828752666712" lon="11.846926705911756">
        <ele>2302.0100000000002</ele>
        <time>2018-03-02T12:38:38Z</time>
      </trkpt>
      <trkpt lat="46.400834703817964" lon="11.846930729225278">
        <ele>2302.0100000000002</ele>
        <time>2018-03-02T12:38:50Z</time>
      </trkpt>
      <trkpt lat="46.400839816778898" lon="11.846925532445312">
        <ele>2302.0100000000002</ele>
        <time>2018-03-02T12:39:04Z</time>
      </trkpt>
      <trkpt lat="46.400839816778898" lon="11.846923772245646">
        <ele>2302.0100000000002</ele>
        <time>2018-03-02T12:39:19Z</time>
      </trkpt>
      <trkpt lat="46.400840487331152" lon="11.846903404220939">
        <ele>2302.0100000000002</ele>
        <time>2018-03-02T12:39:31Z</time>
      </trkpt>
      <trkpt lat="46.400827914476395" lon="11.846915222704411">
        <ele>2302.0100000000002</ele>
        <time>2018-03-02T12:39:42Z</time>
      </trkpt>
      <trkpt lat="46.400821879506111" lon="11.846923436969519">
        <ele>2302.0100000000002</ele>
        <time>2018-03-02T12:39:50Z</time>
      </trkpt>
      <trkpt lat="46.4008276630193" lon="11.846937015652657">
        <ele>2301.5300000000002</ele>
        <time>2018-03-02T12:40:05Z</time>
      </trkpt>
      <trkpt lat="46.40080327168107" lon="11.846893513575196">
        <ele>2301.5300000000002</ele>
        <time>2018-03-02T12:40:18Z</time>
      </trkpt>
      <trkpt lat="46.400778712704778" lon="11.846803072839975">
        <ele>2299.6100000000001</ele>
        <time>2018-03-02T12:40:25Z</time>
      </trkpt>
      <trkpt lat="46.400785585865378" lon="11.846728725358844">
        <ele>2298.6500000000001</ele>
        <time>2018-03-02T12:40:29Z</time>
      </trkpt>
      <trkpt lat="46.400789022445679" lon="11.846698382869363">
        <ele>2297.6900000000001</ele>
        <time>2018-03-02T12:40:31Z</time>
      </trkpt>
      <trkpt lat="46.400736048817635" lon="11.846550526097417">
        <ele>2294.8000000000002</ele>
        <time>2018-03-02T12:40:42Z</time>
      </trkpt>
      <trkpt lat="46.400645608082414" lon="11.84647785499692">
        <ele>2291.9200000000001</ele>
        <time>2018-03-02T12:40:50Z</time>
      </trkpt>
      <trkpt lat="46.400601183995605" lon="11.846348354592919">
        <ele>2288.5599999999999</ele>
        <time>2018-03-02T12:40:59Z</time>
      </trkpt>
      <trkpt lat="46.400493895635009" lon="11.846337541937828">
        <ele>2285.1900000000001</ele>
        <time>2018-03-02T12:41:09Z</time>
      </trkpt>
      <trkpt lat="46.400446202605963" lon="11.846343912184238">
        <ele>2283.75</ele>
        <time>2018-03-02T12:41:13Z</time>
      </trkpt>
      <trkpt lat="46.400350565090775" lon="11.846368554979563">
        <ele>2280.3800000000001</ele>
        <time>2018-03-02T12:41:22Z</time>
      </trkpt>
      <trkpt lat="46.400317456573248" lon="11.846224134787917">
        <ele>2277.5</ele>
        <time>2018-03-02T12:41:32Z</time>
      </trkpt>
      <trkpt lat="46.400313014164567" lon="11.846147859469056">
        <ele>2276.0599999999999</ele>
        <time>2018-03-02T12:41:37Z</time>
      </trkpt>
      <trkpt lat="46.400316702201962" lon="11.846081726253033">
        <ele>2275.0999999999999</ele>
        <time>2018-03-02T12:41:41Z</time>
      </trkpt>
      <trkpt lat="46.400316366925836" lon="11.84598047286272">
        <ele>2272.6900000000001</ele>
        <time>2018-03-02T12:41:50Z</time>
      </trkpt>
      <trkpt lat="46.400293735787272" lon="11.845915010198951">
        <ele>2272.21</ele>
        <time>2018-03-02T12:41:55Z</time>
      </trkpt>
      <trkpt lat="46.400253921747208" lon="11.845749132335186">
        <ele>2270.29</ele>
        <time>2018-03-02T12:42:07Z</time>
      </trkpt>
      <trkpt lat="46.400235146284103" lon="11.845694817602634">
        <ele>2269.8099999999999</ele>
        <time>2018-03-02T12:42:11Z</time>
      </trkpt>
      <trkpt lat="46.400224417448044" lon="11.845663972198963">
        <ele>2269.3299999999999</ele>
        <time>2018-03-02T12:42:13Z</time>
      </trkpt>
      <trkpt lat="46.40015727840364" lon="11.845535226166248">
        <ele>2266.4499999999998</ele>
        <time>2018-03-02T12:42:24Z</time>
      </trkpt>
      <trkpt lat="46.400090977549553" lon="11.845389800146222">
        <ele>2265</ele>
        <time>2018-03-02T12:42:35Z</time>
      </trkpt>
      <trkpt lat="46.400032304227352" lon="11.845282260328531">
        <ele>2263.5599999999999</ele>
        <time>2018-03-02T12:42:44Z</time>
      </trkpt>
      <trkpt lat="46.399985868483782" lon="11.845163321122527">
        <ele>2262.5999999999999</ele>
        <time>2018-03-02T12:42:53Z</time>
      </trkpt>
      <trkpt lat="46.399936499074101" lon="11.845017308369279">
        <ele>2261.6399999999999</ele>
        <time>2018-03-02T12:43:03Z</time>
      </trkpt>
      <trkpt lat="46.39989148825407" lon="11.844920832663774">
        <ele>2261.6399999999999</ele>
        <time>2018-03-02T12:43:12Z</time>
      </trkpt>
      <trkpt lat="46.399848069995642" lon="11.844899794086814">
        <ele>2260.6799999999998</ele>
        <time>2018-03-02T12:43:17Z</time>
      </trkpt>
      <trkpt lat="46.399737093597651" lon="11.844822429120541">
        <ele>2258.27</ele>
        <time>2018-03-02T12:43:29Z</time>
      </trkpt>
      <trkpt lat="46.399714713916183" lon="11.844785716384649">
        <ele>2257.79</ele>
        <time>2018-03-02T12:43:32Z</time>
      </trkpt>
      <trkpt lat="46.399737847968936" lon="11.844685636460781">
        <ele>2256.3499999999999</ele>
        <time>2018-03-02T12:43:38Z</time>
      </trkpt>
      <trkpt lat="46.399746229872108" lon="11.844655545428395">
        <ele>2255.8699999999999</ele>
        <time>2018-03-02T12:43:40Z</time>
      </trkpt>
      <trkpt lat="46.399731896817684" lon="11.844585472717881">
        <ele>2254.9099999999999</ele>
        <time>2018-03-02T12:43:45Z</time>
      </trkpt>
      <trkpt lat="46.399741368368268" lon="11.844472903758287">
        <ele>2252.9899999999998</ele>
        <time>2018-03-02T12:43:53Z</time>
      </trkpt>
      <trkpt lat="46.399774057790637" lon="11.84434600174427">
        <ele>2250.0999999999999</ele>
        <time>2018-03-02T12:44:02Z</time>
      </trkpt>
      <trkpt lat="46.399782858788967" lon="11.844327561557293">
        <ele>2249.6199999999999</ele>
        <time>2018-03-02T12:44:04Z</time>
      </trkpt>
      <trkpt lat="46.399795599281788" lon="11.844308534637094">
        <ele>2249.1399999999999</ele>
        <time>2018-03-02T12:44:06Z</time>
      </trkpt>
      <trkpt lat="46.399814374744892" lon="11.844191942363977">
        <ele>2247.2199999999998</ele>
        <time>2018-03-02T12:44:15Z</time>
      </trkpt>
      <trkpt lat="46.399825103580952" lon="11.844090269878507">
        <ele>2244.8200000000002</ele>
        <time>2018-03-02T12:44:24Z</time>
      </trkpt>
      <trkpt lat="46.399826109409332" lon="11.844076439738274">
        <ele>2244.3299999999999</ele>
        <time>2018-03-02T12:44:25Z</time>
      </trkpt>
      <trkpt lat="46.399838598445058" lon="11.844021705910563">
        <ele>2243.8499999999999</ele>
        <time>2018-03-02T12:44:30Z</time>
      </trkpt>
      <trkpt lat="46.399835916236043" lon="11.843983987346292">
        <ele>2242.8899999999999</ele>
        <time>2018-03-02T12:44:33Z</time>
      </trkpt>
      <trkpt lat="46.399826612323523" lon="11.843920536339283">
        <ele>2241.4499999999998</ele>
        <time>2018-03-02T12:44:43Z</time>
      </trkpt>
      <trkpt lat="46.399822253733873" lon="11.843910645693541">
        <ele>2241.4499999999998</ele>
        <time>2018-03-02T12:44:53Z</time>
      </trkpt>
      <trkpt lat="46.399831054732203" lon="11.843887679278851">
        <ele>2241.4499999999998</ele>
        <time>2018-03-02T12:45:07Z</time>
      </trkpt>
      <trkpt lat="46.399852009490132" lon="11.843890948221087">
        <ele>2241.4499999999998</ele>
        <time>2018-03-02T12:45:31Z</time>
      </trkpt>
      <trkpt lat="46.399850836023688" lon="11.843868652358651">
        <ele>2241.4499999999998</ele>
        <time>2018-03-02T12:45:45Z</time>
      </trkpt>
      <trkpt lat="46.399865336716175" lon="11.843868400901556">
        <ele>2241.4499999999998</ele>
        <time>2018-03-02T12:46:03Z</time>
      </trkpt>
      <trkpt lat="46.399840610101819" lon="11.843872256577015">
        <ele>2241.4499999999998</ele>
        <time>2018-03-02T12:46:15Z</time>
      </trkpt>
      <trkpt lat="46.399827031418681" lon="11.843757759779692">
        <ele>2239.5300000000002</ele>
        <time>2018-03-02T12:46:25Z</time>
      </trkpt>
      <trkpt lat="46.39975955709815" lon="11.8436692468822">
        <ele>2237.6100000000001</ele>
        <time>2018-03-02T12:46:35Z</time>
      </trkpt>
      <trkpt lat="46.399692250415683" lon="11.84357930906117">
        <ele>2234.2399999999998</ele>
        <time>2018-03-02T12:46:45Z</time>
      </trkpt>
      <trkpt lat="46.399656208232045" lon="11.843513762578368">
        <ele>2232.8000000000002</ele>
        <time>2018-03-02T12:46:51Z</time>
      </trkpt>
      <trkpt lat="46.399638438597322" lon="11.843503871932626">
        <ele>2232.3200000000002</ele>
        <time>2018-03-02T12:46:53Z</time>
      </trkpt>
      <trkpt lat="46.399552691727877" lon="11.843406474217772">
        <ele>2229.4299999999998</ele>
        <time>2018-03-02T12:47:04Z</time>
      </trkpt>
      <trkpt lat="46.399514889344573" lon="11.84333841316402">
        <ele>2227.9899999999998</ele>
        <time>2018-03-02T12:47:10Z</time>
      </trkpt>
      <trkpt lat="46.399473482742906" lon="11.843253672122955">
        <ele>2227.0300000000002</ele>
        <time>2018-03-02T12:47:18Z</time>
      </trkpt>
      <trkpt lat="46.399413049221039" lon="11.843137415125966">
        <ele>2224.6300000000001</ele>
        <time>2018-03-02T12:47:28Z</time>
      </trkpt>
      <trkpt lat="46.399405589327216" lon="11.843125009909272">
        <ele>2224.1500000000001</ele>
        <time>2018-03-02T12:47:29Z</time>
      </trkpt>
      <trkpt lat="46.399355046451092" lon="11.842999197542667">
        <ele>2222.2199999999998</ele>
        <time>2018-03-02T12:47:39Z</time>
      </trkpt>
      <trkpt lat="46.399349262937903" lon="11.842987211421132">
        <ele>2221.7399999999998</ele>
        <time>2018-03-02T12:47:40Z</time>
      </trkpt>
      <trkpt lat="46.399341551586986" lon="11.842960473150015">
        <ele>2221.2600000000002</ele>
        <time>2018-03-02T12:47:42Z</time>
      </trkpt>
      <trkpt lat="46.399333253502846" lon="11.842937506735325">
        <ele>2220.7800000000002</ele>
        <time>2018-03-02T12:47:44Z</time>
      </trkpt>
      <trkpt lat="46.399296540766954" lon="11.842819573357701">
        <ele>2217.9000000000001</ele>
        <time>2018-03-02T12:47:54Z</time>
      </trkpt>
      <trkpt lat="46.399287907406688" lon="11.842793254181743">
        <ele>2217.4200000000001</ele>
        <time>2018-03-02T12:47:56Z</time>
      </trkpt>
      <trkpt lat="46.39920350164175" lon="11.842683535069227">
        <ele>2213.5700000000002</ele>
        <time>2018-03-02T12:48:07Z</time>
      </trkpt>
      <trkpt lat="46.399135272949934" lon="11.842595608904958">
        <ele>2210.6900000000001</ele>
        <time>2018-03-02T12:48:16Z</time>
      </trkpt>
      <trkpt lat="46.399108115583658" lon="11.842537270858884">
        <ele>2209.25</ele>
        <time>2018-03-02T12:48:21Z</time>
      </trkpt>
      <trkpt lat="46.399042569100857" lon="11.842439286410809">
        <ele>2207.8099999999999</ele>
        <time>2018-03-02T12:48:31Z</time>
      </trkpt>
      <trkpt lat="46.398997893556952" lon="11.842351276427507">
        <ele>2206.8400000000001</ele>
        <time>2018-03-02T12:48:39Z</time>
      </trkpt>
      <trkpt lat="46.39899437315762" lon="11.842323951423168">
        <ele>2206.3600000000001</ele>
        <time>2018-03-02T12:48:41Z</time>
      </trkpt>
      <trkpt lat="46.398940393701196" lon="11.842171065509319">
        <ele>2204.9200000000001</ele>
        <time>2018-03-02T12:48:53Z</time>
      </trkpt>
      <trkpt lat="46.398879373446107" lon="11.842040056362748">
        <ele>2203.48</ele>
        <time>2018-03-02T12:49:04Z</time>
      </trkpt>
      <trkpt lat="46.398814832791686" lon="11.84189110994339">
        <ele>2201.0799999999999</ele>
        <time>2018-03-02T12:49:15Z</time>
      </trkpt>
      <trkpt lat="46.398805445060134" lon="11.841861186549067">
        <ele>2200.5900000000001</ele>
        <time>2018-03-02T12:49:17Z</time>
      </trkpt>
      <trkpt lat="46.398754063993692" lon="11.841751215979457">
        <ele>2198.6700000000001</ele>
        <time>2018-03-02T12:49:27Z</time>
      </trkpt>
      <trkpt lat="46.398742999881506" lon="11.841709977015853">
        <ele>2198.6700000000001</ele>
        <time>2018-03-02T12:49:30Z</time>
      </trkpt>
      <trkpt lat="46.398731600493193" lon="11.841690447181463">
        <ele>2198.1900000000001</ele>
        <time>2018-03-02T12:49:32Z</time>
      </trkpt>
      <trkpt lat="46.398670496419072" lon="11.841547703370452">
        <ele>2196.27</ele>
        <time>2018-03-02T12:49:44Z</time>
      </trkpt>
      <trkpt lat="46.398655828088522" lon="11.841510906815529">
        <ele>2195.79</ele>
        <time>2018-03-02T12:49:47Z</time>
      </trkpt>
      <trkpt lat="46.39858684502542" lon="11.841395739465952">
        <ele>2195.3099999999999</ele>
        <time>2018-03-02T12:49:58Z</time>
      </trkpt>
      <trkpt lat="46.398550970479846" lon="11.841231873258948">
        <ele>2194.3499999999999</ele>
        <time>2018-03-02T12:50:10Z</time>
      </trkpt>
      <trkpt lat="46.398543259128928" lon="11.841215780004859">
        <ele>2194.3499999999999</ele>
        <time>2018-03-02T12:50:11Z</time>
      </trkpt>
      <trkpt lat="46.398511910811067" lon="11.841056691482663">
        <ele>2192.9000000000001</ele>
        <time>2018-03-02T12:50:23Z</time>
      </trkpt>
      <trkpt lat="46.398463295772672" lon="11.840902213007212">
        <ele>2191.9400000000001</ele>
        <time>2018-03-02T12:50:35Z</time>
      </trkpt>
      <trkpt lat="46.398430187255144" lon="11.840799618512392">
        <ele>2190.5</ele>
        <time>2018-03-02T12:50:44Z</time>
      </trkpt>
      <trkpt lat="46.398404287174344" lon="11.840770533308387">
        <ele>2189.54</ele>
        <time>2018-03-02T12:50:47Z</time>
      </trkpt>
      <trkpt lat="46.39834351837635" lon="11.840681014582515">
        <ele>2187.6199999999999</ele>
        <time>2018-03-02T12:50:56Z</time>
      </trkpt>
      <trkpt lat="46.398298842832446" lon="11.840566014871001">
        <ele>2185.6900000000001</ele>
        <time>2018-03-02T12:51:05Z</time>
      </trkpt>
      <trkpt lat="46.398247042670846" lon="11.840459732338786">
        <ele>2184.25</ele>
        <time>2018-03-02T12:51:13Z</time>
      </trkpt>
      <trkpt lat="46.398178311064839" lon="11.840327046811581">
        <ele>2181.8499999999999</ele>
        <time>2018-03-02T12:51:24Z</time>
      </trkpt>
      <trkpt lat="46.39812852256" lon="11.840232666581869">
        <ele>2179.9299999999998</ele>
        <time>2018-03-02T12:51:32Z</time>
      </trkpt>
      <trkpt lat="46.398111926391721" lon="11.840217914432287">
        <ele>2179.4499999999998</ele>
        <time>2018-03-02T12:51:34Z</time>
      </trkpt>
      <trkpt lat="46.398080158978701" lon="11.840147841721773">
        <ele>2178</ele>
        <time>2018-03-02T12:51:39Z</time>
      </trkpt>
      <trkpt lat="46.398063730448484" lon="11.840109033510089">
        <ele>2177.52</ele>
        <time>2018-03-02T12:51:42Z</time>
      </trkpt>
      <trkpt lat="46.39802441932261" lon="11.840063519775867">
        <ele>2177.04</ele>
        <time>2018-03-02T12:51:51Z</time>
      </trkpt>
      <trkpt lat="46.398040093481541" lon="11.8400670401752">
        <ele>2177.04</ele>
        <time>2018-03-02T12:52:01Z</time>
      </trkpt>
      <trkpt lat="46.398047218099236" lon="11.840068297460675">
        <ele>2177.04</ele>
        <time>2018-03-02T12:52:17Z</time>
      </trkpt>
      <trkpt lat="46.398008074611425" lon="11.84000694192946">
        <ele>2177.04</ele>
        <time>2018-03-02T12:52:26Z</time>
      </trkpt>
      <trkpt lat="46.397916879504919" lon="11.839885739609599">
        <ele>2175.5999999999999</ele>
        <time>2018-03-02T12:52:37Z</time>
      </trkpt>
      <trkpt lat="46.397889135405421" lon="11.839854056015611">
        <ele>2175.1199999999999</ele>
        <time>2018-03-02T12:52:40Z</time>
      </trkpt>
      <trkpt lat="46.39779282733798" lon="11.839723130688071">
        <ele>2173.1999999999998</ele>
        <time>2018-03-02T12:52:52Z</time>
      </trkpt>
      <trkpt lat="46.397705907002091" lon="11.839631013572216">
        <ele>2171.27</ele>
        <time>2018-03-02T12:53:02Z</time>
      </trkpt>
      <trkpt lat="46.397681515663862" lon="11.839602179825306">
        <ele>2170.79</ele>
        <time>2018-03-02T12:53:05Z</time>
      </trkpt>
      <trkpt lat="46.397562744095922" lon="11.839493969455361">
        <ele>2167.4299999999998</ele>
        <time>2018-03-02T12:53:17Z</time>
      </trkpt>
      <trkpt lat="46.397494096308947" lon="11.839423477649689">
        <ele>2165.9899999999998</ele>
        <time>2018-03-02T12:53:25Z</time>
      </trkpt>
      <trkpt lat="46.397401392459869" lon="11.839339574798942">
        <ele>2163.5799999999999</ele>
        <time>2018-03-02T12:53:36Z</time>
      </trkpt>
      <trkpt lat="46.397333750501275" lon="11.839281488209963">
        <ele>2162.6199999999999</ele>
        <time>2018-03-02T12:53:44Z</time>
      </trkpt>
      <trkpt lat="46.397241298109293" lon="11.83918853290379">
        <ele>2160.2199999999998</ele>
        <time>2018-03-02T12:53:55Z</time>
      </trkpt>
      <trkpt lat="46.397177176550031" lon="11.839108318090439">
        <ele>2158.3000000000002</ele>
        <time>2018-03-02T12:54:04Z</time>
      </trkpt>
      <trkpt lat="46.397089501842856" lon="11.839036652818322">
        <ele>2156.3699999999999</ele>
        <time>2018-03-02T12:54:15Z</time>
      </trkpt>
      <trkpt lat="46.39706376940012" lon="11.839002119377255">
        <ele>2155.8899999999999</ele>
        <time>2018-03-02T12:54:19Z</time>
      </trkpt>
      <trkpt lat="46.397041724994779" lon="11.838962724432349">
        <ele>2155.4099999999999</ele>
        <time>2018-03-02T12:54:22Z</time>
      </trkpt>
      <trkpt lat="46.396967209875584" lon="11.838904051110148">
        <ele>2153.9699999999998</ele>
        <time>2018-03-02T12:54:30Z</time>
      </trkpt>
      <trkpt lat="46.396930916234851" lon="11.838876474648714">
        <ele>2153.0100000000002</ele>
        <time>2018-03-02T12:54:35Z</time>
      </trkpt>
      <trkpt lat="46.396895293146372" lon="11.838835906237364">
        <ele>2152.0500000000002</ele>
        <time>2018-03-02T12:54:39Z</time>
      </trkpt>
      <trkpt lat="46.396854221820831" lon="11.838793661445379">
        <ele>2151.0900000000001</ele>
        <time>2018-03-02T12:54:44Z</time>
      </trkpt>
      <trkpt lat="46.396835530176759" lon="11.838787794113159">
        <ele>2150.6100000000001</ele>
        <time>2018-03-02T12:54:46Z</time>
      </trkpt>
      <trkpt lat="46.396740563213825" lon="11.838711183518171">
        <ele>2148.6799999999998</ele>
        <time>2018-03-02T12:54:57Z</time>
      </trkpt>
      <trkpt lat="46.396648529917002" lon="11.838617892935872">
        <ele>2146.2800000000002</ele>
        <time>2018-03-02T12:55:08Z</time>
      </trkpt>
      <trkpt lat="46.396556999534369" lon="11.838518986478448">
        <ele>2144.3600000000001</ele>
        <time>2018-03-02T12:55:19Z</time>
      </trkpt>
      <trkpt lat="46.396513832733035" lon="11.83845897205174">
        <ele>2143.4000000000001</ele>
        <time>2018-03-02T12:55:25Z</time>
      </trkpt>
      <trkpt lat="46.39649061486125" lon="11.838429048657417">
        <ele>2142.4400000000001</ele>
        <time>2018-03-02T12:55:28Z</time>
      </trkpt>
      <trkpt lat="46.396460188552737" lon="11.838322347030044">
        <ele>2141.9499999999998</ele>
        <time>2018-03-02T12:55:35Z</time>
      </trkpt>
      <trkpt lat="46.396348960697651" lon="11.838236348703504">
        <ele>2139.0700000000002</ele>
        <time>2018-03-02T12:55:48Z</time>
      </trkpt>
      <trkpt lat="46.396267572417855" lon="11.838165856897831">
        <ele>2139.0700000000002</ele>
        <time>2018-03-02T12:55:58Z</time>
      </trkpt>
      <trkpt lat="46.396202109754086" lon="11.838123528286815">
        <ele>2138.5900000000001</ele>
        <time>2018-03-02T12:56:06Z</time>
      </trkpt>
      <trkpt lat="46.396103706210852" lon="11.838065776973963">
        <ele>2137.6300000000001</ele>
        <time>2018-03-02T12:56:17Z</time>
      </trkpt>
      <trkpt lat="46.396099179983139" lon="11.838018922135234">
        <ele>2137.6300000000001</ele>
        <time>2018-03-02T12:56:27Z</time>
      </trkpt>
      <trkpt lat="46.396070849150419" lon="11.838029734790325">
        <ele>2137.1500000000001</ele>
        <time>2018-03-02T12:56:36Z</time>
      </trkpt>
      <trkpt lat="46.396067496389151" lon="11.838024035096169">
        <ele>2137.6300000000001</ele>
        <time>2018-03-02T12:56:37Z</time>
      </trkpt>
      <trkpt lat="46.395973451435566" lon="11.837964858859777">
        <ele>2136.1900000000001</ele>
        <time>2018-03-02T12:56:48Z</time>
      </trkpt>
      <trkpt lat="46.395963644608855" lon="11.837956309318542">
        <ele>2135.71</ele>
        <time>2018-03-02T12:56:49Z</time>
      </trkpt>
      <trkpt lat="46.395934643223882" lon="11.83793418109417">
        <ele>2135.71</ele>
        <time>2018-03-02T12:56:52Z</time>
      </trkpt>
      <trkpt lat="46.395871276035905" lon="11.837886990979314">
        <ele>2134.7399999999998</ele>
        <time>2018-03-02T12:56:59Z</time>
      </trkpt>
      <trkpt lat="46.395845040678978" lon="11.837850613519549">
        <ele>2134.7399999999998</ele>
        <time>2018-03-02T12:57:02Z</time>
      </trkpt>
      <trkpt lat="46.395791564136744" lon="11.83780375868082">
        <ele>2130.9000000000001</ele>
        <time>2018-03-02T12:57:08Z</time>
      </trkpt>
      <trkpt lat="46.395784858614206" lon="11.83780082501471">
        <ele>2135.71</ele>
        <time>2018-03-02T12:57:09Z</time>
      </trkpt>
      <trkpt lat="46.395776392892003" lon="11.837796047329903">
        <ele>2133.7800000000002</ele>
        <time>2018-03-02T12:57:10Z</time>
      </trkpt>
      <trkpt lat="46.395682850852609" lon="11.837744833901525">
        <ele>2133.3000000000002</ele>
        <time>2018-03-02T12:57:21Z</time>
      </trkpt>
      <trkpt lat="46.395591152831912" lon="11.837662775069475">
        <ele>2131.8600000000001</ele>
        <time>2018-03-02T12:57:32Z</time>
      </trkpt>
      <trkpt lat="46.395580759271979" lon="11.837648525834084">
        <ele>2131.3800000000001</ele>
        <time>2018-03-02T12:57:33Z</time>
      </trkpt>
      <trkpt lat="46.395485876128078" lon="11.837566131725907">
        <ele>2131.3800000000001</ele>
        <time>2018-03-02T12:57:44Z</time>
      </trkpt>
      <trkpt lat="46.395448241382837" lon="11.837533107027411">
        <ele>2130.9000000000001</ele>
        <time>2018-03-02T12:57:51Z</time>
      </trkpt>
      <trkpt lat="46.395381102338433" lon="11.837463956326246">
        <ele>2129.9400000000001</ele>
        <time>2018-03-02T12:58:00Z</time>
      </trkpt>
      <trkpt lat="46.39535604044795" lon="11.837432608008385">
        <ele>2129.46</ele>
        <time>2018-03-02T12:58:03Z</time>
      </trkpt>
      <trkpt lat="46.395263588055968" lon="11.837354488670826">
        <ele>2127.5300000000002</ele>
        <time>2018-03-02T12:58:13Z</time>
      </trkpt>
      <trkpt lat="46.395162083208561" lon="11.837264550849795">
        <ele>2126.5700000000002</ele>
        <time>2018-03-02T12:58:23Z</time>
      </trkpt>
      <trkpt lat="46.395066445693374" lon="11.837167572230101">
        <ele>2125.6100000000001</ele>
        <time>2018-03-02T12:58:34Z</time>
      </trkpt>
      <trkpt lat="46.395057644695044" lon="11.837157933041453">
        <ele>2125.1300000000001</ele>
        <time>2018-03-02T12:58:35Z</time>
      </trkpt>
      <trkpt lat="46.39495488256216" lon="11.837075874209404">
        <ele>2124.1700000000001</ele>
        <time>2018-03-02T12:58:46Z</time>
      </trkpt>
      <trkpt lat="46.3949045073241" lon="11.837046789005399">
        <ele>2123.21</ele>
        <time>2018-03-02T12:58:51Z</time>
      </trkpt>
      <trkpt lat="46.394834853708744" lon="11.836977722123265">
        <ele>2122.73</ele>
        <time>2018-03-02T12:58:58Z</time>
      </trkpt>
      <trkpt lat="46.394792441278696" lon="11.836943188682199">
        <ele>2122.25</ele>
        <time>2018-03-02T12:59:03Z</time>
      </trkpt>
      <trkpt lat="46.394765954464674" lon="11.836912678554654">
        <ele>2121.77</ele>
        <time>2018-03-02T12:59:06Z</time>
      </trkpt>
      <trkpt lat="46.394669059664011" lon="11.836835145950317">
        <ele>2121.29</ele>
        <time>2018-03-02T12:59:16Z</time>
      </trkpt>
      <trkpt lat="46.394590772688389" lon="11.83677320368588">
        <ele>2120.8099999999999</ele>
        <time>2018-03-02T12:59:25Z</time>
      </trkpt>
      <trkpt lat="46.394552299752831" lon="11.836731294170022">
        <ele>2121.29</ele>
        <time>2018-03-02T12:59:30Z</time>
      </trkpt>
      <trkpt lat="46.394494883716106" lon="11.836689049378037">
        <ele>2121.29</ele>
        <time>2018-03-02T12:59:36Z</time>
      </trkpt>
      <trkpt lat="46.394460601732135" lon="11.836650744080544">
        <ele>2121.77</ele>
        <time>2018-03-02T12:59:41Z</time>
      </trkpt>
      <trkpt lat="46.394415590912104" lon="11.836633225902915">
        <ele>2121.77</ele>
        <time>2018-03-02T12:59:46Z</time>
      </trkpt>
      <trkpt lat="46.394350966438651" lon="11.836593579500914">
        <ele>2121.77</ele>
        <time>2018-03-02T12:59:53Z</time>
      </trkpt>
      <trkpt lat="46.394237307831645" lon="11.836508000269532">
        <ele>2120.3200000000002</ele>
        <time>2018-03-02T13:00:05Z</time>
      </trkpt>
      <trkpt lat="46.394205624237657" lon="11.836482686921954">
        <ele>2119.8400000000001</ele>
        <time>2018-03-02T13:00:08Z</time>
      </trkpt>
      <trkpt lat="46.394123062491417" lon="11.83643457479775">
        <ele>2119.8400000000001</ele>
        <time>2018-03-02T13:00:17Z</time>
      </trkpt>
      <trkpt lat="46.394111914560199" lon="11.836429126560688">
        <ele>2119.8400000000001</ele>
        <time>2018-03-02T13:00:18Z</time>
      </trkpt>
      <trkpt lat="46.394015774130821" lon="11.836362909525633">
        <ele>2118.8800000000001</ele>
        <time>2018-03-02T13:00:28Z</time>
      </trkpt>
      <trkpt lat="46.393996076658368" lon="11.836346564814448">
        <ele>2118.8800000000001</ele>
        <time>2018-03-02T13:00:30Z</time>
      </trkpt>
      <trkpt lat="46.393911084160209" lon="11.836271127685905">
        <ele>2117.9200000000001</ele>
        <time>2018-03-02T13:00:40Z</time>
      </trkpt>
      <trkpt lat="46.393821900710464" lon="11.83620641939342">
        <ele>2116.96</ele>
        <time>2018-03-02T13:00:50Z</time>
      </trkpt>
      <trkpt lat="46.393770184367895" lon="11.836164426058531">
        <ele>2116.96</ele>
        <time>2018-03-02T13:00:56Z</time>
      </trkpt>
      <trkpt lat="46.393680917099118" lon="11.836076248437166">
        <ele>2116.48</ele>
        <time>2018-03-02T13:01:07Z</time>
      </trkpt>
      <trkpt lat="46.393598020076752" lon="11.836001314222813">
        <ele>2115.04</ele>
        <time>2018-03-02T13:01:17Z</time>
      </trkpt>
      <trkpt lat="46.393521577119827" lon="11.835948927327991">
        <ele>2113.5999999999999</ele>
        <time>2018-03-02T13:01:25Z</time>
      </trkpt>
      <trkpt lat="46.393433567136526" lon="11.835894025862217">
        <ele>2112.1500000000001</ele>
        <time>2018-03-02T13:01:34Z</time>
      </trkpt>
      <trkpt lat="46.393347149714828" lon="11.835846081376076">
        <ele>2110.23</ele>
        <time>2018-03-02T13:01:44Z</time>
      </trkpt>
      <trkpt lat="46.393261821940541" lon="11.835788581520319">
        <ele>2108.3099999999999</ele>
        <time>2018-03-02T13:01:54Z</time>
      </trkpt>
      <trkpt lat="46.393172051757574" lon="11.835721945390105">
        <ele>2106.3899999999999</ele>
        <time>2018-03-02T13:02:04Z</time>
      </trkpt>
      <trkpt lat="46.393074318766594" lon="11.835648352280259">
        <ele>2104.9400000000001</ele>
        <time>2018-03-02T13:02:15Z</time>
      </trkpt>
      <trkpt lat="46.393009191378951" lon="11.835597306489944">
        <ele>2103.98</ele>
        <time>2018-03-02T13:02:22Z</time>
      </trkpt>
      <trkpt lat="46.392989326268435" lon="11.835582219064236">
        <ele>2103.5</ele>
        <time>2018-03-02T13:02:24Z</time>
      </trkpt>
      <trkpt lat="46.392893688753247" lon="11.835521198809147">
        <ele>2102.0599999999999</ele>
        <time>2018-03-02T13:02:34Z</time>
      </trkpt>
      <trkpt lat="46.392885306850076" lon="11.83551549911499">
        <ele>2102.0599999999999</ele>
        <time>2018-03-02T13:02:35Z</time>
      </trkpt>
      <trkpt lat="46.392792100086808" lon="11.835432015359402">
        <ele>2100.6199999999999</ele>
        <time>2018-03-02T13:02:45Z</time>
      </trkpt>
      <trkpt lat="46.392762511968613" lon="11.835403768345714">
        <ele>2100.6199999999999</ele>
        <time>2018-03-02T13:02:49Z</time>
      </trkpt>
      <trkpt lat="46.392704676836729" lon="11.835344089195132">
        <ele>2100.1399999999999</ele>
        <time>2018-03-02T13:03:01Z</time>
      </trkpt>
      <trkpt lat="46.392630832269788" lon="11.835285080596805">
        <ele>2099.1799999999998</ele>
        <time>2018-03-02T13:03:09Z</time>
      </trkpt>
      <trkpt lat="46.392612559720874" lon="11.835274184122682">
        <ele>2099.1799999999998</ele>
        <time>2018-03-02T13:03:11Z</time>
      </trkpt>
      <trkpt lat="46.392515664920211" lon="11.835201513022184">
        <ele>2097.73</ele>
        <time>2018-03-02T13:03:21Z</time>
      </trkpt>
      <trkpt lat="46.392464283853769" lon="11.835155915468931">
        <ele>2096.77</ele>
        <time>2018-03-02T13:03:27Z</time>
      </trkpt>
      <trkpt lat="46.392443915829062" lon="11.835132865235209">
        <ele>2097.25</ele>
        <time>2018-03-02T13:03:29Z</time>
      </trkpt>
      <trkpt lat="46.392383733764291" lon="11.83507570065558">
        <ele>2096.29</ele>
        <time>2018-03-02T13:03:36Z</time>
      </trkpt>
      <trkpt lat="46.392293376848102" lon="11.83497017249465">
        <ele>2096.29</ele>
        <time>2018-03-02T13:03:47Z</time>
      </trkpt>
      <trkpt lat="46.392220705747604" lon="11.834881575778127">
        <ele>2095.8099999999999</ele>
        <time>2018-03-02T13:03:57Z</time>
      </trkpt>
      <trkpt lat="46.392132192850113" lon="11.83476883918047">
        <ele>2095.3299999999999</ele>
        <time>2018-03-02T13:04:08Z</time>
      </trkpt>
      <trkpt lat="46.392106879502535" lon="11.83473807759583">
        <ele>2095.3299999999999</ele>
        <time>2018-03-02T13:04:11Z</time>
      </trkpt>
      <trkpt lat="46.392070166766644" lon="11.834703795611858">
        <ele>2094.8499999999999</ele>
        <time>2018-03-02T13:04:16Z</time>
      </trkpt>
      <trkpt lat="46.392049547284842" lon="11.834674039855599">
        <ele>2094.8499999999999</ele>
        <time>2018-03-02T13:04:19Z</time>
      </trkpt>
      <trkpt lat="46.392007386311889" lon="11.834628358483315">
        <ele>2094.8499999999999</ele>
        <time>2018-03-02T13:04:24Z</time>
      </trkpt>
      <trkpt lat="46.391971260309219" lon="11.834576139226556">
        <ele>2094.3699999999999</ele>
        <time>2018-03-02T13:04:29Z</time>
      </trkpt>
      <trkpt lat="46.391946030780673" lon="11.834544707089663">
        <ele>2094.3699999999999</ele>
        <time>2018-03-02T13:04:32Z</time>
      </trkpt>
      <trkpt lat="46.391869420185685" lon="11.834464659914374">
        <ele>2094.8499999999999</ele>
        <time>2018-03-02T13:04:42Z</time>
      </trkpt>
      <trkpt lat="46.39178853482008" lon="11.834397856146097">
        <ele>2094.3699999999999</ele>
        <time>2018-03-02T13:04:52Z</time>
      </trkpt>
      <trkpt lat="46.391716198995709" lon="11.834344547241926">
        <ele>2093.8899999999999</ele>
        <time>2018-03-02T13:05:01Z</time>
      </trkpt>
      <trkpt lat="46.391706643626094" lon="11.834340943023562">
        <ele>2093.8899999999999</ele>
        <time>2018-03-02T13:05:02Z</time>
      </trkpt>
      <trkpt lat="46.391662135720253" lon="11.834293585270643">
        <ele>2093.4099999999999</ele>
        <time>2018-03-02T13:05:07Z</time>
      </trkpt>
      <trkpt lat="46.391650065779686" lon="11.834277911111712">
        <ele>2093.4099999999999</ele>
        <time>2018-03-02T13:05:09Z</time>
      </trkpt>
      <trkpt lat="46.391566582024097" lon="11.834220327436924">
        <ele>2093.4099999999999</ele>
        <time>2018-03-02T13:05:19Z</time>
      </trkpt>
      <trkpt lat="46.391557026654482" lon="11.834216974675655">
        <ele>2093.4099999999999</ele>
        <time>2018-03-02T13:05:20Z</time>
      </trkpt>
      <trkpt lat="46.391552332788706" lon="11.834205323830247">
        <ele>2093.4099999999999</ele>
        <time>2018-03-02T13:05:31Z</time>
      </trkpt>
      <trkpt lat="46.391475973650813" lon="11.834168191999197">
        <ele>2092.9299999999998</ele>
        <time>2018-03-02T13:05:43Z</time>
      </trkpt>
      <trkpt lat="46.391375726088881" lon="11.834107087925076">
        <ele>2093.4099999999999</ele>
        <time>2018-03-02T13:05:54Z</time>
      </trkpt>
      <trkpt lat="46.391269946470857" lon="11.834067609161139">
        <ele>2092.4499999999998</ele>
        <time>2018-03-02T13:06:05Z</time>
      </trkpt>
      <trkpt lat="46.391201382502913" lon="11.834027292206883">
        <ele>2091.9699999999998</ele>
        <time>2018-03-02T13:06:14Z</time>
      </trkpt>
      <trkpt lat="46.391142122447491" lon="11.833997033536434">
        <ele>2091.9699999999998</ele>
        <time>2018-03-02T13:06:21Z</time>
      </trkpt>
      <trkpt lat="46.391062662005424" lon="11.833941712975502">
        <ele>2091.4899999999998</ele>
        <time>2018-03-02T13:06:30Z</time>
      </trkpt>
      <trkpt lat="46.391054699197412" lon="11.833935594186187">
        <ele>2091.4899999999998</ele>
        <time>2018-03-02T13:06:31Z</time>
      </trkpt>
      <trkpt lat="46.39099401421845" lon="11.833896199241281">
        <ele>2091</ele>
        <time>2018-03-02T13:06:38Z</time>
      </trkpt>
      <trkpt lat="46.390905417501926" lon="11.833810284733772">
        <ele>2089.5599999999999</ele>
        <time>2018-03-02T13:06:49Z</time>
      </trkpt>
      <trkpt lat="46.390869542956352" lon="11.833783630281687">
        <ele>2089.0799999999999</ele>
        <time>2018-03-02T13:06:53Z</time>
      </trkpt>
      <trkpt lat="46.3908083550632" lon="11.833752617239952">
        <ele>2088.1199999999999</ele>
        <time>2018-03-02T13:07:01Z</time>
      </trkpt>
      <trkpt lat="46.390809696167707" lon="11.833694698289037">
        <ele>2087.6399999999999</ele>
        <time>2018-03-02T13:07:08Z</time>
      </trkpt>
      <trkpt lat="46.390821095556021" lon="11.833623368293047">
        <ele>2087.1599999999999</ele>
        <time>2018-03-02T13:07:18Z</time>
      </trkpt>
      <trkpt lat="46.390835009515285" lon="11.833653207868338">
        <ele>2087.1599999999999</ele>
        <time>2018-03-02T13:07:35Z</time>
      </trkpt>
      <trkpt lat="46.390824448317289" lon="11.833623619750142">
        <ele>2086.6799999999998</ele>
        <time>2018-03-02T13:07:43Z</time>
      </trkpt>
      <trkpt lat="46.390821011736989" lon="11.833606520667672">
        <ele>2087.1599999999999</ele>
        <time>2018-03-02T13:07:56Z</time>
      </trkpt>
      <trkpt lat="46.390825789421797" lon="11.833627223968506">
        <ele>2087.1599999999999</ele>
        <time>2018-03-02T13:08:04Z</time>
      </trkpt>
      <trkpt lat="46.390825705602765" lon="11.833627643063664">
        <ele>2086.6799999999998</ele>
        <time>2018-03-02T13:08:13Z</time>
      </trkpt>
      <trkpt lat="46.390837859362364" lon="11.833630576729774">
        <ele>2086.1999999999998</ele>
        <time>2018-03-02T13:08:29Z</time>
      </trkpt>
      <trkpt lat="46.390830231830478" lon="11.833619009703398">
        <ele>2086.1999999999998</ele>
        <time>2018-03-02T13:08:57Z</time>
      </trkpt>
      <trkpt lat="46.390820508822799" lon="11.83361666277051">
        <ele>2086.1999999999998</ele>
        <time>2018-03-02T13:09:12Z</time>
      </trkpt>
      <trkpt lat="46.390831153839827" lon="11.833612890914083">
        <ele>2086.6799999999998</ele>
        <time>2018-03-02T13:09:31Z</time>
      </trkpt>
      <trkpt lat="46.390841463580728" lon="11.833618925884366">
        <ele>2087.1599999999999</ele>
        <time>2018-03-02T13:09:42Z</time>
      </trkpt>
      <trkpt lat="46.390846241265535" lon="11.83363183401525">
        <ele>2087.6399999999999</ele>
        <time>2018-03-02T13:09:52Z</time>
      </trkpt>
      <trkpt lat="46.390846995636821" lon="11.833640886470675">
        <ele>2087.6399999999999</ele>
        <time>2018-03-02T13:10:10Z</time>
      </trkpt>
      <trkpt lat="46.390843475237489" lon="11.833650609478354">
        <ele>2087.6399999999999</ele>
        <time>2018-03-02T13:10:28Z</time>
      </trkpt>
      <trkpt lat="46.39084305614233" lon="11.833628145977855">
        <ele>2087.6399999999999</ele>
        <time>2018-03-02T13:10:44Z</time>
      </trkpt>
      <trkpt lat="46.390834590420127" lon="11.833638958632946">
        <ele>2086.6799999999998</ele>
        <time>2018-03-02T13:10:58Z</time>
      </trkpt>
      <trkpt lat="46.390839871019125" lon="11.83364063501358">
        <ele>2088.1199999999999</ele>
        <time>2018-03-02T13:11:02Z</time>
      </trkpt>
      <trkpt lat="46.390838865190744" lon="11.833624793216586">
        <ele>2087.6399999999999</ele>
        <time>2018-03-02T13:11:10Z</time>
      </trkpt>
      <trkpt lat="46.390836015343666" lon="11.833612387999892">
        <ele>2087.6399999999999</ele>
        <time>2018-03-02T13:11:19Z</time>
      </trkpt>
      <trkpt lat="46.390843810513616" lon="11.833627475425601">
        <ele>2087.1599999999999</ele>
        <time>2018-03-02T13:11:33Z</time>
      </trkpt>
      <trkpt lat="46.390849929302931" lon="11.833628816530108">
        <ele>2087.6399999999999</ele>
        <time>2018-03-02T13:11:55Z</time>
      </trkpt>
      <trkpt lat="46.390841295942664" lon="11.833630912005901">
        <ele>2087.6399999999999</ele>
        <time>2018-03-02T13:12:15Z</time>
      </trkpt>
      <trkpt lat="46.390840541571379" lon="11.833638204261661">
        <ele>2088.1199999999999</ele>
        <time>2018-03-02T13:12:38Z</time>
      </trkpt>
      <trkpt lat="46.390823358669877" lon="11.833674916997552">
        <ele>2088.1199999999999</ele>
        <time>2018-03-02T13:12:44Z</time>
      </trkpt>
      <trkpt lat="46.390770217403769" lon="11.833714228123426">
        <ele>2087.1599999999999</ele>
        <time>2018-03-02T13:12:50Z</time>
      </trkpt>
      <trkpt lat="46.390593107789755" lon="11.833683466538787">
        <ele>2083.79</ele>
        <time>2018-03-02T13:13:04Z</time>
      </trkpt>
      <trkpt lat="46.390582043677568" lon="11.833683717995882">
        <ele>2083.3099999999999</ele>
        <time>2018-03-02T13:13:05Z</time>
      </trkpt>
      <trkpt lat="46.390454052016139" lon="11.833662176504731">
        <ele>2081.3899999999999</ele>
        <time>2018-03-02T13:13:16Z</time>
      </trkpt>
      <trkpt lat="46.390322959050536" lon="11.83364063501358">
        <ele>2078.9899999999998</ele>
        <time>2018-03-02T13:13:27Z</time>
      </trkpt>
      <trkpt lat="46.390203097835183" lon="11.83363476768136">
        <ele>2076.5900000000001</ele>
        <time>2018-03-02T13:13:37Z</time>
      </trkpt>
      <trkpt lat="46.390089774504304" lon="11.833637449890375">
        <ele>2073.6999999999998</ele>
        <time>2018-03-02T13:13:47Z</time>
      </trkpt>
      <trkpt lat="46.389945605769753" lon="11.833638790994883">
        <ele>2071.3000000000002</ele>
        <time>2018-03-02T13:13:59Z</time>
      </trkpt>
      <trkpt lat="46.38981107622385" lon="11.833636276423931">
        <ele>2069.3800000000001</ele>
        <time>2018-03-02T13:14:11Z</time>
      </trkpt>
      <trkpt lat="46.389670511707664" lon="11.833641640841961">
        <ele>2067.9299999999998</ele>
        <time>2018-03-02T13:14:23Z</time>
      </trkpt>
      <trkpt lat="46.389660369604826" lon="11.833640048280358">
        <ele>2067.4499999999998</ele>
        <time>2018-03-02T13:14:24Z</time>
      </trkpt>
      <trkpt lat="46.389626087620854" lon="11.833621272817254">
        <ele>2066.9699999999998</ele>
        <time>2018-03-02T13:14:27Z</time>
      </trkpt>
      <trkpt lat="46.389574958011508" lon="11.833549691364169">
        <ele>2066.0100000000002</ele>
        <time>2018-03-02T13:14:33Z</time>
      </trkpt>
      <trkpt lat="46.389567665755749" lon="11.833515744656324">
        <ele>2066.0100000000002</ele>
        <time>2018-03-02T13:14:35Z</time>
      </trkpt>
      <trkpt lat="46.389580406248569" lon="11.833475343883038">
        <ele>2065.5300000000002</ele>
        <time>2018-03-02T13:14:39Z</time>
      </trkpt>
      <trkpt lat="46.389597589150071" lon="11.833413820713758">
        <ele>2064.5700000000002</ele>
        <time>2018-03-02T13:14:43Z</time>
      </trkpt>
      <trkpt lat="46.389581998810172" lon="11.833345089107752">
        <ele>2063.1300000000001</ele>
        <time>2018-03-02T13:14:48Z</time>
      </trkpt>
      <trkpt lat="46.389566827565432" lon="11.833263281732798">
        <ele>2061.6799999999998</ele>
        <time>2018-03-02T13:14:53Z</time>
      </trkpt>
      <trkpt lat="46.389560541138053" lon="11.833172840997577">
        <ele>2059.7600000000002</ele>
        <time>2018-03-02T13:14:59Z</time>
      </trkpt>
      <trkpt lat="46.389553332701325" lon="11.83300293982029">
        <ele>2056.8800000000001</ele>
        <time>2018-03-02T13:15:10Z</time>
      </trkpt>
      <trkpt lat="46.389628266915679" lon="11.83290378190577">
        <ele>2054.96</ele>
        <time>2018-03-02T13:15:19Z</time>
      </trkpt>
      <trkpt lat="46.389637067914009" lon="11.832894813269377">
        <ele>2054.4699999999998</ele>
        <time>2018-03-02T13:15:20Z</time>
      </trkpt>
      <trkpt lat="46.389711247757077" lon="11.832844102755189">
        <ele>2053.0300000000002</ele>
        <time>2018-03-02T13:15:28Z</time>
      </trkpt>
      <trkpt lat="46.389754079282284" lon="11.832810491323471">
        <ele>2052.0700000000002</ele>
        <time>2018-03-02T13:15:33Z</time>
      </trkpt>
      <trkpt lat="46.389770675450563" lon="11.832725582644343">
        <ele>2051.1100000000001</ele>
        <time>2018-03-02T13:15:40Z</time>
      </trkpt>
      <trkpt lat="46.389769753441215" lon="11.832705046981573">
        <ele>2051.5900000000001</ele>
        <time>2018-03-02T13:15:47Z</time>
      </trkpt>
      <trkpt lat="46.389747709035873" lon="11.832616282626987">
        <ele>2049.1900000000001</ele>
        <time>2018-03-02T13:15:56Z</time>
      </trkpt>
      <trkpt lat="46.389760617166758" lon="11.832497091963887">
        <ele>2046.78</ele>
        <time>2018-03-02T13:16:05Z</time>
      </trkpt>
      <trkpt lat="46.389773106202483" lon="11.832451159134507">
        <ele>2045.8199999999999</ele>
        <time>2018-03-02T13:16:09Z</time>
      </trkpt>
      <trkpt lat="46.389788025990129" lon="11.832397850230336">
        <ele>2044.8599999999999</ele>
        <time>2018-03-02T13:16:13Z</time>
      </trkpt>
      <trkpt lat="46.389810992404819" lon="11.832366418093443">
        <ele>2044.3800000000001</ele>
        <time>2018-03-02T13:16:16Z</time>
      </trkpt>
      <trkpt lat="46.3898672349751" lon="11.832337081432343">
        <ele>2042.9400000000001</ele>
        <time>2018-03-02T13:16:22Z</time>
      </trkpt>
      <trkpt lat="46.389956837520003" lon="11.832297770306468">
        <ele>2041.02</ele>
        <time>2018-03-02T13:16:32Z</time>
      </trkpt>
      <trkpt lat="46.38998894020915" lon="11.832274049520493">
        <ele>2040.54</ele>
        <time>2018-03-02T13:16:36Z</time>
      </trkpt>
      <trkpt lat="46.390048451721668" lon="11.832244042307138">
        <ele>2039.5699999999999</ele>
        <time>2018-03-02T13:16:43Z</time>
      </trkpt>
      <trkpt lat="46.390081560239196" lon="11.832214538007975">
        <ele>2039.0899999999999</ele>
        <time>2018-03-02T13:16:47Z</time>
      </trkpt>
      <trkpt lat="46.39012866653502" lon="11.83218888938427">
        <ele>2038.1300000000001</ele>
        <time>2018-03-02T13:16:55Z</time>
      </trkpt>
      <trkpt lat="46.390163954347372" lon="11.832140777260065">
        <ele>2038.1300000000001</ele>
        <time>2018-03-02T13:17:02Z</time>
      </trkpt>
      <trkpt lat="46.390191027894616" lon="11.83210289105773">
        <ele>2038.1300000000001</ele>
        <time>2018-03-02T13:17:06Z</time>
      </trkpt>
      <trkpt lat="46.390207707881927" lon="11.832087216898799">
        <ele>2037.6500000000001</ele>
        <time>2018-03-02T13:17:08Z</time>
      </trkpt>
      <trkpt lat="46.390243917703629" lon="11.832053521648049">
        <ele>2037.1700000000001</ele>
        <time>2018-03-02T13:17:12Z</time>
      </trkpt>
      <trkpt lat="46.390287755057216" lon="11.832021921873093">
        <ele>2037.1700000000001</ele>
        <time>2018-03-02T13:17:17Z</time>
      </trkpt>
      <trkpt lat="46.390303848311305" lon="11.832003649324179">
        <ele>2036.6900000000001</ele>
        <time>2018-03-02T13:17:19Z</time>
      </trkpt>
      <trkpt lat="46.390358665958047" lon="11.831969618797302">
        <ele>2036.21</ele>
        <time>2018-03-02T13:17:25Z</time>
      </trkpt>
      <trkpt lat="46.390433013439178" lon="11.831902731209993">
        <ele>2034.77</ele>
        <time>2018-03-02T13:17:34Z</time>
      </trkpt>
      <trkpt lat="46.390440640971065" lon="11.831893511116505">
        <ele>2034.77</ele>
        <time>2018-03-02T13:17:35Z</time>
      </trkpt>
      <trkpt lat="46.390479533001781" lon="11.831848248839378">
        <ele>2033.3299999999999</ele>
        <time>2018-03-02T13:17:40Z</time>
      </trkpt>
      <trkpt lat="46.390511300414801" lon="11.83182536624372">
        <ele>2033.3299999999999</ele>
        <time>2018-03-02T13:17:43Z</time>
      </trkpt>
      <trkpt lat="46.390574751421809" lon="11.831785216927528">
        <ele>2032.8399999999999</ele>
        <time>2018-03-02T13:17:52Z</time>
      </trkpt>
      <trkpt lat="46.390647003427148" lon="11.831737942993641">
        <ele>2031.8800000000001</ele>
        <time>2018-03-02T13:18:00Z</time>
      </trkpt>
      <trkpt lat="46.390702910721302" lon="11.831706007942557">
        <ele>2030.9200000000001</ele>
        <time>2018-03-02T13:18:06Z</time>
      </trkpt>
      <trkpt lat="46.390718836337328" lon="11.831688908860087">
        <ele>2030.9200000000001</ele>
        <time>2018-03-02T13:18:08Z</time>
      </trkpt>
      <trkpt lat="46.39082495123148" lon="11.83158790692687">
        <ele>2028.52</ele>
        <time>2018-03-02T13:18:20Z</time>
      </trkpt>
      <trkpt lat="46.390855461359024" lon="11.83154926635325">
        <ele>2027.5599999999999</ele>
        <time>2018-03-02T13:18:24Z</time>
      </trkpt>
      <trkpt lat="46.390901478007436" lon="11.831500651314855">
        <ele>2026.5999999999999</ele>
        <time>2018-03-02T13:18:29Z</time>
      </trkpt>
      <trkpt lat="46.390957720577717" lon="11.831457987427711">
        <ele>2025.6400000000001</ele>
        <time>2018-03-02T13:18:35Z</time>
      </trkpt>
      <trkpt lat="46.390973730012774" lon="11.831437619403005">
        <ele>2025.1500000000001</ele>
        <time>2018-03-02T13:18:37Z</time>
      </trkpt>
      <trkpt lat="46.391005581244826" lon="11.831405768170953">
        <ele>2024.1900000000001</ele>
        <time>2018-03-02T13:18:41Z</time>
      </trkpt>
      <trkpt lat="46.391079090535641" lon="11.831365367397666">
        <ele>2022.75</ele>
        <time>2018-03-02T13:18:48Z</time>
      </trkpt>
      <trkpt lat="46.391188055276871" lon="11.831291187554598">
        <ele>2020.3499999999999</ele>
        <time>2018-03-02T13:18:59Z</time>
      </trkpt>
      <trkpt lat="46.391266761347651" lon="11.831222539767623">
        <ele>2018.4300000000001</ele>
        <time>2018-03-02T13:19:08Z</time>
      </trkpt>
      <trkpt lat="46.391314454376698" lon="11.831184905022383">
        <ele>2016.98</ele>
        <time>2018-03-02T13:19:13Z</time>
      </trkpt>
      <trkpt lat="46.391421239823103" lon="11.83111927472055">
        <ele>2014.5799999999999</ele>
        <time>2018-03-02T13:19:24Z</time>
      </trkpt>
      <trkpt lat="46.391485529020429" lon="11.831098403781652">
        <ele>2012.6600000000001</ele>
        <time>2018-03-02T13:19:32Z</time>
      </trkpt>
      <trkpt lat="46.391520313918591" lon="11.831092284992337">
        <ele>2011.7</ele>
        <time>2018-03-02T13:19:36Z</time>
      </trkpt>
      <trkpt lat="46.391577059403062" lon="11.831073174253106">
        <ele>2009.77</ele>
        <time>2018-03-02T13:19:42Z</time>
      </trkpt>
      <trkpt lat="46.391612766310573" lon="11.831065881997347">
        <ele>2009.29</ele>
        <time>2018-03-02T13:19:45Z</time>
      </trkpt>
      <trkpt lat="46.391632212325931" lon="11.831055488437414">
        <ele>2008.8099999999999</ele>
        <time>2018-03-02T13:19:47Z</time>
      </trkpt>
      <trkpt lat="46.391652664169669" lon="11.83105330914259">
        <ele>2008.3299999999999</ele>
        <time>2018-03-02T13:19:49Z</time>
      </trkpt>
      <trkpt lat="46.39168786816299" lon="11.831030678004026">
        <ele>2007.3699999999999</ele>
        <time>2018-03-02T13:19:53Z</time>
      </trkpt>
      <trkpt lat="46.391707314178348" lon="11.831019362434745">
        <ele>2007.3699999999999</ele>
        <time>2018-03-02T13:19:55Z</time>
      </trkpt>
      <trkpt lat="46.391752660274506" lon="11.831000586971641">
        <ele>2005.9300000000001</ele>
        <time>2018-03-02T13:19:59Z</time>
      </trkpt>
      <trkpt lat="46.391825247555971" lon="11.830985751003027">
        <ele>2004.49</ele>
        <time>2018-03-02T13:20:06Z</time>
      </trkpt>
      <trkpt lat="46.391864558681846" lon="11.830957587808371">
        <ele>2003.52</ele>
        <time>2018-03-02T13:20:10Z</time>
      </trkpt>
      <trkpt lat="46.391882663592696" lon="11.830927161499858">
        <ele>2003.04</ele>
        <time>2018-03-02T13:20:13Z</time>
      </trkpt>
      <trkpt lat="46.391947874799371" lon="11.830852059647441">
        <ele>2002.0799999999999</ele>
        <time>2018-03-02T13:20:20Z</time>
      </trkpt>
      <trkpt lat="46.392005877569318" lon="11.830783076584339">
        <ele>2000.6400000000001</ele>
        <time>2018-03-02T13:20:27Z</time>
      </trkpt>
      <trkpt lat="46.392067903652787" lon="11.830719206482172">
        <ele>2000.1600000000001</ele>
        <time>2018-03-02T13:20:34Z</time>
      </trkpt>
      <trkpt lat="46.392144095152617" lon="11.830599261447787">
        <ele>1997.76</ele>
        <time>2018-03-02T13:20:45Z</time>
      </trkpt>
      <trkpt lat="46.392164379358292" lon="11.830539498478174">
        <ele>1996.3199999999999</ele>
        <time>2018-03-02T13:20:49Z</time>
      </trkpt>
      <trkpt lat="46.392194554209709" lon="11.830501276999712">
        <ele>1995.8299999999999</ele>
        <time>2018-03-02T13:20:52Z</time>
      </trkpt>
      <trkpt lat="46.392209138721228" lon="11.830473784357309">
        <ele>1994.8699999999999</ele>
        <time>2018-03-02T13:20:54Z</time>
      </trkpt>
      <trkpt lat="46.392239900305867" lon="11.830426845699549">
        <ele>1993.9100000000001</ele>
        <time>2018-03-02T13:20:58Z</time>
      </trkpt>
      <trkpt lat="46.39230695553124" lon="11.830308996140957">
        <ele>1992.95</ele>
        <time>2018-03-02T13:21:07Z</time>
      </trkpt>
      <trkpt lat="46.39231625944376" lon="11.830287203192711">
        <ele>1991.51</ele>
        <time>2018-03-02T13:21:09Z</time>
      </trkpt>
      <trkpt lat="46.392385074868798" lon="11.830133143812418">
        <ele>1990.0699999999999</ele>
        <time>2018-03-02T13:21:20Z</time>
      </trkpt>
      <trkpt lat="46.392434611916542" lon="11.829999452456832">
        <ele>1988.6199999999999</ele>
        <time>2018-03-02T13:21:30Z</time>
      </trkpt>
      <trkpt lat="46.392477694898844" lon="11.829848578199744">
        <ele>1987.6600000000001</ele>
        <time>2018-03-02T13:21:41Z</time>
      </trkpt>
      <trkpt lat="46.39248875901103" lon="11.829820582643151">
        <ele>1987.1800000000001</ele>
        <time>2018-03-02T13:21:43Z</time>
      </trkpt>
      <trkpt lat="46.392493201419711" lon="11.829757383093238">
        <ele>1987.1800000000001</ele>
        <time>2018-03-02T13:21:48Z</time>
      </trkpt>
      <trkpt lat="46.392486076802015" lon="11.829682616516948">
        <ele>1986.7</ele>
        <time>2018-03-02T13:21:53Z</time>
      </trkpt>
      <trkpt lat="46.392487250268459" lon="11.829625116661191">
        <ele>1986.7</ele>
        <time>2018-03-02T13:21:57Z</time>
      </trkpt>
      <trkpt lat="46.392494458705187" lon="11.829596282914281">
        <ele>1986.7</ele>
        <time>2018-03-02T13:21:59Z</time>
      </trkpt>
      <trkpt lat="46.392557322978973" lon="11.829489497467875">
        <ele>1986.7</ele>
        <time>2018-03-02T13:22:09Z</time>
      </trkpt>
      <trkpt lat="46.392583725973964" lon="11.829452617093921">
        <ele>1987.1800000000001</ele>
        <time>2018-03-02T13:22:18Z</time>
      </trkpt>
      <trkpt lat="46.392634017392993" lon="11.829390339553356">
        <ele>1987.1800000000001</ele>
        <time>2018-03-02T13:22:25Z</time>
      </trkpt>
      <trkpt lat="46.392645416781306" lon="11.829381035640836">
        <ele>1986.7</ele>
        <time>2018-03-02T13:22:26Z</time>
      </trkpt>
      <trkpt lat="46.392710795626044" lon="11.829295707866549">
        <ele>1986.7</ele>
        <time>2018-03-02T13:22:34Z</time>
      </trkpt>
      <trkpt lat="46.392779359593987" lon="11.829201076179743">
        <ele>1986.7</ele>
        <time>2018-03-02T13:22:43Z</time>
      </trkpt>
      <trkpt lat="46.392839625477791" lon="11.829109461978078">
        <ele>1986.7</ele>
        <time>2018-03-02T13:22:51Z</time>
      </trkpt>
      <trkpt lat="46.392860412597656" lon="11.829074006527662">
        <ele>1986.7</ele>
        <time>2018-03-02T13:22:54Z</time>
      </trkpt>
      <trkpt lat="46.392950266599655" lon="11.828957330435514">
        <ele>1986.7</ele>
        <time>2018-03-02T13:23:05Z</time>
      </trkpt>
      <trkpt lat="46.392978513613343" lon="11.828934699296951">
        <ele>1986.7</ele>
        <time>2018-03-02T13:23:08Z</time>
      </trkpt>
      <trkpt lat="46.393029475584626" lon="11.828861106187105">
        <ele>1985.74</ele>
        <time>2018-03-02T13:23:14Z</time>
      </trkpt>
      <trkpt lat="46.393053028732538" lon="11.828834535554051">
        <ele>1985.74</ele>
        <time>2018-03-02T13:23:17Z</time>
      </trkpt>
      <trkpt lat="46.393132405355573" lon="11.828722972422838">
        <ele>1985.26</ele>
        <time>2018-03-02T13:23:27Z</time>
      </trkpt>
      <trkpt lat="46.393200717866421" lon="11.828629178926349">
        <ele>1985.26</ele>
        <time>2018-03-02T13:23:36Z</time>
      </trkpt>
      <trkpt lat="46.393219325691462" lon="11.828606883063912">
        <ele>1985.26</ele>
        <time>2018-03-02T13:23:38Z</time>
      </trkpt>
      <trkpt lat="46.393234748393297" lon="11.828572936356068">
        <ele>1984.78</ele>
        <time>2018-03-02T13:23:41Z</time>
      </trkpt>
      <trkpt lat="46.393281351774931" lon="11.828526249155402">
        <ele>1984.78</ele>
        <time>2018-03-02T13:23:46Z</time>
      </trkpt>
      <trkpt lat="46.393318902701139" lon="11.828474281355739">
        <ele>1984.3</ele>
        <time>2018-03-02T13:23:51Z</time>
      </trkpt>
      <trkpt lat="46.393352681770921" lon="11.828400688245893">
        <ele>1983.3399999999999</ele>
        <time>2018-03-02T13:23:57Z</time>
      </trkpt>
      <trkpt lat="46.393372882157564" lon="11.828365903347731">
        <ele>1982.8599999999999</ele>
        <time>2018-03-02T13:24:07Z</time>
      </trkpt>
      <trkpt lat="46.393336169421673" lon="11.828278312459588">
        <ele>1982.8599999999999</ele>
        <time>2018-03-02T13:24:16Z</time>
      </trkpt>
      <trkpt lat="46.393240951001644" lon="11.828217962756753">
        <ele>1982.8599999999999</ele>
        <time>2018-03-02T13:24:26Z</time>
      </trkpt>
      <trkpt lat="46.393098626285791" lon="11.828163312748075">
        <ele>1983.3399999999999</ele>
        <time>2018-03-02T13:24:40Z</time>
      </trkpt>
      <trkpt lat="46.393043389543891" lon="11.828152919188142">
        <ele>1983.3399999999999</ele>
        <time>2018-03-02T13:24:45Z</time>
      </trkpt>
      <trkpt lat="46.393026290461421" lon="11.82814353145659">
        <ele>1983.8199999999999</ele>
        <time>2018-03-02T13:24:47Z</time>
      </trkpt>
      <trkpt lat="46.392988823354244" lon="11.828134898096323">
        <ele>1983.8199999999999</ele>
        <time>2018-03-02T13:24:50Z</time>
      </trkpt>
      <trkpt lat="46.39289821498096" lon="11.828076057136059">
        <ele>1983.8199999999999</ele>
        <time>2018-03-02T13:24:58Z</time>
      </trkpt>
      <trkpt lat="46.39286887831986" lon="11.828045379370451">
        <ele>1983.8199999999999</ele>
        <time>2018-03-02T13:25:01Z</time>
      </trkpt>
      <trkpt lat="46.392810037359595" lon="11.827953429892659">
        <ele>1983.8199999999999</ele>
        <time>2018-03-02T13:25:09Z</time>
      </trkpt>
      <trkpt lat="46.392798637971282" lon="11.827933732420206">
        <ele>1984.3</ele>
        <time>2018-03-02T13:25:11Z</time>
      </trkpt>
      <trkpt lat="46.392714818939567" lon="11.827847314998507">
        <ele>1983.8199999999999</ele>
        <time>2018-03-02T13:25:20Z</time>
      </trkpt>
      <trkpt lat="46.39265832491219" lon="11.827854104340076">
        <ele>1983.3399999999999</ele>
        <time>2018-03-02T13:25:29Z</time>
      </trkpt>
      <trkpt lat="46.392657654359937" lon="11.82786650955677">
        <ele>1983.3399999999999</ele>
        <time>2018-03-02T13:25:30Z</time>
      </trkpt>
      <trkpt lat="46.392632927745581" lon="11.827836167067289">
        <ele>1982.3800000000001</ele>
        <time>2018-03-02T13:25:40Z</time>
      </trkpt>
      <trkpt lat="46.392637873068452" lon="11.827829042449594">
        <ele>1982.8599999999999</ele>
        <time>2018-03-02T13:25:54Z</time>
      </trkpt>
      <trkpt lat="46.392628401517868" lon="11.827828455716372">
        <ele>1982.8599999999999</ele>
        <time>2018-03-02T13:26:04Z</time>
      </trkpt>
      <trkpt lat="46.392653211951256" lon="11.827815212309361">
        <ele>1983.3399999999999</ele>
        <time>2018-03-02T13:26:20Z</time>
      </trkpt>
      <trkpt lat="46.392668215557933" lon="11.827872125431895">
        <ele>1983.3399999999999</ele>
        <time>2018-03-02T13:26:30Z</time>
      </trkpt>
      <trkpt lat="46.39266662299633" lon="11.827877992764115">
        <ele>1983.3399999999999</ele>
        <time>2018-03-02T13:26:44Z</time>
      </trkpt>
      <trkpt lat="46.392658492550254" lon="11.82785477489233">
        <ele>1983.3399999999999</ele>
        <time>2018-03-02T13:26:51Z</time>
      </trkpt>
      <trkpt lat="46.392644578590989" lon="11.827847147360444">
        <ele>1982.8599999999999</ele>
        <time>2018-03-02T13:27:01Z</time>
      </trkpt>
      <trkpt lat="46.392628904432058" lon="11.82785477489233">
        <ele>1982.8599999999999</ele>
        <time>2018-03-02T13:27:12Z</time>
      </trkpt>
      <trkpt lat="46.392638459801674" lon="11.827864414080977">
        <ele>1982.3800000000001</ele>
        <time>2018-03-02T13:27:21Z</time>
      </trkpt>
      <trkpt lat="46.392646254971623" lon="11.827845722436905">
        <ele>1982.3800000000001</ele>
        <time>2018-03-02T13:27:32Z</time>
      </trkpt>
      <trkpt lat="46.392642483115196" lon="11.827855361625552">
        <ele>1983.3399999999999</ele>
        <time>2018-03-02T13:27:58Z</time>
      </trkpt>
      <trkpt lat="46.392632927745581" lon="11.827850416302681">
        <ele>1979.97</ele>
        <time>2018-03-02T13:28:13Z</time>
      </trkpt>
      <trkpt lat="46.392633011564612" lon="11.827851925045252">
        <ele>1983.3399999999999</ele>
        <time>2018-03-02T13:28:14Z</time>
      </trkpt>
      <trkpt lat="46.392636699602008" lon="11.827842453494668">
        <ele>1983.8199999999999</ele>
        <time>2018-03-02T13:28:36Z</time>
      </trkpt>
      <trkpt lat="46.39264022000134" lon="11.827851170673966">
        <ele>1983.8199999999999</ele>
        <time>2018-03-02T13:28:54Z</time>
      </trkpt>
      <trkpt lat="46.392650445923209" lon="11.827838094905019">
        <ele>1983.8199999999999</ele>
        <time>2018-03-02T13:29:24Z</time>
      </trkpt>
      <trkpt lat="46.392664443701506" lon="11.827870700508356">
        <ele>1983.8199999999999</ele>
        <time>2018-03-02T13:29:53Z</time>
      </trkpt>
      <trkpt lat="46.392638543620706" lon="11.8279012106359">
        <ele>1983.8199999999999</ele>
        <time>2018-03-02T13:30:03Z</time>
      </trkpt>
      <trkpt lat="46.392612056806684" lon="11.827905401587486">
        <ele>1983.8199999999999</ele>
        <time>2018-03-02T13:30:11Z</time>
      </trkpt>
      <trkpt lat="46.39261532574892" lon="11.827904982492328">
        <ele>1983.8199999999999</ele>
        <time>2018-03-02T13:30:29Z</time>
      </trkpt>
      <trkpt lat="46.392583306878805" lon="11.827890649437904">
        <ele>1983.3399999999999</ele>
        <time>2018-03-02T13:30:48Z</time>
      </trkpt>
      <trkpt lat="46.39257232658565" lon="11.827913364395499">
        <ele>1983.8199999999999</ele>
        <time>2018-03-02T13:31:17Z</time>
      </trkpt>
      <trkpt lat="46.39258841983974" lon="11.827915543690324">
        <ele>1983.8199999999999</ele>
        <time>2018-03-02T13:31:44Z</time>
      </trkpt>
      <trkpt lat="46.392585653811693" lon="11.827911101281643">
        <ele>1983.8199999999999</ele>
        <time>2018-03-02T13:32:07Z</time>
      </trkpt>
      <trkpt lat="46.392579199746251" lon="11.82791437022388">
        <ele>1983.8199999999999</ele>
        <time>2018-03-02T13:32:35Z</time>
      </trkpt>
      <trkpt lat="46.392576098442078" lon="11.827963069081306">
        <ele>1984.3</ele>
        <time>2018-03-02T13:33:09Z</time>
      </trkpt>
      <trkpt lat="46.392549443989992" lon="11.82796424254775">
        <ele>1984.3</ele>
        <time>2018-03-02T13:33:43Z</time>
      </trkpt>
      <trkpt lat="46.392552377656102" lon="11.827954268082976">
        <ele>1984.78</ele>
        <time>2018-03-02T13:34:13Z</time>
      </trkpt>
      <trkpt lat="46.392570650205016" lon="11.827927110716701">
        <ele>1985.26</ele>
        <time>2018-03-02T13:34:44Z</time>
      </trkpt>
      <trkpt lat="46.392563106492162" lon="11.827958123758435">
        <ele>1985.26</ele>
        <time>2018-03-02T13:35:14Z</time>
      </trkpt>
      <trkpt lat="46.392551120370626" lon="11.827940857037902">
        <ele>1985.74</ele>
        <time>2018-03-02T13:35:39Z</time>
      </trkpt>
      <trkpt lat="46.392582971602678" lon="11.827885787934065">
        <ele>1985.74</ele>
        <time>2018-03-02T13:36:05Z</time>
      </trkpt>
      <trkpt lat="46.39259772375226" lon="11.827891068533063">
        <ele>1986.22</ele>
        <time>2018-03-02T13:36:36Z</time>
      </trkpt>
      <trkpt lat="46.392573500052094" lon="11.827873215079308">
        <ele>1986.22</ele>
        <time>2018-03-02T13:37:01Z</time>
      </trkpt>
      <trkpt lat="46.392559166997671" lon="11.827903473749757">
        <ele>1986.7</ele>
        <time>2018-03-02T13:37:26Z</time>
      </trkpt>
      <trkpt lat="46.392573500052094" lon="11.827883776277304">
        <ele>1987.1800000000001</ele>
        <time>2018-03-02T13:37:47Z</time>
      </trkpt>
      <trkpt lat="46.39258255250752" lon="11.827906910330057">
        <ele>1987.1800000000001</ele>
        <time>2018-03-02T13:38:10Z</time>
      </trkpt>
      <trkpt lat="46.392567297443748" lon="11.827928954735398">
        <ele>1987.6600000000001</ele>
        <time>2018-03-02T13:38:34Z</time>
      </trkpt>
      <trkpt lat="46.392556400969625" lon="11.827939264476299">
        <ele>1988.1400000000001</ele>
        <time>2018-03-02T13:38:59Z</time>
      </trkpt>
      <trkpt lat="46.392576433718204" lon="11.827966338023543">
        <ele>1988.1400000000001</ele>
        <time>2018-03-02T13:39:26Z</time>
      </trkpt>
      <trkpt lat="46.392591185867786" lon="11.827971953898668">
        <ele>1988.6199999999999</ele>
        <time>2018-03-02T13:40:00Z</time>
      </trkpt>
      <trkpt lat="46.39260845258832" lon="11.827940689399838">
        <ele>1989.0999999999999</ele>
        <time>2018-03-02T13:40:28Z</time>
      </trkpt>
      <trkpt lat="46.392598478123546" lon="11.827968098223209">
        <ele>1989.5899999999999</ele>
        <time>2018-03-02T13:40:58Z</time>
      </trkpt>
      <trkpt lat="46.392624797299504" lon="11.827993495389819">
        <ele>1990.0699999999999</ele>
        <time>2018-03-02T13:41:20Z</time>
      </trkpt>
      <trkpt lat="46.392631502822042" lon="11.828003888949752">
        <ele>1990.0699999999999</ele>
        <time>2018-03-02T13:41:40Z</time>
      </trkpt>
      <trkpt lat="46.392614403739572" lon="11.828001709654927">
        <ele>1990.0699999999999</ele>
        <time>2018-03-02T13:42:01Z</time>
      </trkpt>
      <trkpt lat="46.392634604126215" lon="11.827998356893659">
        <ele>1990.55</ele>
        <time>2018-03-02T13:42:23Z</time>
      </trkpt>
      <trkpt lat="46.392657570540905" lon="11.827949490398169">
        <ele>1990.55</ele>
        <time>2018-03-02T13:42:47Z</time>
      </trkpt>
      <trkpt lat="46.392607614398003" lon="11.827895008027554">
        <ele>1991.03</ele>
        <time>2018-03-02T13:43:14Z</time>
      </trkpt>
      <trkpt lat="46.392603926360607" lon="11.827870281413198">
        <ele>1991.03</ele>
        <time>2018-03-02T13:43:38Z</time>
      </trkpt>
      <trkpt lat="46.392596215009689" lon="11.827980168163776">
        <ele>1991.51</ele>
        <time>2018-03-02T13:44:03Z</time>
      </trkpt>
      <trkpt lat="46.392607530578971" lon="11.82800673879683">
        <ele>1991.99</ele>
        <time>2018-03-02T13:44:33Z</time>
      </trkpt>
      <trkpt lat="46.392594622448087" lon="11.827969355508685">
        <ele>1991.99</ele>
        <time>2018-03-02T13:44:59Z</time>
      </trkpt>
      <trkpt lat="46.392605435103178" lon="11.827952591702342">
        <ele>1992.95</ele>
        <time>2018-03-02T13:45:22Z</time>
      </trkpt>
      <trkpt lat="46.392588084563613" lon="11.827993243932724">
        <ele>1992.47</ele>
        <time>2018-03-02T13:45:48Z</time>
      </trkpt>
      <trkpt lat="46.392553634941578" lon="11.827985951676965">
        <ele>1992.95</ele>
        <time>2018-03-02T13:46:21Z</time>
      </trkpt>
      <trkpt lat="46.392583223059773" lon="11.827973714098334">
        <ele>1993.4300000000001</ele>
        <time>2018-03-02T13:46:41Z</time>
      </trkpt>
      <trkpt lat="46.39260845258832" lon="11.827971199527383">
        <ele>1993.4300000000001</ele>
        <time>2018-03-02T13:46:58Z</time>
      </trkpt>
      <trkpt lat="46.392658827826381" lon="11.827955106273293">
        <ele>1993.9100000000001</ele>
        <time>2018-03-02T13:47:17Z</time>
      </trkpt>
      <trkpt lat="46.392671735957265" lon="11.827976983040571">
        <ele>1994.8699999999999</ele>
        <time>2018-03-02T13:47:23Z</time>
      </trkpt>
      <trkpt lat="46.392664276063442" lon="11.82799500413239">
        <ele>1993.9100000000001</ele>
        <time>2018-03-02T13:47:42Z</time>
      </trkpt>
      <trkpt lat="46.392606943845749" lon="11.82795200496912">
        <ele>1993.9100000000001</ele>
        <time>2018-03-02T13:48:04Z</time>
      </trkpt>
      <trkpt lat="46.39259529300034" lon="11.827954184263945">
        <ele>1993.9100000000001</ele>
        <time>2018-03-02T13:48:30Z</time>
      </trkpt>
      <trkpt lat="46.392603171989322" lon="11.827964661642909">
        <ele>1994.3900000000001</ele>
        <time>2018-03-02T13:48:54Z</time>
      </trkpt>
      <trkpt lat="46.392647679895163" lon="11.827988130971789">
        <ele>1994.8699999999999</ele>
        <time>2018-03-02T13:49:19Z</time>
      </trkpt>
      <trkpt lat="46.392639968544245" lon="11.827985364943743">
        <ele>1994.3900000000001</ele>
        <time>2018-03-02T13:49:38Z</time>
      </trkpt>
      <trkpt lat="46.392595041543245" lon="11.827998356893659">
        <ele>1994.8699999999999</ele>
        <time>2018-03-02T13:50:09Z</time>
      </trkpt>
      <trkpt lat="46.392603842541575" lon="11.828002212569118">
        <ele>1995.3499999999999</ele>
        <time>2018-03-02T13:50:33Z</time>
      </trkpt>
      <trkpt lat="46.392600908875465" lon="11.827976647764444">
        <ele>1995.3499999999999</ele>
        <time>2018-03-02T13:50:55Z</time>
      </trkpt>
      <trkpt lat="46.392630245536566" lon="11.827981928363442">
        <ele>1995.3499999999999</ele>
        <time>2018-03-02T13:51:24Z</time>
      </trkpt>
      <trkpt lat="46.392581546679139" lon="11.828007996082306">
        <ele>1995.8299999999999</ele>
        <time>2018-03-02T13:51:51Z</time>
      </trkpt>
      <trkpt lat="46.392564699053764" lon="11.827979246154428">
        <ele>1995.8299999999999</ele>
        <time>2018-03-02T13:52:19Z</time>
      </trkpt>
      <trkpt lat="46.392569057643414" lon="11.827973043546081">
        <ele>1996.3199999999999</ele>
        <time>2018-03-02T13:52:46Z</time>
      </trkpt>
      <trkpt lat="46.392560675740242" lon="11.827984778210521">
        <ele>1996.3199999999999</ele>
        <time>2018-03-02T13:53:08Z</time>
      </trkpt>
      <trkpt lat="46.392562603577971" lon="11.827997267246246">
        <ele>1996.3199999999999</ele>
        <time>2018-03-02T13:53:33Z</time>
      </trkpt>
      <trkpt lat="46.392558328807354" lon="11.828011432662606">
        <ele>1996.8</ele>
        <time>2018-03-02T13:53:58Z</time>
      </trkpt>
      <trkpt lat="46.392537793144584" lon="11.828026687726378">
        <ele>1996.8</ele>
        <time>2018-03-02T13:54:27Z</time>
      </trkpt>
      <trkpt lat="46.392545001581311" lon="11.828013863414526">
        <ele>1997.28</ele>
        <time>2018-03-02T13:54:54Z</time>
      </trkpt>
      <trkpt lat="46.392558831721544" lon="11.828020485118032">
        <ele>1997.76</ele>
        <time>2018-03-02T13:55:23Z</time>
      </trkpt>
      <trkpt lat="46.392557406798005" lon="11.828023670241237">
        <ele>1997.76</ele>
        <time>2018-03-02T13:55:44Z</time>
      </trkpt>
      <trkpt lat="46.392548102885485" lon="11.828004894778132">
        <ele>1998.24</ele>
        <time>2018-03-02T13:56:13Z</time>
      </trkpt>
      <trkpt lat="46.392563693225384" lon="11.827999530360103">
        <ele>1998.24</ele>
        <time>2018-03-02T13:56:39Z</time>
      </trkpt>
      <trkpt lat="46.392603507265449" lon="11.82795493863523">
        <ele>1998.24</ele>
        <time>2018-03-02T13:57:05Z</time>
      </trkpt>
      <trkpt lat="46.392584061250091" lon="11.827963655814528">
        <ele>1998.72</ele>
        <time>2018-03-02T13:57:27Z</time>
      </trkpt>
      <trkpt lat="46.392617002129555" lon="11.827966589480639">
        <ele>1998.72</ele>
        <time>2018-03-02T13:57:50Z</time>
      </trkpt>
      <trkpt lat="46.392632005736232" lon="11.827974887564778">
        <ele>1998.72</ele>
        <time>2018-03-02T13:58:10Z</time>
      </trkpt>
      <trkpt lat="46.392629658803344" lon="11.827918896451592">
        <ele>1998.72</ele>
        <time>2018-03-02T13:58:36Z</time>
      </trkpt>
      <trkpt lat="46.392634687945247" lon="11.827903389930725">
        <ele>1998.72</ele>
        <time>2018-03-02T13:59:00Z</time>
      </trkpt>
      <trkpt lat="46.392607614398003" lon="11.827915627509356">
        <ele>1998.72</ele>
        <time>2018-03-02T13:59:17Z</time>
      </trkpt>
      <trkpt lat="46.392620857805014" lon="11.827908754348755">
        <ele>1998.72</ele>
        <time>2018-03-02T13:59:36Z</time>
      </trkpt>
      <trkpt lat="46.392653295770288" lon="11.82789727114141">
        <ele>1998.72</ele>
        <time>2018-03-02T13:59:56Z</time>
      </trkpt>
      <trkpt lat="46.392675926908851" lon="11.827876819297671">
        <ele>1998.24</ele>
        <time>2018-03-02T14:00:22Z</time>
      </trkpt>
      <trkpt lat="46.392643405124545" lon="11.827892577275634">
        <ele>1998.24</ele>
        <time>2018-03-02T14:00:41Z</time>
      </trkpt>
      <trkpt lat="46.392601579427719" lon="11.827890481799841">
        <ele>1998.24</ele>
        <time>2018-03-02T14:00:55Z</time>
      </trkpt>
      <trkpt lat="46.392588168382645" lon="11.827901629731059">
        <ele>1998.24</ele>
        <time>2018-03-02T14:01:15Z</time>
      </trkpt>
      <trkpt lat="46.392615828663111" lon="11.827921913936734">
        <ele>1998.24</ele>
        <time>2018-03-02T14:01:39Z</time>
      </trkpt>
      <trkpt lat="46.392605099827051" lon="11.827930295839906">
        <ele>1998.24</ele>
        <time>2018-03-02T14:01:58Z</time>
      </trkpt>
      <trkpt lat="46.392613565549254" lon="11.827937169000506">
        <ele>1998.24</ele>
        <time>2018-03-02T14:02:16Z</time>
      </trkpt>
      <trkpt lat="46.392603004351258" lon="11.82796373963356">
        <ele>1998.24</ele>
        <time>2018-03-02T14:02:39Z</time>
      </trkpt>
      <trkpt lat="46.392598981037736" lon="11.827958207577467">
        <ele>1998.24</ele>
        <time>2018-03-02T14:03:00Z</time>
      </trkpt>
      <trkpt lat="46.392570398747921" lon="11.827964661642909">
        <ele>1997.28</ele>
        <time>2018-03-02T14:03:12Z</time>
      </trkpt>
      <trkpt lat="46.392556484788656" lon="11.827943790704012">
        <ele>1997.76</ele>
        <time>2018-03-02T14:03:28Z</time>
      </trkpt>
      <trkpt lat="46.39256838709116" lon="11.827969020232558">
        <ele>1997.76</ele>
        <time>2018-03-02T14:03:48Z</time>
      </trkpt>
      <trkpt lat="46.392547348514199" lon="11.827981509268284">
        <ele>1997.76</ele>
        <time>2018-03-02T14:04:00Z</time>
      </trkpt>
      <trkpt lat="46.392534356564283" lon="11.82800866663456">
        <ele>1998.24</ele>
        <time>2018-03-02T14:04:10Z</time>
      </trkpt>
      <trkpt lat="46.392558664083481" lon="11.827976228669286">
        <ele>1997.76</ele>
        <time>2018-03-02T14:04:27Z</time>
      </trkpt>
      <trkpt lat="46.392535613849759" lon="11.827966254204512">
        <ele>1997.76</ele>
        <time>2018-03-02T14:04:34Z</time>
      </trkpt>
      <trkpt lat="46.392535530030727" lon="11.827946472913027">
        <ele>1998.24</ele>
        <time>2018-03-02T14:04:42Z</time>
      </trkpt>
      <trkpt lat="46.392565872520208" lon="11.827936498448253">
        <ele>1998.24</ele>
        <time>2018-03-02T14:04:55Z</time>
      </trkpt>
      <trkpt lat="46.392611134797335" lon="11.827916884794831">
        <ele>1998.24</ele>
        <time>2018-03-02T14:05:10Z</time>
      </trkpt>
      <trkpt lat="46.392602333799005" lon="11.827913699671626">
        <ele>1998.24</ele>
        <time>2018-03-02T14:05:18Z</time>
      </trkpt>
      <trkpt lat="46.392600741237402" lon="11.827908754348755">
        <ele>1999.6800000000001</ele>
        <time>2018-03-02T14:05:33Z</time>
      </trkpt>
      <trkpt lat="46.392588084563613" lon="11.827915711328387">
        <ele>1998.24</ele>
        <time>2018-03-02T14:05:48Z</time>
      </trkpt>
      <trkpt lat="46.392586240544915" lon="11.827929625287652">
        <ele>1998.24</ele>
        <time>2018-03-02T14:06:04Z</time>
      </trkpt>
      <trkpt lat="46.392568638548255" lon="11.827913532033563">
        <ele>1998.24</ele>
        <time>2018-03-02T14:06:19Z</time>
      </trkpt>
      <trkpt lat="46.392567548900843" lon="11.827924260869622">
        <ele>1997.76</ele>
        <time>2018-03-02T14:06:33Z</time>
      </trkpt>
      <trkpt lat="46.392557742074132" lon="11.827932978048921">
        <ele>1998.24</ele>
        <time>2018-03-02T14:06:47Z</time>
      </trkpt>
      <trkpt lat="46.392552126199007" lon="11.827928116545081">
        <ele>1998.24</ele>
        <time>2018-03-02T14:07:02Z</time>
      </trkpt>
      <trkpt lat="46.392570482566953" lon="11.827952759340405">
        <ele>1998.24</ele>
        <time>2018-03-02T14:07:12Z</time>
      </trkpt>
      <trkpt lat="46.392512144520879" lon="11.828031046316028">
        <ele>1998.24</ele>
        <time>2018-03-02T14:07:28Z</time>
      </trkpt>
      <trkpt lat="46.392516419291496" lon="11.827981173992157">
        <ele>1998.24</ele>
        <time>2018-03-02T14:07:36Z</time>
      </trkpt>
      <trkpt lat="46.392530668526888" lon="11.827980251982808">
        <ele>1998.72</ele>
        <time>2018-03-02T14:07:47Z</time>
      </trkpt>
      <trkpt lat="46.392534524202347" lon="11.82797254063189">
        <ele>1998.24</ele>
        <time>2018-03-02T14:08:01Z</time>
      </trkpt>
      <trkpt lat="46.392549779266119" lon="11.827966421842575">
        <ele>1998.24</ele>
        <time>2018-03-02T14:08:17Z</time>
      </trkpt>
      <trkpt lat="46.392540391534567" lon="11.82792853564024">
        <ele>1998.72</ele>
        <time>2018-03-02T14:08:28Z</time>
      </trkpt>
      <trkpt lat="46.392544414848089" lon="11.827912358567119">
        <ele>1998.24</ele>
        <time>2018-03-02T14:08:38Z</time>
      </trkpt>
      <trkpt lat="46.392524214461446" lon="11.827880507335067">
        <ele>1998.24</ele>
        <time>2018-03-02T14:08:47Z</time>
      </trkpt>
      <trkpt lat="46.392552126199007" lon="11.827865336090326">
        <ele>1998.24</ele>
        <time>2018-03-02T14:08:59Z</time>
      </trkpt>
      <trkpt lat="46.392546175047755" lon="11.827792748808861">
        <ele>1998.72</ele>
        <time>2018-03-02T14:09:08Z</time>
      </trkpt>
      <trkpt lat="46.392527231946588" lon="11.827744217589498">
        <ele>1998.72</ele>
        <time>2018-03-02T14:09:17Z</time>
      </trkpt>
      <trkpt lat="46.392519772052765" lon="11.82773457840085">
        <ele>1998.72</ele>
        <time>2018-03-02T14:09:19Z</time>
      </trkpt>
      <trkpt lat="46.39250778593123" lon="11.827739188447595">
        <ele>1998.72</ele>
        <time>2018-03-02T14:09:21Z</time>
      </trkpt>
      <trkpt lat="46.392401000484824" lon="11.827618069946766">
        <ele>1999.2</ele>
        <time>2018-03-02T14:09:33Z</time>
      </trkpt>
      <trkpt lat="46.392280552536249" lon="11.827499885112047">
        <ele>1998.72</ele>
        <time>2018-03-02T14:09:45Z</time>
      </trkpt>
      <trkpt lat="46.392249371856451" lon="11.827458813786507">
        <ele>1998.72</ele>
        <time>2018-03-02T14:09:48Z</time>
      </trkpt>
      <trkpt lat="46.392122218385339" lon="11.827325038611889">
        <ele>1998.24</ele>
        <time>2018-03-02T14:10:01Z</time>
      </trkpt>
      <trkpt lat="46.392024820670485" lon="11.827223030850291">
        <ele>1997.76</ele>
        <time>2018-03-02T14:10:11Z</time>
      </trkpt>
      <trkpt lat="46.391890458762646" lon="11.827111216261983">
        <ele>1997.28</ele>
        <time>2018-03-02T14:10:24Z</time>
      </trkpt>
      <trkpt lat="46.391819547861814" lon="11.826903764158487">
        <ele>1996.3199999999999</ele>
        <time>2018-03-02T14:10:37Z</time>
      </trkpt>
      <trkpt lat="46.391850393265486" lon="11.826679799705744">
        <ele>1993.9100000000001</ele>
        <time>2018-03-02T14:10:49Z</time>
      </trkpt>
      <trkpt lat="46.391883585602045" lon="11.826560525223613">
        <ele>1991.99</ele>
        <time>2018-03-02T14:10:57Z</time>
      </trkpt>
      <trkpt lat="46.391822397708893" lon="11.826408645138144">
        <ele>1990.55</ele>
        <time>2018-03-02T14:11:08Z</time>
      </trkpt>
      <trkpt lat="46.391787026077509" lon="11.826382409781218">
        <ele>1990.55</ele>
        <time>2018-03-02T14:11:11Z</time>
      </trkpt>
      <trkpt lat="46.39170597307384" lon="11.826307307928801">
        <ele>1991.03</ele>
        <time>2018-03-02T14:11:20Z</time>
      </trkpt>
      <trkpt lat="46.391687784343958" lon="11.826302614063025">
        <ele>1991.03</ele>
        <time>2018-03-02T14:11:22Z</time>
      </trkpt>
      <trkpt lat="46.391652412712574" lon="11.82626917026937">
        <ele>1991.03</ele>
        <time>2018-03-02T14:11:26Z</time>
      </trkpt>
      <trkpt lat="46.391532300040126" lon="11.826151236891747">
        <ele>1991.03</ele>
        <time>2018-03-02T14:11:39Z</time>
      </trkpt>
      <trkpt lat="46.391404559835792" lon="11.82601653970778">
        <ele>1990.0699999999999</ele>
        <time>2018-03-02T14:11:52Z</time>
      </trkpt>
      <trkpt lat="46.391289979219437" lon="11.825893577188253">
        <ele>1989.5899999999999</ele>
        <time>2018-03-02T14:12:04Z</time>
      </trkpt>
      <trkpt lat="46.391113037243485" lon="11.82572920806706">
        <ele>1988.6199999999999</ele>
        <time>2018-03-02T14:12:21Z</time>
      </trkpt>
      <trkpt lat="46.391043048352003" lon="11.825718311592937">
        <ele>1989.0999999999999</ele>
        <time>2018-03-02T14:12:28Z</time>
      </trkpt>
      <trkpt lat="46.390938023105264" lon="11.825725184753537">
        <ele>1990.0699999999999</ele>
        <time>2018-03-02T14:12:39Z</time>
      </trkpt>
      <trkpt lat="46.39084598980844" lon="11.825706325471401">
        <ele>1991.03</ele>
        <time>2018-03-02T14:12:49Z</time>
      </trkpt>
      <trkpt lat="46.390740796923637" lon="11.825698697939515">
        <ele>1991.99</ele>
        <time>2018-03-02T14:13:00Z</time>
      </trkpt>
      <trkpt lat="46.390674496069551" lon="11.82567355223">
        <ele>1991.99</ele>
        <time>2018-03-02T14:13:08Z</time>
      </trkpt>
      <trkpt lat="46.390561927109957" lon="11.825592666864395">
        <ele>1991.51</ele>
        <time>2018-03-02T14:13:20Z</time>
      </trkpt>
      <trkpt lat="46.39051859267056" lon="11.825546231120825">
        <ele>1991.51</ele>
        <time>2018-03-02T14:13:25Z</time>
      </trkpt>
      <trkpt lat="46.390505516901612" lon="11.82553231716156">
        <ele>1991.03</ele>
        <time>2018-03-02T14:13:34Z</time>
      </trkpt>
      <trkpt lat="46.390482131391764" lon="11.825554696843028">
        <ele>1991.03</ele>
        <time>2018-03-02T14:13:46Z</time>
      </trkpt>
      <trkpt lat="46.390476264059544" lon="11.825549332424998">
        <ele>1991.03</ele>
        <time>2018-03-02T14:13:47Z</time>
      </trkpt>
      <trkpt lat="46.390435695648193" lon="11.825535418465734">
        <ele>1990.55</ele>
        <time>2018-03-02T14:13:51Z</time>
      </trkpt>
      <trkpt lat="46.390330586582422" lon="11.82545411400497">
        <ele>1989.0999999999999</ele>
        <time>2018-03-02T14:14:03Z</time>
      </trkpt>
      <trkpt lat="46.390198571607471" lon="11.825389405712485">
        <ele>1987.6600000000001</ele>
        <time>2018-03-02T14:14:15Z</time>
      </trkpt>
      <trkpt lat="46.390049206092954" lon="11.825307933613658">
        <ele>1988.1400000000001</ele>
        <time>2018-03-02T14:14:29Z</time>
      </trkpt>
      <trkpt lat="46.390026910230517" lon="11.82529678568244">
        <ele>1988.1400000000001</ele>
        <time>2018-03-02T14:14:31Z</time>
      </trkpt>
      <trkpt lat="46.389880562201142" lon="11.825182624161243">
        <ele>1988.6199999999999</ele>
        <time>2018-03-02T14:14:47Z</time>
      </trkpt>
      <trkpt lat="46.389754582196474" lon="11.825061338022351">
        <ele>1989.5899999999999</ele>
        <time>2018-03-02T14:15:00Z</time>
      </trkpt>
      <trkpt lat="46.389655424281955" lon="11.824885401874781">
        <ele>1989.5899999999999</ele>
        <time>2018-03-02T14:15:13Z</time>
      </trkpt>
      <trkpt lat="46.389557356014848" lon="11.824763026088476">
        <ele>1989.0999999999999</ele>
        <time>2018-03-02T14:15:25Z</time>
      </trkpt>
      <trkpt lat="46.389439087361097" lon="11.824632603675127">
        <ele>1988.6199999999999</ele>
        <time>2018-03-02T14:15:38Z</time>
      </trkpt>
      <trkpt lat="46.389350155368447" lon="11.824513077735901">
        <ele>1989.0999999999999</ele>
        <time>2018-03-02T14:15:49Z</time>
      </trkpt>
      <trkpt lat="46.389252590015531" lon="11.824329178780317">
        <ele>1988.1400000000001</ele>
        <time>2018-03-02T14:16:02Z</time>
      </trkpt>
      <trkpt lat="46.389150330796838" lon="11.824094066396356">
        <ele>1988.6199999999999</ele>
        <time>2018-03-02T14:16:18Z</time>
      </trkpt>
      <trkpt lat="46.389083191752434" lon="11.82393254712224">
        <ele>1989.0999999999999</ele>
        <time>2018-03-02T14:16:30Z</time>
      </trkpt>
      <trkpt lat="46.389053855091333" lon="11.823885943740606">
        <ele>1989.0999999999999</ele>
        <time>2018-03-02T14:16:34Z</time>
      </trkpt>
      <trkpt lat="46.389020327478647" lon="11.823797598481178">
        <ele>1989.5899999999999</ele>
        <time>2018-03-02T14:16:40Z</time>
      </trkpt>
      <trkpt lat="46.389014376327395" lon="11.823754347860813">
        <ele>1989.0999999999999</ele>
        <time>2018-03-02T14:16:43Z</time>
      </trkpt>
      <trkpt lat="46.388984033837914" lon="11.823632810264826">
        <ele>1989.5899999999999</ele>
        <time>2018-03-02T14:16:51Z</time>
      </trkpt>
      <trkpt lat="46.388952769339085" lon="11.823391579091549">
        <ele>1988.1400000000001</ele>
        <time>2018-03-02T14:17:06Z</time>
      </trkpt>
      <trkpt lat="46.388915553689003" lon="11.823173817247152">
        <ele>1987.6600000000001</ele>
        <time>2018-03-02T14:17:20Z</time>
      </trkpt>
      <trkpt lat="46.388860484585166" lon="11.822960078716278">
        <ele>1987.6600000000001</ele>
        <time>2018-03-02T14:17:34Z</time>
      </trkpt>
      <trkpt lat="46.388775827363133" lon="11.822803253307939">
        <ele>1987.6600000000001</ele>
        <time>2018-03-02T14:17:46Z</time>
      </trkpt>
      <trkpt lat="46.388668790459633" lon="11.822641147300601">
        <ele>1987.1800000000001</ele>
        <time>2018-03-02T14:17:59Z</time>
      </trkpt>
      <trkpt lat="46.388551946729422" lon="11.822497984394431">
        <ele>1986.22</ele>
        <time>2018-03-02T14:18:12Z</time>
      </trkpt>
      <trkpt lat="46.388433007523417" lon="11.822361778467894">
        <ele>1985.26</ele>
        <time>2018-03-02T14:18:25Z</time>
      </trkpt>
      <trkpt lat="46.388303842395544" lon="11.82221450842917">
        <ele>1984.78</ele>
        <time>2018-03-02T14:18:38Z</time>
      </trkpt>
      <trkpt lat="46.388185741379857" lon="11.822102526202798">
        <ele>1984.3</ele>
        <time>2018-03-02T14:18:50Z</time>
      </trkpt>
      <trkpt lat="46.388060431927443" lon="11.822002781555057">
        <ele>1984.78</ele>
        <time>2018-03-02T14:19:02Z</time>
      </trkpt>
      <trkpt lat="46.388017013669014" lon="11.821965985000134">
        <ele>1984.78</ele>
        <time>2018-03-02T14:19:06Z</time>
      </trkpt>
      <trkpt lat="46.387953143566847" lon="11.821916699409485">
        <ele>1984.78</ele>
        <time>2018-03-02T14:19:12Z</time>
      </trkpt>
      <trkpt lat="46.387815764173865" lon="11.821772698312998">
        <ele>1984.78</ele>
        <time>2018-03-02T14:19:26Z</time>
      </trkpt>
      <trkpt lat="46.387779554352164" lon="11.821724753826857">
        <ele>1984.78</ele>
        <time>2018-03-02T14:19:30Z</time>
      </trkpt>
      <trkpt lat="46.387678300961852" lon="11.821588715538383">
        <ele>1985.26</ele>
        <time>2018-03-02T14:19:42Z</time>
      </trkpt>
      <trkpt lat="46.387590207159519" lon="11.821425938978791">
        <ele>1985.26</ele>
        <time>2018-03-02T14:19:56Z</time>
      </trkpt>
      <trkpt lat="46.387581909075379" lon="11.82140096090734">
        <ele>1985.26</ele>
        <time>2018-03-02T14:19:58Z</time>
      </trkpt>
      <trkpt lat="46.387541005387902" lon="11.821272131055593">
        <ele>1985.74</ele>
        <time>2018-03-02T14:20:07Z</time>
      </trkpt>
      <trkpt lat="46.387501358985901" lon="11.821085885167122">
        <ele>1985.74</ele>
        <time>2018-03-02T14:20:19Z</time>
      </trkpt>
      <trkpt lat="46.387474201619625" lon="11.820926796644926">
        <ele>1986.22</ele>
        <time>2018-03-02T14:20:30Z</time>
      </trkpt>
      <trkpt lat="46.387471854686737" lon="11.820860914885998">
        <ele>1986.22</ele>
        <time>2018-03-02T14:20:38Z</time>
      </trkpt>
      <trkpt lat="46.387468418106437" lon="11.820823615416884">
        <ele>1985.74</ele>
        <time>2018-03-02T14:20:43Z</time>
      </trkpt>
      <trkpt lat="46.387462802231312" lon="11.820602584630251">
        <ele>1983.8199999999999</ele>
        <time>2018-03-02T14:20:56Z</time>
      </trkpt>
      <trkpt lat="46.387423407286406" lon="11.820439388975501">
        <ele>1982.8599999999999</ele>
        <time>2018-03-02T14:21:07Z</time>
      </trkpt>
      <trkpt lat="46.387324836105108" lon="11.820236295461655">
        <ele>1980.9300000000001</ele>
        <time>2018-03-02T14:21:20Z</time>
      </trkpt>
      <trkpt lat="46.387210674583912" lon="11.820086846128106">
        <ele>1979.01</ele>
        <time>2018-03-02T14:21:33Z</time>
      </trkpt>
      <trkpt lat="46.387065080925822" lon="11.820044601336122">
        <ele>1978.53</ele>
        <time>2018-03-02T14:21:46Z</time>
      </trkpt>
      <trkpt lat="46.386985788121819" lon="11.820092294365168">
        <ele>1979.01</ele>
        <time>2018-03-02T14:21:54Z</time>
      </trkpt>
      <trkpt lat="46.386895850300789" lon="11.820161109790206">
        <ele>1979.97</ele>
        <time>2018-03-02T14:22:04Z</time>
      </trkpt>
      <trkpt lat="46.386781772598624" lon="11.820161445066333">
        <ele>1980.9300000000001</ele>
        <time>2018-03-02T14:22:16Z</time>
      </trkpt>
      <trkpt lat="46.38677230104804" lon="11.820156667381525">
        <ele>1980.9300000000001</ele>
        <time>2018-03-02T14:22:17Z</time>
      </trkpt>
      <trkpt lat="46.386690577492118" lon="11.820069747045636">
        <ele>1980.9300000000001</ele>
        <time>2018-03-02T14:22:27Z</time>
      </trkpt>
      <trkpt lat="46.386684123426676" lon="11.820038482546806">
        <ele>1981.4100000000001</ele>
        <time>2018-03-02T14:22:29Z</time>
      </trkpt>
      <trkpt lat="46.386645985767245" lon="11.819916609674692">
        <ele>1981.9000000000001</ele>
        <time>2018-03-02T14:22:39Z</time>
      </trkpt>
      <trkpt lat="46.386603405699134" lon="11.819750312715769">
        <ele>1982.3800000000001</ele>
        <time>2018-03-02T14:22:51Z</time>
      </trkpt>
      <trkpt lat="46.386595359072089" lon="11.819722652435303">
        <ele>1982.3800000000001</ele>
        <time>2018-03-02T14:22:53Z</time>
      </trkpt>
      <trkpt lat="46.386574152857065" lon="11.819619638845325">
        <ele>1982.8599999999999</ele>
        <time>2018-03-02T14:23:00Z</time>
      </trkpt>
      <trkpt lat="46.386538194492459" lon="11.819482510909438">
        <ele>1983.3399999999999</ele>
        <time>2018-03-02T14:23:10Z</time>
      </trkpt>
      <trkpt lat="46.386509444564581" lon="11.819397266954184">
        <ele>1982.3800000000001</ele>
        <time>2018-03-02T14:23:16Z</time>
      </trkpt>
      <trkpt lat="46.386497961357236" lon="11.819339264184237">
        <ele>1982.3800000000001</ele>
        <time>2018-03-02T14:23:20Z</time>
      </trkpt>
      <trkpt lat="46.386444820091128" lon="11.819197861477733">
        <ele>1982.8599999999999</ele>
        <time>2018-03-02T14:23:31Z</time>
      </trkpt>
      <trkpt lat="46.386388828977942" lon="11.819064924493432">
        <ele>1983.3399999999999</ele>
        <time>2018-03-02T14:23:42Z</time>
      </trkpt>
      <trkpt lat="46.386363264173269" lon="11.819000635296106">
        <ele>1983.3399999999999</ele>
        <time>2018-03-02T14:23:47Z</time>
      </trkpt>
      <trkpt lat="46.386317331343889" lon="11.818830063566566">
        <ele>1982.8599999999999</ele>
        <time>2018-03-02T14:23:58Z</time>
      </trkpt>
      <trkpt lat="46.386202247813344" lon="11.818693438544869">
        <ele>1982.3800000000001</ele>
        <time>2018-03-02T14:24:12Z</time>
      </trkpt>
      <trkpt lat="46.386113399639726" lon="11.818669298663735">
        <ele>1982.3800000000001</ele>
        <time>2018-03-02T14:24:20Z</time>
      </trkpt>
      <trkpt lat="46.386001501232386" lon="11.818633759394288">
        <ele>1982.8599999999999</ele>
        <time>2018-03-02T14:24:31Z</time>
      </trkpt>
      <trkpt lat="46.385865714401007" lon="11.818573325872421">
        <ele>1982.8599999999999</ele>
        <time>2018-03-02T14:24:44Z</time>
      </trkpt>
      <trkpt lat="46.385744763538241" lon="11.818489171564579">
        <ele>1982.3800000000001</ele>
        <time>2018-03-02T14:24:56Z</time>
      </trkpt>
      <trkpt lat="46.385630015283823" lon="11.81841935031116">
        <ele>1980.45</ele>
        <time>2018-03-02T14:25:08Z</time>
      </trkpt>
      <trkpt lat="46.385589698329568" lon="11.818396970629692">
        <ele>1980.45</ele>
        <time>2018-03-02T14:25:17Z</time>
      </trkpt>
      <trkpt lat="46.385563798248768" lon="11.818396132439375">
        <ele>1980.45</ele>
        <time>2018-03-02T14:25:20Z</time>
      </trkpt>
      <trkpt lat="46.385473860427737" lon="11.818365287035704">
        <ele>1979.97</ele>
        <time>2018-03-02T14:25:28Z</time>
      </trkpt>
      <trkpt lat="46.385313849896193" lon="11.818254059180617">
        <ele>1978.53</ele>
        <time>2018-03-02T14:25:42Z</time>
      </trkpt>
      <trkpt lat="46.385259116068482" lon="11.818179879337549">
        <ele>1978.05</ele>
        <time>2018-03-02T14:25:48Z</time>
      </trkpt>
      <trkpt lat="46.385189127177" lon="11.818068735301495">
        <ele>1977.0899999999999</ele>
        <time>2018-03-02T14:25:57Z</time>
      </trkpt>
      <trkpt lat="46.385139590129256" lon="11.817980892956257">
        <ele>1976.6099999999999</ele>
        <time>2018-03-02T14:26:03Z</time>
      </trkpt>
      <trkpt lat="46.385025847703218" lon="11.81786279194057">
        <ele>1976.1300000000001</ele>
        <time>2018-03-02T14:26:15Z</time>
      </trkpt>
      <trkpt lat="46.384893413633108" lon="11.81777972728014">
        <ele>1974.6900000000001</ele>
        <time>2018-03-02T14:26:27Z</time>
      </trkpt>
      <trkpt lat="46.384753352031112" lon="11.817701943218708">
        <ele>1973.72</ele>
        <time>2018-03-02T14:26:39Z</time>
      </trkpt>
      <trkpt lat="46.384670371189713" lon="11.817656680941582">
        <ele>1973.72</ele>
        <time>2018-03-02T14:26:46Z</time>
      </trkpt>
      <trkpt lat="46.384607004001737" lon="11.817603958770633">
        <ele>1973.72</ele>
        <time>2018-03-02T14:26:52Z</time>
      </trkpt>
      <trkpt lat="46.384556544944644" lon="11.817576801404357">
        <ele>1973.72</ele>
        <time>2018-03-02T14:26:57Z</time>
      </trkpt>
      <trkpt lat="46.384428134188056" lon="11.817439673468471">
        <ele>1973.24</ele>
        <time>2018-03-02T14:27:11Z</time>
      </trkpt>
      <trkpt lat="46.38434574007988" lon="11.817318722605705">
        <ele>1973.24</ele>
        <time>2018-03-02T14:27:22Z</time>
      </trkpt>
      <trkpt lat="46.384254209697247" lon="11.817169105634093">
        <ele>1972.28</ele>
        <time>2018-03-02T14:27:34Z</time>
      </trkpt>
      <trkpt lat="46.384209701791406" lon="11.817030217498541">
        <ele>1971.8</ele>
        <time>2018-03-02T14:27:44Z</time>
      </trkpt>
      <trkpt lat="46.384115908294916" lon="11.816823184490204">
        <ele>1970.3599999999999</ele>
        <time>2018-03-02T14:27:58Z</time>
      </trkpt>
      <trkpt lat="46.38396461494267" lon="11.81673064827919">
        <ele>1969.8800000000001</ele>
        <time>2018-03-02T14:28:13Z</time>
      </trkpt>
      <trkpt lat="46.38386101461947" lon="11.816597040742636">
        <ele>1968.4400000000001</ele>
        <time>2018-03-02T14:28:24Z</time>
      </trkpt>
      <trkpt lat="46.383782476186752" lon="11.816401742398739">
        <ele>1966.51</ele>
        <time>2018-03-02T14:28:39Z</time>
      </trkpt>
      <trkpt lat="46.383753726258874" lon="11.816328736022115">
        <ele>1965.55</ele>
        <time>2018-03-02T14:28:45Z</time>
      </trkpt>
      <trkpt lat="46.383698070421815" lon="11.816160930320621">
        <ele>1964.1099999999999</ele>
        <time>2018-03-02T14:28:58Z</time>
      </trkpt>
      <trkpt lat="46.383693879470229" lon="11.816140813753009">
        <ele>1964.1099999999999</ele>
        <time>2018-03-02T14:29:12Z</time>
      </trkpt>
      <trkpt lat="46.383678959682584" lon="11.816095300018787">
        <ele>1963.6300000000001</ele>
        <time>2018-03-02T14:29:25Z</time>
      </trkpt>
      <trkpt lat="46.383610982447863" lon="11.815909640863538">
        <ele>1962.1900000000001</ele>
        <time>2018-03-02T14:29:36Z</time>
      </trkpt>
      <trkpt lat="46.383536970242858" lon="11.81573630310595">
        <ele>1960.27</ele>
        <time>2018-03-02T14:29:48Z</time>
      </trkpt>
      <trkpt lat="46.383496318012476" lon="11.815590457990766">
        <ele>1958.3399999999999</ele>
        <time>2018-03-02T14:29:57Z</time>
      </trkpt>
      <trkpt lat="46.383480057120323" lon="11.815420556813478">
        <ele>1956.4200000000001</ele>
        <time>2018-03-02T14:30:07Z</time>
      </trkpt>
      <trkpt lat="46.383481565862894" lon="11.815206902101636">
        <ele>1954.02</ele>
        <time>2018-03-02T14:30:18Z</time>
      </trkpt>
      <trkpt lat="46.383489528670907" lon="11.815008167177439">
        <ele>1951.1300000000001</ele>
        <time>2018-03-02T14:30:30Z</time>
      </trkpt>
      <trkpt lat="46.383535377681255" lon="11.814805744215846">
        <ele>1948.73</ele>
        <time>2018-03-02T14:30:42Z</time>
      </trkpt>
      <trkpt lat="46.38358692638576" lon="11.81459778919816">
        <ele>1945.8499999999999</ele>
        <time>2018-03-02T14:30:55Z</time>
      </trkpt>
      <trkpt lat="46.383624393492937" lon="11.814490836113691">
        <ele>1944.4000000000001</ele>
        <time>2018-03-02T14:31:02Z</time>
      </trkpt>
      <trkpt lat="46.383687257766724" lon="11.814315319061279">
        <ele>1942</ele>
        <time>2018-03-02T14:31:15Z</time>
      </trkpt>
      <trkpt lat="46.383691448718309" lon="11.814300902187824">
        <ele>1941.52</ele>
        <time>2018-03-02T14:31:16Z</time>
      </trkpt>
      <trkpt lat="46.383682563900948" lon="11.814190847799182">
        <ele>1941.04</ele>
        <time>2018-03-02T14:31:22Z</time>
      </trkpt>
      <trkpt lat="46.383609808981419" lon="11.814078781753778">
        <ele>1939.5999999999999</ele>
        <time>2018-03-02T14:31:32Z</time>
      </trkpt>
      <trkpt lat="46.383531270548701" lon="11.814055144786835">
        <ele>1939.1199999999999</ele>
        <time>2018-03-02T14:31:39Z</time>
      </trkpt>
      <trkpt lat="46.383514506742358" lon="11.814039973542094">
        <ele>1938.6400000000001</ele>
        <time>2018-03-02T14:31:41Z</time>
      </trkpt>
      <trkpt lat="46.383353993296623" lon="11.813998147845268">
        <ele>1936.23</ele>
        <time>2018-03-02T14:31:56Z</time>
      </trkpt>
      <trkpt lat="46.383209573104978" lon="11.8139239680022">
        <ele>1933.8299999999999</ele>
        <time>2018-03-02T14:32:09Z</time>
      </trkpt>
      <trkpt lat="46.383157856762409" lon="11.813879543915391">
        <ele>1933.3499999999999</ele>
        <time>2018-03-02T14:32:14Z</time>
      </trkpt>
      <trkpt lat="46.38311586342752" lon="11.813831180334091">
        <ele>1932.8699999999999</ele>
        <time>2018-03-02T14:32:19Z</time>
      </trkpt>
      <trkpt lat="46.382996253669262" lon="11.813690615817904">
        <ele>1932.3900000000001</ele>
        <time>2018-03-02T14:32:32Z</time>
      </trkpt>
      <trkpt lat="46.382967419922352" lon="11.813646778464317">
        <ele>1931.9100000000001</ele>
        <time>2018-03-02T14:32:36Z</time>
      </trkpt>
      <trkpt lat="46.382959373295307" lon="11.8136166036129">
        <ele>1932.3900000000001</ele>
        <time>2018-03-02T14:32:38Z</time>
      </trkpt>
      <trkpt lat="46.38292090035975" lon="11.813510153442621">
        <ele>1931.9100000000001</ele>
        <time>2018-03-02T14:32:45Z</time>
      </trkpt>
      <trkpt lat="46.382838506251574" lon="11.813352070748806">
        <ele>1930.95</ele>
        <time>2018-03-02T14:32:56Z</time>
      </trkpt>
      <trkpt lat="46.382762482389808" lon="11.813173200935125">
        <ele>1930.46</ele>
        <time>2018-03-02T14:33:07Z</time>
      </trkpt>
      <trkpt lat="46.382738593965769" lon="11.812987038865685">
        <ele>1930.46</ele>
        <time>2018-03-02T14:33:18Z</time>
      </trkpt>
      <trkpt lat="46.382715459913015" lon="11.812877571210265">
        <ele>1930.46</ele>
        <time>2018-03-02T14:33:30Z</time>
      </trkpt>
      <trkpt lat="46.382693666964769" lon="11.81289098225534">
        <ele>1930.46</ele>
        <time>2018-03-02T14:33:44Z</time>
      </trkpt>
      <trkpt lat="46.382684614509344" lon="11.812869943678379">
        <ele>1930.46</ele>
        <time>2018-03-02T14:34:00Z</time>
      </trkpt>
      <trkpt lat="46.382682686671615" lon="11.812851754948497">
        <ele>1930.46</ele>
        <time>2018-03-02T14:34:12Z</time>
      </trkpt>
      <trkpt lat="46.382677657529712" lon="11.812811940908432">
        <ele>1929.98</ele>
        <time>2018-03-02T14:34:21Z</time>
      </trkpt>
      <trkpt lat="46.38268536888063" lon="11.812789477407932">
        <ele>1929.98</ele>
        <time>2018-03-02T14:34:35Z</time>
      </trkpt>
      <trkpt lat="46.382706072181463" lon="11.812667939811945">
        <ele>1929.98</ele>
        <time>2018-03-02T14:34:44Z</time>
      </trkpt>
      <trkpt lat="46.382706994190812" lon="11.812656037509441">
        <ele>1929.98</ele>
        <time>2018-03-02T14:34:45Z</time>
      </trkpt>
      <trkpt lat="46.382729122415185" lon="11.812535170465708">
        <ele>1929.5</ele>
        <time>2018-03-02T14:34:53Z</time>
      </trkpt>
      <trkpt lat="46.382733145728707" lon="11.812376249581575">
        <ele>1929.02</ele>
        <time>2018-03-02T14:35:05Z</time>
      </trkpt>
      <trkpt lat="46.382751585915685" lon="11.812239708378911">
        <ele>1929.02</ele>
        <time>2018-03-02T14:35:14Z</time>
      </trkpt>
      <trkpt lat="46.382776815444231" lon="11.812111465260386">
        <ele>1929.02</ele>
        <time>2018-03-02T14:35:21Z</time>
      </trkpt>
      <trkpt lat="46.382785281166434" lon="11.812028149142861">
        <ele>1928.54</ele>
        <time>2018-03-02T14:35:26Z</time>
      </trkpt>
      <trkpt lat="46.382814534008503" lon="11.811832683160901">
        <ele>1928.54</ele>
        <time>2018-03-02T14:35:37Z</time>
      </trkpt>
      <trkpt lat="46.382853090763092" lon="11.811689604073763">
        <ele>1927.0999999999999</ele>
        <time>2018-03-02T14:35:47Z</time>
      </trkpt>
      <trkpt lat="46.382879745215178" lon="11.811584495007992">
        <ele>1926.6199999999999</ele>
        <time>2018-03-02T14:35:54Z</time>
      </trkpt>
      <trkpt lat="46.382964234799147" lon="11.811462454497814">
        <ele>1926.1400000000001</ele>
        <time>2018-03-02T14:36:03Z</time>
      </trkpt>
      <trkpt lat="46.383026847615838" lon="11.811339324340224">
        <ele>1925.6600000000001</ele>
        <time>2018-03-02T14:36:11Z</time>
      </trkpt>
      <trkpt lat="46.383067416027188" lon="11.81127461604774">
        <ele>1925.6600000000001</ele>
        <time>2018-03-02T14:36:15Z</time>
      </trkpt>
      <trkpt lat="46.383123323321342" lon="11.81110018864274">
        <ele>1925.1800000000001</ele>
        <time>2018-03-02T14:36:26Z</time>
      </trkpt>
      <trkpt lat="46.383174452930689" lon="11.810946548357606">
        <ele>1924.7</ele>
        <time>2018-03-02T14:36:36Z</time>
      </trkpt>
      <trkpt lat="46.383115528151393" lon="11.810763319954276">
        <ele>1924.22</ele>
        <time>2018-03-02T14:36:49Z</time>
      </trkpt>
      <trkpt lat="46.383016705513" lon="11.810662737116218">
        <ele>1924.22</ele>
        <time>2018-03-02T14:37:00Z</time>
      </trkpt>
      <trkpt lat="46.382931377738714" lon="11.810548156499863">
        <ele>1924.22</ele>
        <time>2018-03-02T14:37:08Z</time>
      </trkpt>
      <trkpt lat="46.38287840411067" lon="11.810498787090182">
        <ele>1924.22</ele>
        <time>2018-03-02T14:37:13Z</time>
      </trkpt>
      <trkpt lat="46.382785113528371" lon="11.810328802093863">
        <ele>1924.22</ele>
        <time>2018-03-02T14:37:26Z</time>
      </trkpt>
      <trkpt lat="46.382734654471278" lon="11.81010827422142">
        <ele>1923.74</ele>
        <time>2018-03-02T14:37:39Z</time>
      </trkpt>
      <trkpt lat="46.382676567882299" lon="11.809946587309241">
        <ele>1922.77</ele>
        <time>2018-03-02T14:37:49Z</time>
      </trkpt>
      <trkpt lat="46.382646057754755" lon="11.80992160923779">
        <ele>1924.22</ele>
        <time>2018-03-02T14:37:52Z</time>
      </trkpt>
      <trkpt lat="46.382638514041901" lon="11.809912053868175">
        <ele>1922.77</ele>
        <time>2018-03-02T14:37:53Z</time>
      </trkpt>
      <trkpt lat="46.382530471310019" lon="11.809881292283535">
        <ele>1922.77</ele>
        <time>2018-03-02T14:38:04Z</time>
      </trkpt>
      <trkpt lat="46.382426954805851" lon="11.809966955333948">
        <ele>1923.25</ele>
        <time>2018-03-02T14:38:15Z</time>
      </trkpt>
      <trkpt lat="46.382332658395171" lon="11.81006426922977">
        <ele>1923.25</ele>
        <time>2018-03-02T14:38:28Z</time>
      </trkpt>
      <trkpt lat="46.382284546270967" lon="11.810137946158648">
        <ele>1924.22</ele>
        <time>2018-03-02T14:38:37Z</time>
      </trkpt>
      <trkpt lat="46.382191674783826" lon="11.810237942263484">
        <ele>1925.1800000000001</ele>
        <time>2018-03-02T14:38:49Z</time>
      </trkpt>
      <trkpt lat="46.382119674235582" lon="11.810302482917905">
        <ele>1926.1400000000001</ele>
        <time>2018-03-02T14:38:58Z</time>
      </trkpt>
      <trkpt lat="46.381989419460297" lon="11.810412285849452">
        <ele>1927.0999999999999</ele>
        <time>2018-03-02T14:39:11Z</time>
      </trkpt>
      <trkpt lat="46.381957735866308" lon="11.810424271970987">
        <ele>1927.0999999999999</ele>
        <time>2018-03-02T14:39:14Z</time>
      </trkpt>
      <trkpt lat="46.381873665377498" lon="11.810435838997364">
        <ele>1927.5799999999999</ele>
        <time>2018-03-02T14:39:22Z</time>
      </trkpt>
      <trkpt lat="46.381800239905715" lon="11.810433072969317">
        <ele>1928.0599999999999</ele>
        <time>2018-03-02T14:39:29Z</time>
      </trkpt>
      <trkpt lat="46.381682055070996" lon="11.810424188151956">
        <ele>1928.54</ele>
        <time>2018-03-02T14:39:41Z</time>
      </trkpt>
      <trkpt lat="46.381601672619581" lon="11.810350259765983">
        <ele>1928.54</ele>
        <time>2018-03-02T14:39:52Z</time>
      </trkpt>
      <trkpt lat="46.381573593243957" lon="11.810321426019073">
        <ele>1928.54</ele>
        <time>2018-03-02T14:39:56Z</time>
      </trkpt>
      <trkpt lat="46.381564708426595" lon="11.810306254774332">
        <ele>1928.54</ele>
        <time>2018-03-02T14:39:57Z</time>
      </trkpt>
      <trkpt lat="46.381425065919757" lon="11.810185890644789">
        <ele>1928.54</ele>
        <time>2018-03-02T14:40:09Z</time>
      </trkpt>
      <trkpt lat="46.381404781714082" lon="11.810157224535942">
        <ele>1928.54</ele>
        <time>2018-03-02T14:40:11Z</time>
      </trkpt>
      <trkpt lat="46.38133873231709" lon="11.809992184862494">
        <ele>1929.02</ele>
        <time>2018-03-02T14:40:22Z</time>
      </trkpt>
      <trkpt lat="46.381317442283034" lon="11.809872323647141">
        <ele>1929.02</ele>
        <time>2018-03-02T14:40:29Z</time>
      </trkpt>
      <trkpt lat="46.381315179169178" lon="11.809703428298235">
        <ele>1928.0599999999999</ele>
        <time>2018-03-02T14:40:40Z</time>
      </trkpt>
      <trkpt lat="46.381313921883702" lon="11.809688759967685">
        <ele>1928.0599999999999</ele>
        <time>2018-03-02T14:40:41Z</time>
      </trkpt>
      <trkpt lat="46.381306881085038" lon="11.809631511569023">
        <ele>1928.0599999999999</ele>
        <time>2018-03-02T14:40:45Z</time>
      </trkpt>
      <trkpt lat="46.381306378170848" lon="11.809414671733975">
        <ele>1928.0599999999999</ele>
        <time>2018-03-02T14:40:57Z</time>
      </trkpt>
      <trkpt lat="46.381307886913419" lon="11.809397907927632">
        <ele>1928.0599999999999</ele>
        <time>2018-03-02T14:40:58Z</time>
      </trkpt>
      <trkpt lat="46.381305372342467" lon="11.809275364503264">
        <ele>1927.5799999999999</ele>
        <time>2018-03-02T14:41:09Z</time>
      </trkpt>
      <trkpt lat="46.381301265209913" lon="11.809221301227808">
        <ele>1927.0999999999999</ele>
        <time>2018-03-02T14:41:23Z</time>
      </trkpt>
      <trkpt lat="46.381335211917758" lon="11.809087106958032">
        <ele>1926.1400000000001</ele>
        <time>2018-03-02T14:41:31Z</time>
      </trkpt>
      <trkpt lat="46.381403189152479" lon="11.808928772807121">
        <ele>1924.7</ele>
        <time>2018-03-02T14:41:40Z</time>
      </trkpt>
      <trkpt lat="46.38144233264029" lon="11.808731881901622">
        <ele>1923.25</ele>
        <time>2018-03-02T14:41:52Z</time>
      </trkpt>
      <trkpt lat="46.381431017071009" lon="11.808542618528008">
        <ele>1923.25</ele>
        <time>2018-03-02T14:42:04Z</time>
      </trkpt>
      <trkpt lat="46.381432190537453" lon="11.808382356539369">
        <ele>1922.29</ele>
        <time>2018-03-02T14:42:14Z</time>
      </trkpt>
      <trkpt lat="46.381432358175516" lon="11.808353858068585">
        <ele>1921.8099999999999</ele>
        <time>2018-03-02T14:42:16Z</time>
      </trkpt>
      <trkpt lat="46.381479213014245" lon="11.808150177821517">
        <ele>1919.8900000000001</ele>
        <time>2018-03-02T14:42:29Z</time>
      </trkpt>
      <trkpt lat="46.381541742011905" lon="11.807993687689304">
        <ele>1917.97</ele>
        <time>2018-03-02T14:42:40Z</time>
      </trkpt>
      <trkpt lat="46.381552806124091" lon="11.807950353249907">
        <ele>1917.97</ele>
        <time>2018-03-02T14:42:44Z</time>
      </trkpt>
      <trkpt lat="46.381636206060648" lon="11.807863600552082">
        <ele>1916.04</ele>
        <time>2018-03-02T14:42:54Z</time>
      </trkpt>
      <trkpt lat="46.381638720631599" lon="11.807838119566441">
        <ele>1916.04</ele>
        <time>2018-03-02T14:42:56Z</time>
      </trkpt>
      <trkpt lat="46.381766544654965" lon="11.807676265016198">
        <ele>1915.0799999999999</ele>
        <time>2018-03-02T14:43:07Z</time>
      </trkpt>
      <trkpt lat="46.381775010377169" lon="11.80766168050468">
        <ele>1915.5599999999999</ele>
        <time>2018-03-02T14:43:08Z</time>
      </trkpt>
      <trkpt lat="46.381835443899035" lon="11.807462861761451">
        <ele>1915.5599999999999</ele>
        <time>2018-03-02T14:43:20Z</time>
      </trkpt>
      <trkpt lat="46.381830917671323" lon="11.807257169857621">
        <ele>1915.5599999999999</ele>
        <time>2018-03-02T14:43:32Z</time>
      </trkpt>
      <trkpt lat="46.381829408928752" lon="11.807071678340435">
        <ele>1915.0799999999999</ele>
        <time>2018-03-02T14:43:44Z</time>
      </trkpt>
      <trkpt lat="46.381813064217567" lon="11.806949721649289">
        <ele>1915.0799999999999</ele>
        <time>2018-03-02T14:43:52Z</time>
      </trkpt>
      <trkpt lat="46.381787164136767" lon="11.806914266198874">
        <ele>1915.0799999999999</ele>
        <time>2018-03-02T14:43:56Z</time>
      </trkpt>
      <trkpt lat="46.381670823320746" lon="11.806780239567161">
        <ele>1914.5999999999999</ele>
        <time>2018-03-02T14:44:09Z</time>
      </trkpt>
      <trkpt lat="46.381580466404557" lon="11.806721482425928">
        <ele>1914.5999999999999</ele>
        <time>2018-03-02T14:44:18Z</time>
      </trkpt>
      <trkpt lat="46.381555739790201" lon="11.806716872379184">
        <ele>1914.5999999999999</ele>
        <time>2018-03-02T14:44:20Z</time>
      </trkpt>
      <trkpt lat="46.381535707041621" lon="11.806712010875344">
        <ele>1915.0799999999999</ele>
        <time>2018-03-02T14:44:22Z</time>
      </trkpt>
      <trkpt lat="46.381451049819589" lon="11.806698432192206">
        <ele>1915.0799999999999</ele>
        <time>2018-03-02T14:44:31Z</time>
      </trkpt>
      <trkpt lat="46.381430514156818" lon="11.806702371686697">
        <ele>1915.0799999999999</ele>
        <time>2018-03-02T14:44:33Z</time>
      </trkpt>
      <trkpt lat="46.381313251331449" lon="11.806700276210904">
        <ele>1915.5599999999999</ele>
        <time>2018-03-02T14:44:45Z</time>
      </trkpt>
      <trkpt lat="46.381224235519767" lon="11.806749394163489">
        <ele>1916.04</ele>
        <time>2018-03-02T14:44:54Z</time>
      </trkpt>
      <trkpt lat="46.381104541942477" lon="11.806745957583189">
        <ele>1916.53</ele>
        <time>2018-03-02T14:45:05Z</time>
      </trkpt>
      <trkpt lat="46.380977975204587" lon="11.806735564023256">
        <ele>1916.04</ele>
        <time>2018-03-02T14:45:17Z</time>
      </trkpt>
      <trkpt lat="46.380887366831303" lon="11.806795746088028">
        <ele>1917.01</ele>
        <time>2018-03-02T14:45:28Z</time>
      </trkpt>
      <trkpt lat="46.38080614618957" lon="11.806845283135772">
        <ele>1917.01</ele>
        <time>2018-03-02T14:45:37Z</time>
      </trkpt>
      <trkpt lat="46.380717298015952" lon="11.80677286349237">
        <ele>1917.97</ele>
        <time>2018-03-02T14:45:46Z</time>
      </trkpt>
      <trkpt lat="46.380668850615621" lon="11.806580163538456">
        <ele>1918.45</ele>
        <time>2018-03-02T14:45:58Z</time>
      </trkpt>
      <trkpt lat="46.380669521167874" lon="11.806565327569842">
        <ele>1918.45</ele>
        <time>2018-03-02T14:45:59Z</time>
      </trkpt>
      <trkpt lat="46.380678908899426" lon="11.806439096108079">
        <ele>1918.45</ele>
        <time>2018-03-02T14:46:07Z</time>
      </trkpt>
      <trkpt lat="46.380686704069376" lon="11.806369358673692">
        <ele>1918.45</ele>
        <time>2018-03-02T14:46:11Z</time>
      </trkpt>
      <trkpt lat="46.380709586665034" lon="11.806202726438642">
        <ele>1918.45</ele>
        <time>2018-03-02T14:46:22Z</time>
      </trkpt>
      <trkpt lat="46.380708580836654" lon="11.806165846064687">
        <ele>1918.45</ele>
        <time>2018-03-02T14:46:25Z</time>
      </trkpt>
      <trkpt lat="46.380707658827305" lon="11.80610004812479">
        <ele>1918.9300000000001</ele>
        <time>2018-03-02T14:46:29Z</time>
      </trkpt>
      <trkpt lat="46.380707239732146" lon="11.806066604331136">
        <ele>1918.9300000000001</ele>
        <time>2018-03-02T14:46:31Z</time>
      </trkpt>
      <trkpt lat="46.380698187276721" lon="11.805952778086066">
        <ele>1919.4100000000001</ele>
        <time>2018-03-02T14:46:39Z</time>
      </trkpt>
      <trkpt lat="46.380699444562197" lon="11.805859319865704">
        <ele>1919.4100000000001</ele>
        <time>2018-03-02T14:46:45Z</time>
      </trkpt>
      <trkpt lat="46.380695840343833" lon="11.805744068697095">
        <ele>1919.8900000000001</ele>
        <time>2018-03-02T14:46:53Z</time>
      </trkpt>
      <trkpt lat="46.380704641342163" lon="11.805614568293095">
        <ele>1920.8499999999999</ele>
        <time>2018-03-02T14:47:03Z</time>
      </trkpt>
      <trkpt lat="46.380701623857021" lon="11.805586572736502">
        <ele>1920.8499999999999</ele>
        <time>2018-03-02T14:47:05Z</time>
      </trkpt>
      <trkpt lat="46.380691481754184" lon="11.805516751483083">
        <ele>1920.8499999999999</ele>
        <time>2018-03-02T14:47:09Z</time>
      </trkpt>
      <trkpt lat="46.380694080144167" lon="11.805484397336841">
        <ele>1921.3299999999999</ele>
        <time>2018-03-02T14:47:11Z</time>
      </trkpt>
      <trkpt lat="46.380683938041329" lon="11.805418431758881">
        <ele>1921.3299999999999</ele>
        <time>2018-03-02T14:47:16Z</time>
      </trkpt>
      <trkpt lat="46.380680669099092" lon="11.805389178916812">
        <ele>1921.3299999999999</ele>
        <time>2018-03-02T14:47:18Z</time>
      </trkpt>
      <trkpt lat="46.380660133436322" lon="11.805232604965568">
        <ele>1922.29</ele>
        <time>2018-03-02T14:47:29Z</time>
      </trkpt>
      <trkpt lat="46.380643201991916" lon="11.805181978270411">
        <ele>1922.29</ele>
        <time>2018-03-02T14:47:32Z</time>
      </trkpt>
      <trkpt lat="46.380631132051349" lon="11.805083993822336">
        <ele>1922.29</ele>
        <time>2018-03-02T14:47:39Z</time>
      </trkpt>
      <trkpt lat="46.380622498691082" lon="11.804963378235698">
        <ele>1922.77</ele>
        <time>2018-03-02T14:47:46Z</time>
      </trkpt>
      <trkpt lat="46.380602298304439" lon="11.804881570860744">
        <ele>1922.77</ele>
        <time>2018-03-02T14:47:52Z</time>
      </trkpt>
      <trkpt lat="46.380596682429314" lon="11.804686775431037">
        <ele>1922.77</ele>
        <time>2018-03-02T14:48:04Z</time>
      </trkpt>
      <trkpt lat="46.38056131079793" lon="11.804483933374286">
        <ele>1922.77</ele>
        <time>2018-03-02T14:48:17Z</time>
      </trkpt>
      <trkpt lat="46.380516719073057" lon="11.804326521232724">
        <ele>1923.25</ele>
        <time>2018-03-02T14:48:29Z</time>
      </trkpt>
      <trkpt lat="46.380490148440003" lon="11.804238092154264">
        <ele>1923.74</ele>
        <time>2018-03-02T14:48:36Z</time>
      </trkpt>
      <trkpt lat="46.380470534786582" lon="11.80419685319066">
        <ele>1923.74</ele>
        <time>2018-03-02T14:48:39Z</time>
      </trkpt>
      <trkpt lat="46.380425021052361" lon="11.804072046652436">
        <ele>1924.22</ele>
        <time>2018-03-02T14:48:49Z</time>
      </trkpt>
      <trkpt lat="46.380390236154199" lon="11.803964590653777">
        <ele>1924.22</ele>
        <time>2018-03-02T14:48:56Z</time>
      </trkpt>
      <trkpt lat="46.380353774875402" lon="11.803767951205373">
        <ele>1923.74</ele>
        <time>2018-03-02T14:49:08Z</time>
      </trkpt>
      <trkpt lat="46.380327036604285" lon="11.803613724187016">
        <ele>1923.74</ele>
        <time>2018-03-02T14:49:18Z</time>
      </trkpt>
      <trkpt lat="46.380282696336508" lon="11.803399147465825">
        <ele>1923.25</ele>
        <time>2018-03-02T14:49:32Z</time>
      </trkpt>
      <trkpt lat="46.380272805690765" lon="11.803354807198048">
        <ele>1923.25</ele>
        <time>2018-03-02T14:49:35Z</time>
      </trkpt>
      <trkpt lat="46.380224023014307" lon="11.803162861615419">
        <ele>1923.25</ele>
        <time>2018-03-02T14:49:48Z</time>
      </trkpt>
      <trkpt lat="46.380181862041354" lon="11.802996648475528">
        <ele>1923.25</ele>
        <time>2018-03-02T14:50:00Z</time>
      </trkpt>
      <trkpt lat="46.380146155133843" lon="11.802887348458171">
        <ele>1922.77</ele>
        <time>2018-03-02T14:50:08Z</time>
      </trkpt>
      <trkpt lat="46.380098713561893" lon="11.802704036235809">
        <ele>1922.29</ele>
        <time>2018-03-02T14:50:20Z</time>
      </trkpt>
      <trkpt lat="46.380078848451376" lon="11.802554335445166">
        <ele>1922.29</ele>
        <time>2018-03-02T14:50:29Z</time>
      </trkpt>
      <trkpt lat="46.380066862329841" lon="11.802493231371045">
        <ele>1921.8099999999999</ele>
        <time>2018-03-02T14:50:33Z</time>
      </trkpt>
      <trkpt lat="46.380040794610977" lon="11.802311176434159">
        <ele>1921.8099999999999</ele>
        <time>2018-03-02T14:50:45Z</time>
      </trkpt>
      <trkpt lat="46.380026461556554" lon="11.802198439836502">
        <ele>1921.3299999999999</ele>
        <time>2018-03-02T14:50:53Z</time>
      </trkpt>
      <trkpt lat="46.380028640851378" lon="11.802135575562716">
        <ele>1920.8499999999999</ele>
        <time>2018-03-02T14:51:04Z</time>
      </trkpt>
      <trkpt lat="46.380002573132515" lon="11.802119230851531">
        <ele>1920.8499999999999</ele>
        <time>2018-03-02T14:51:13Z</time>
      </trkpt>
      <trkpt lat="46.379987401887774" lon="11.802128534764051">
        <ele>1920.8499999999999</ele>
        <time>2018-03-02T14:51:27Z</time>
      </trkpt>
      <trkpt lat="46.379952868446708" lon="11.802166504785419">
        <ele>1920.8499999999999</ele>
        <time>2018-03-02T14:51:41Z</time>
      </trkpt>
      <trkpt lat="46.379958065226674" lon="11.802167762070894">
        <ele>1920.8499999999999</ele>
        <time>2018-03-02T14:51:51Z</time>
      </trkpt>
      <trkpt lat="46.379958568140864" lon="11.802164744585752">
        <ele>1920.8499999999999</ele>
        <time>2018-03-02T14:52:06Z</time>
      </trkpt>
      <trkpt lat="46.379950605332851" lon="11.802151082083583">
        <ele>1920.3699999999999</ele>
        <time>2018-03-02T14:52:17Z</time>
      </trkpt>
      <trkpt lat="46.379938954487443" lon="11.802152590826154">
        <ele>1920.3699999999999</ele>
        <time>2018-03-02T14:52:27Z</time>
      </trkpt>
      <trkpt lat="46.37995052151382" lon="11.802159631624818">
        <ele>1920.3699999999999</ele>
        <time>2018-03-02T14:52:37Z</time>
      </trkpt>
      <trkpt lat="46.379949012771249" lon="11.802200702950358">
        <ele>1920.3699999999999</ele>
        <time>2018-03-02T14:52:53Z</time>
      </trkpt>
      <trkpt lat="46.37996812351048" lon="11.802182346582413">
        <ele>1920.8499999999999</ele>
        <time>2018-03-02T14:53:11Z</time>
      </trkpt>
      <trkpt lat="46.379957310855389" lon="11.802169354632497">
        <ele>1920.8499999999999</ele>
        <time>2018-03-02T14:53:27Z</time>
      </trkpt>
      <trkpt lat="46.37996862642467" lon="11.802146891131997">
        <ele>1920.3699999999999</ele>
        <time>2018-03-02T14:53:48Z</time>
      </trkpt>
      <trkpt lat="46.379970889538527" lon="11.802140604704618">
        <ele>1920.3699999999999</ele>
        <time>2018-03-02T14:54:05Z</time>
      </trkpt>
      <trkpt lat="46.379941888153553" lon="11.802143873646855">
        <ele>1920.8499999999999</ele>
        <time>2018-03-02T14:54:30Z</time>
      </trkpt>
      <trkpt lat="46.379941552877426" lon="11.802165331318974">
        <ele>1920.3699999999999</ele>
        <time>2018-03-02T14:54:49Z</time>
      </trkpt>
      <trkpt lat="46.379918418824673" lon="11.802205145359039">
        <ele>1920.3699999999999</ele>
        <time>2018-03-02T14:55:15Z</time>
      </trkpt>
      <trkpt lat="46.379930321127176" lon="11.802245043218136">
        <ele>1920.3699999999999</ele>
        <time>2018-03-02T14:55:34Z</time>
      </trkpt>
      <trkpt lat="46.379936607554555" lon="11.802227860316634">
        <ele>1919.8900000000001</ele>
        <time>2018-03-02T14:55:52Z</time>
      </trkpt>
      <trkpt lat="46.379941552877426" lon="11.802220568060875">
        <ele>1920.3699999999999</ele>
        <time>2018-03-02T14:56:08Z</time>
      </trkpt>
      <trkpt lat="46.379939122125506" lon="11.802224423736334">
        <ele>1920.3699999999999</ele>
        <time>2018-03-02T14:56:20Z</time>
      </trkpt>
      <trkpt lat="46.379942558705807" lon="11.802189387381077">
        <ele>1920.3699999999999</ele>
        <time>2018-03-02T14:56:35Z</time>
      </trkpt>
      <trkpt lat="46.379953538998961" lon="11.802080422639847">
        <ele>1919.8900000000001</ele>
        <time>2018-03-02T14:56:48Z</time>
      </trkpt>
      <trkpt lat="46.379934512078762" lon="11.802072040736675">
        <ele>1919.8900000000001</ele>
        <time>2018-03-02T14:56:50Z</time>
      </trkpt>
      <trkpt lat="46.379834096878767" lon="11.802016301080585">
        <ele>1920.3699999999999</ele>
        <time>2018-03-02T14:57:00Z</time>
      </trkpt>
      <trkpt lat="46.379748014733195" lon="11.801923932507634">
        <ele>1920.3699999999999</ele>
        <time>2018-03-02T14:57:10Z</time>
      </trkpt>
      <trkpt lat="46.379709960892797" lon="11.801859894767404">
        <ele>1920.3699999999999</ele>
        <time>2018-03-02T14:57:15Z</time>
      </trkpt>
      <trkpt lat="46.379683893173933" lon="11.801636097952724">
        <ele>1919.8900000000001</ele>
        <time>2018-03-02T14:57:29Z</time>
      </trkpt>
      <trkpt lat="46.379658412188292" lon="11.801460245624185">
        <ele>1919.4100000000001</ele>
        <time>2018-03-02T14:57:40Z</time>
      </trkpt>
      <trkpt lat="46.37964223511517" lon="11.801379360258579">
        <ele>1918.9300000000001</ele>
        <time>2018-03-02T14:57:45Z</time>
      </trkpt>
      <trkpt lat="46.379621028900146" lon="11.801201412454247">
        <ele>1918.45</ele>
        <time>2018-03-02T14:57:58Z</time>
      </trkpt>
      <trkpt lat="46.379625303670764" lon="11.801144750788808">
        <ele>1919.4100000000001</ele>
        <time>2018-03-02T14:58:02Z</time>
      </trkpt>
      <trkpt lat="46.379631673917174" lon="11.801075683906674">
        <ele>1917.97</ele>
        <time>2018-03-02T14:58:06Z</time>
      </trkpt>
      <trkpt lat="46.379642905667424" lon="11.800992032513022">
        <ele>1917.49</ele>
        <time>2018-03-02T14:58:11Z</time>
      </trkpt>
      <trkpt lat="46.379635948687792" lon="11.800821209326386">
        <ele>1917.01</ele>
        <time>2018-03-02T14:58:22Z</time>
      </trkpt>
      <trkpt lat="46.379635278135538" lon="11.800776701420546">
        <ele>1917.01</ele>
        <time>2018-03-02T14:58:25Z</time>
      </trkpt>
      <trkpt lat="46.379625052213669" lon="11.800708137452602">
        <ele>1917.01</ele>
        <time>2018-03-02T14:58:29Z</time>
      </trkpt>
      <trkpt lat="46.379613820463419" lon="11.80064351297915">
        <ele>1917.01</ele>
        <time>2018-03-02T14:58:33Z</time>
      </trkpt>
      <trkpt lat="46.379545759409666" lon="11.800459278747439">
        <ele>1916.53</ele>
        <time>2018-03-02T14:58:46Z</time>
      </trkpt>
      <trkpt lat="46.379459844902158" lon="11.800372945144773">
        <ele>1917.01</ele>
        <time>2018-03-02T14:58:56Z</time>
      </trkpt>
      <trkpt lat="46.379363955929875" lon="11.800267668440938">
        <ele>1917.49</ele>
        <time>2018-03-02T14:59:07Z</time>
      </trkpt>
      <trkpt lat="46.379284160211682" lon="11.800158284604549">
        <ele>1917.97</ele>
        <time>2018-03-02T14:59:17Z</time>
      </trkpt>
      <trkpt lat="46.379202017560601" lon="11.800045380368829">
        <ele>1918.45</ele>
        <time>2018-03-02T14:59:27Z</time>
      </trkpt>
      <trkpt lat="46.379174776375294" lon="11.799860307946801">
        <ele>1918.45</ele>
        <time>2018-03-02T14:59:38Z</time>
      </trkpt>
      <trkpt lat="46.379150971770287" lon="11.799704572185874">
        <ele>1918.45</ele>
        <time>2018-03-02T14:59:48Z</time>
      </trkpt>
      <trkpt lat="46.379144601523876" lon="11.799674648791552">
        <ele>1918.45</ele>
        <time>2018-03-02T14:59:50Z</time>
      </trkpt>
      <trkpt lat="46.379120880737901" lon="11.799560068175197">
        <ele>1918.9300000000001</ele>
        <time>2018-03-02T14:59:58Z</time>
      </trkpt>
      <trkpt lat="46.379107050597668" lon="11.799521176144481">
        <ele>1918.9300000000001</ele>
        <time>2018-03-02T15:00:01Z</time>
      </trkpt>
      <trkpt lat="46.379056675359607" lon="11.799333086237311">
        <ele>1919.4100000000001</ele>
        <time>2018-03-02T15:00:13Z</time>
      </trkpt>
      <trkpt lat="46.379009485244751" lon="11.799157820641994">
        <ele>1920.3699999999999</ele>
        <time>2018-03-02T15:00:25Z</time>
      </trkpt>
      <trkpt lat="46.378991128876805" lon="11.798984901979566">
        <ele>1919.8900000000001</ele>
        <time>2018-03-02T15:00:36Z</time>
      </trkpt>
      <trkpt lat="46.378957936540246" lon="11.798767475411296">
        <ele>1919.4100000000001</ele>
        <time>2018-03-02T15:00:49Z</time>
      </trkpt>
      <trkpt lat="46.378864226862788" lon="11.798642417415977">
        <ele>1919.8900000000001</ele>
        <time>2018-03-02T15:01:00Z</time>
      </trkpt>
      <trkpt lat="46.378780407831073" lon="11.798496069386601">
        <ele>1920.8499999999999</ele>
        <time>2018-03-02T15:01:11Z</time>
      </trkpt>
      <trkpt lat="46.378700863569975" lon="11.798315104097128">
        <ele>1921.3299999999999</ele>
        <time>2018-03-02T15:01:24Z</time>
      </trkpt>
      <trkpt lat="46.378665827214718" lon="11.798253329470754">
        <ele>1921.3299999999999</ele>
        <time>2018-03-02T15:01:29Z</time>
      </trkpt>
      <trkpt lat="46.378596760332584" lon="11.798124415799975">
        <ele>1922.29</ele>
        <time>2018-03-02T15:01:39Z</time>
      </trkpt>
      <trkpt lat="46.378561472520232" lon="11.797984689474106">
        <ele>1922.77</ele>
        <time>2018-03-02T15:01:48Z</time>
      </trkpt>
      <trkpt lat="46.378553928807378" lon="11.797793162986636">
        <ele>1922.29</ele>
        <time>2018-03-02T15:01:59Z</time>
      </trkpt>
      <trkpt lat="46.378552168607712" lon="11.797520667314529">
        <ele>1921.8099999999999</ele>
        <time>2018-03-02T15:02:15Z</time>
      </trkpt>
      <trkpt lat="46.378549234941602" lon="11.797318579629064">
        <ele>1920.8499999999999</ele>
        <time>2018-03-02T15:02:27Z</time>
      </trkpt>
      <trkpt lat="46.378544289618731" lon="11.797120179980993">
        <ele>1920.3699999999999</ele>
        <time>2018-03-02T15:02:38Z</time>
      </trkpt>
      <trkpt lat="46.378545798361301" lon="11.796885654330254">
        <ele>1919.4100000000001</ele>
        <time>2018-03-02T15:02:51Z</time>
      </trkpt>
      <trkpt lat="46.378542277961969" lon="11.796741904690862">
        <ele>1918.9300000000001</ele>
        <time>2018-03-02T15:03:00Z</time>
      </trkpt>
      <trkpt lat="46.378518640995026" lon="11.796688931062818">
        <ele>1918.9300000000001</ele>
        <time>2018-03-02T15:03:03Z</time>
      </trkpt>
      <trkpt lat="46.378492238000035" lon="11.796627407893538">
        <ele>1918.9300000000001</ele>
        <time>2018-03-02T15:03:07Z</time>
      </trkpt>
      <trkpt lat="46.378486538305879" lon="11.796603854745626">
        <ele>1918.9300000000001</ele>
        <time>2018-03-02T15:03:10Z</time>
      </trkpt>
      <trkpt lat="46.37844068929553" lon="11.796440742909908">
        <ele>1919.4100000000001</ele>
        <time>2018-03-02T15:03:20Z</time>
      </trkpt>
      <trkpt lat="46.378436833620071" lon="11.796184172853827">
        <ele>1919.8900000000001</ele>
        <time>2018-03-02T15:03:34Z</time>
      </trkpt>
      <trkpt lat="46.378429709002376" lon="11.796000190079212">
        <ele>1919.8900000000001</ele>
        <time>2018-03-02T15:03:45Z</time>
      </trkpt>
      <trkpt lat="46.378419399261475" lon="11.795854764059186">
        <ele>1919.8900000000001</ele>
        <time>2018-03-02T15:03:53Z</time>
      </trkpt>
      <trkpt lat="46.378417639061809" lon="11.795647898688912">
        <ele>1920.3699999999999</ele>
        <time>2018-03-02T15:04:05Z</time>
      </trkpt>
      <trkpt lat="46.378410765901208" lon="11.795600540935993">
        <ele>1920.3699999999999</ele>
        <time>2018-03-02T15:04:08Z</time>
      </trkpt>
      <trkpt lat="46.378406742587686" lon="11.795501131564379">
        <ele>1919.8900000000001</ele>
        <time>2018-03-02T15:04:14Z</time>
      </trkpt>
      <trkpt lat="46.37840305455029" lon="11.795275993645191">
        <ele>1920.3699999999999</ele>
        <time>2018-03-02T15:04:26Z</time>
      </trkpt>
      <trkpt lat="46.378405652940273" lon="11.795171136036515">
        <ele>1920.8499999999999</ele>
        <time>2018-03-02T15:04:32Z</time>
      </trkpt>
      <trkpt lat="46.37837371788919" lon="11.794987488538027">
        <ele>1920.8499999999999</ele>
        <time>2018-03-02T15:04:44Z</time>
      </trkpt>
      <trkpt lat="46.37829408980906" lon="11.794889671728015">
        <ele>1920.8499999999999</ele>
        <time>2018-03-02T15:04:54Z</time>
      </trkpt>
      <trkpt lat="46.378172468394041" lon="11.794802583754063">
        <ele>1921.3299999999999</ele>
        <time>2018-03-02T15:05:06Z</time>
      </trkpt>
      <trkpt lat="46.378075489774346" lon="11.794693870469928">
        <ele>1921.8099999999999</ele>
        <time>2018-03-02T15:05:17Z</time>
      </trkpt>
      <trkpt lat="46.377988234162331" lon="11.794546684250236">
        <ele>1922.29</ele>
        <time>2018-03-02T15:05:29Z</time>
      </trkpt>
      <trkpt lat="46.37798429466784" lon="11.794452555477619">
        <ele>1922.29</ele>
        <time>2018-03-02T15:05:35Z</time>
      </trkpt>
      <trkpt lat="46.377974236384034" lon="11.794422464445233">
        <ele>1922.77</ele>
        <time>2018-03-02T15:05:37Z</time>
      </trkpt>
      <trkpt lat="46.377965267747641" lon="11.79425030015409">
        <ele>1923.25</ele>
        <time>2018-03-02T15:05:48Z</time>
      </trkpt>
      <trkpt lat="46.377955209463835" lon="11.794126918539405">
        <ele>1923.74</ele>
        <time>2018-03-02T15:05:58Z</time>
      </trkpt>
      <trkpt lat="46.377925369888544" lon="11.794139323756099">
        <ele>1924.22</ele>
        <time>2018-03-02T15:06:08Z</time>
      </trkpt>
      <trkpt lat="46.377912797033787" lon="11.794134294614196">
        <ele>1923.74</ele>
        <time>2018-03-02T15:06:21Z</time>
      </trkpt>
      <trkpt lat="46.377915563061833" lon="11.794099677354097">
        <ele>1923.74</ele>
        <time>2018-03-02T15:06:31Z</time>
      </trkpt>
      <trkpt lat="46.377919670194387" lon="11.794075788930058">
        <ele>1923.74</ele>
        <time>2018-03-02T15:06:41Z</time>
      </trkpt>
      <trkpt lat="46.377926710993052" lon="11.7941012699157">
        <ele>1923.74</ele>
        <time>2018-03-02T15:06:46Z</time>
      </trkpt>
      <trkpt lat="46.377930231392384" lon="11.794089116156101">
        <ele>1922.77</ele>
        <time>2018-03-02T15:06:52Z</time>
      </trkpt>
      <trkpt lat="46.377939367666841" lon="11.794071430340409">
        <ele>1922.77</ele>
        <time>2018-03-02T15:07:12Z</time>
      </trkpt>
      <trkpt lat="46.377947833389044" lon="11.794067993760109">
        <ele>1922.77</ele>
        <time>2018-03-02T15:07:29Z</time>
      </trkpt>
      <trkpt lat="46.377960909157991" lon="11.7940788064152">
        <ele>1922.77</ele>
        <time>2018-03-02T15:07:51Z</time>
      </trkpt>
      <trkpt lat="46.377935009077191" lon="11.794080482795835">
        <ele>1923.74</ele>
        <time>2018-03-02T15:08:08Z</time>
      </trkpt>
    </trkseg>
  </trk>

</gpx>